[[{"header":{"parameterUnit":"m.s-1","parameterCategory":1,"la1":30.6,"la2":28.766,"lo1":-90.7593,"lo2":-88.6598,"dy":0.0162,"dx":0.0183,"nx":116,"ny":114,"refTime":"2023-11-04T18:00:00:Z","depth":0,"parameterNumber":2,"parameterNumberName":"U-component_of_WINDS"},"data":[0.0,0.0,0.0,0.0,0.0,0.0,0.0,0.0,0.0,0.0,0.0,0.0,0.0,0.0,0.0,0.0,0.0,0.0,0.0,0.0,0.0,0.0,0.0,0.0,0.0,0.0,0.0,0.0,0.0,0.0,0.0,0.0,0.0,0.0,0.0,0.0,0.0,0.0,0.0,0.0,0.0,0.0,0.0,0.0,0.0,0.0,0.0,0.0,0.0,0.0,0.0,0.0,0.0,0.0,0.0,0.0,0.0,0.0,0.0,0.0,0.0,0.0,0.0,0.0,0.0,0.0,0.0,0.0,0.0,0.0,0.0,0.0,0.0,0.0,0.0,0.0,0.0,0.0,0.0,0.0,0.0,0.0,0.0,0.0,0.0,0.0,0.0,0.0,0.0,0.0,0.0,0.0,0.0,0.0,0.0,0.0,0.0,0.0,0.0,0.0,0.0,0.0,0.0,0.0,0.0,0.0,0.0,0.0,0.0,0.0,0.0,0.0,0.0,0.0,0.0,0.0,0.0,0.0,0.0,0.0,0.0,0.0,0.0,0.0,0.0,0.0,0.0,0.0,0.0,0.0,0.0,0.0,0.0,0.0,0.0,0.0,0.0,0.0,0.0,0.0,0.0,0.0,0.0,0.0,0.0,0.0,0.0,0.0,0.0,0.0,0.0,0.0,0.0,0.0,0.0,0.0,0.0,0.0,0.0,0.0,0.0,0.0,0.0,0.0,0.0,0.0,0.0,0.0,0.0,0.0,0.0,0.0,0.0,0.0,0.0,0.0,0.0,0.0,0.0,0.0,0.0,0.0,0.0,0.0,0.0,0.0,0.0,0.0,0.0,0.0,0.0,0.0,0.0,0.0,0.0,0.0,0.0,0.0,0.0,0.0,0.0,0.0,0.0,0.0,0.0,0.0,0.0,0.0,0.0,0.0,0.0,0.0,0.0,0.0,0.0,0.0,0.0,0.0,0.0,0.0,0.0,0.0,0.0,0.0,0.0,0.0,0.0,0.0,0.0,0.0,0.0,0.0,0.0,0.0,0.0,0.0,0.0,0.0,0.0,0.0,0.0,0.0,0.0,0.0,0.0,0.0,0.0,0.0,0.0,0.0,0.0,0.0,0.0,0.0,0.0,0.0,0.0,0.0,0.0,0.0,0.0,0.0,0.0,0.0,0.0,0.0,0.0,0.0,0.0,0.0,0.0,0.0,0.0,0.0,0.0,0.0,0.0,0.0,0.0,0.0,0.0,0.0,0.0,0.0,0.0,0.0,0.0,0.0,0.0,0.0,0.0,0.0,0.0,0.0,0.0,0.0,0.0,0.0,0.0,0.0,0.0,0.0,0.0,0.0,0.0,0.0,0.0,0.0,0.0,0.0,0.0,0.0,0.0,0.0,0.0,0.0,0.0,0.0,0.0,0.0,0.0,0.0,0.0,0.0,0.0,0.0,0.0,0.0,0.0,0.0,0.0,0.0,0.0,0.0,0.0,0.0,0.0,0.0,0.0,0.0,0.0,0.0,0.0,0.0,0.0,0.0,0.0,0.0,0.0,0.0,0.0,0.0,0.0,0.0,0.0,0.0,0.0,0.0,0.0,0.0,0.0,0.0,0.0,0.0,0.0,0.0,0.0,0.0,0.0,0.0,0.0,0.0,0.0,0.0,0.0,0.0,0.0,0.0,0.0,0.0,0.0,0.0,0.0,0.0,0.0,0.0,0.0,0.0,0.0,0.0,0.0,0.0,0.0,0.0,0.0,0.0,0.0,0.0,0.0,0.0,0.0,0.0,0.0,0.0,0.0,0.0,0.0,0.0,0.0,0.0,0.0,0.0,0.0,0.0,0.0,0.0,0.0,0.0,0.0,0.0,0.0,0.0,0.0,0.0,0.0,0.0,0.0,0.0,0.0,0.0,0.0,0.0,0.0,0.0,0.0,0.0,0.0,0.0,0.0,0.0,0.0,0.0,0.0,0.0,0.0,0.0,0.0,0.0,0.0,0.0,0.0,0.0,0.0,0.0,0.0,0.0,0.0,0.0,0.0,0.0,0.0,0.0,0.0,0.0,0.0,0.0,0.0,0.0,0.0,0.0,0.0,0.0,0.0,0.0,0.0,0.0,0.0,0.0,0.0,0.0,0.0,0.0,0.0,0.0,0.0,0.0,0.0,0.0,0.0,0.0,0.0,0.0,0.0,0.0,0.0,0.0,0.0,0.0,0.0,0.0,0.0,0.0,0.0,0.0,0.0,0.0,0.0,0.0,0.0,0.0,0.0,0.0,0.0,0.0,0.0,0.0,0.0,0.0,0.0,0.0,0.0,0.0,0.0,0.0,0.0,0.0,0.0,0.0,0.0,0.0,0.0,0.0,0.0,0.0,0.0,0.0,0.0,0.0,0.0,0.0,0.0,0.0,0.0,0.0,0.0,0.0,0.0,0.0,0.0,0.0,0.0,0.0,0.0,0.0,0.0,0.0,0.0,0.0,0.0,0.0,0.0,0.0,0.0,0.0,0.0,0.0,0.0,0.0,0.0,0.0,0.0,0.0,0.0,0.0,0.0,0.0,0.0,0.0,0.0,0.0,0.0,0.0,0.0,0.0,0.0,0.0,0.0,0.0,0.0,0.0,0.0,0.0,0.0,0.0,0.0,0.0,0.0,0.0,0.0,0.0,0.0,0.0,0.0,0.0,0.0,0.0,0.0,0.0,0.0,0.0,0.0,0.0,0.0,0.0,0.0,0.0,0.0,0.0,0.0,0.0,0.0,0.0,0.0,0.0,0.0,0.0,0.0,0.0,0.0,0.0,0.0,0.0,0.0,0.0,0.0,0.0,0.0,0.0,0.0,0.0,0.0,0.0,0.0,0.0,0.0,0.0,0.0,0.0,0.0,0.0,0.0,0.0,0.0,0.0,0.0,0.0,0.0,0.0,0.0,0.0,0.0,0.0,0.0,0.0,0.0,0.0,0.0,0.0,0.0,0.0,0.0,0.0,0.0,0.0,0.0,0.0,0.0,0.0,0.0,0.0,0.0,0.0,0.0,0.0,0.0,0.0,0.0,0.0,0.0,0.0,0.0,0.0,0.0,0.0,0.0,0.0,0.0,0.0,0.0,0.0,0.0,0.0,0.0,0.0,0.0,0.0,0.0,0.0,0.0,0.0,0.0,0.0,0.0,0.0,0.0,0.0,0.0,0.0,0.0,0.0,0.0,0.0,0.0,0.0,0.0,0.0,0.0,0.0,0.0,0.0,0.0,0.0,0.0,0.0,0.0,0.0,0.0,0.0,0.0,0.0,0.0,0.0,0.0,0.0,0.0,0.0,0.0,0.0,0.0,0.0,0.0,0.0,0.0,0.0,0.0,0.0,0.0,0.0,0.0,0.0,0.0,0.0,0.0,0.0,0.0,0.0,0.0,0.0,0.0,0.0,0.0,0.0,0.0,0.0,0.0,0.0,0.0,0.0,0.0,0.0,0.0,0.0,0.0,0.0,0.0,0.0,0.0,0.0,0.0,0.0,0.0,0.0,0.0,0.0,0.0,0.0,0.0,0.0,0.0,0.0,0.0,0.0,0.0,0.0,0.0,0.0,0.0,0.0,0.0,0.0,0.0,0.0,0.0,0.0,0.0,0.0,0.0,0.0,0.0,0.0,0.0,0.0,0.0,0.0,0.0,0.0,0.0,0.0,0.0,0.0,0.0,0.0,0.0,0.0,0.0,0.0,0.0,0.0,0.0,0.0,0.0,0.0,0.0,0.0,0.0,0.0,0.0,0.0,0.0,0.0,0.0,0.0,0.0,0.0,0.0,0.0,0.0,0.0,0.0,0.0,0.0,0.0,0.0,0.0,0.0,0.0,0.0,0.0,0.0,0.0,0.0,0.0,0.0,0.0,0.0,0.0,0.0,0.0,0.0,0.0,0.0,0.0,0.0,0.0,0.0,0.0,0.0,0.0,0.0,0.0,0.0,0.0,0.0,0.0,0.0,0.0,0.0,0.0,0.0,0.0,0.0,0.0,0.0,0.0,0.0,0.0,0.0,0.0,0.0,0.0,0.0,0.0,0.0,0.0,0.0,0.0,0.0,0.0,0.0,0.0,0.0,0.0,0.0,0.0,0.0,0.0,0.0,0.0,0.0,0.0,0.0,0.0,0.0,0.0,0.0,0.0,0.0,0.0,0.0,0.0,0.0,0.0,0.0,0.0,0.0,0.0,0.0,0.0,0.0,0.0,0.0,0.0,0.0,0.0,0.0,0.0,0.0,0.0,0.0,0.0,0.0,0.0,0.0,0.0,0.0,0.0,0.0,0.0,0.0,0.0,0.0,0.0,0.0,0.0,0.0,0.0,0.0,0.0,0.0,0.0,0.0,0.0,0.0,0.0,0.0,0.0,0.0,0.0,0.0,0.0,0.0,0.0,0.0,0.0,0.0,0.0,0.0,0.0,0.0,0.0,0.0,0.0,0.0,0.0,0.0,0.0,0.0,0.0,0.0,0.0,0.0,0.0,0.0,0.0,0.0,0.0,0.0,0.0,0.0,0.0,0.0,0.0,0.0,0.0,0.0,0.0,0.0,0.0,0.0,0.0,0.0,0.0,0.0,0.0,0.0,0.0,0.0,0.0,0.0,0.0,0.0,0.0,0.0,0.0,0.0,0.0,0.0,0.0,0.0,0.0,0.0,0.0,0.0,0.0,0.0,0.0,0.0,0.0,0.0,0.0,0.0,0.0,0.0,0.0,0.0,0.0,0.0,0.0,0.0,0.0,0.0,0.0,0.0,0.0,0.0,0.0,0.0,0.0,0.0,0.0,0.0,0.0,0.0,0.0,0.0,0.0,0.0,0.0,0.0,0.0,0.0,0.0,0.0,0.0,0.0,0.0,0.0,0.0,0.0,0.0,0.0,0.0,0.0,0.0,0.0,0.0,0.0,0.0,0.0,0.0,0.0,0.0,0.0,0.0,0.0,0.0,0.0,0.0,0.0,0.0,0.0,0.0,0.0,0.0,0.0,0.0,0.0,0.0,0.0,0.0,0.0,0.0,0.0,0.0,0.0,0.0,0.0,0.0,0.0,0.0,0.0,0.0,0.0,0.0,0.0,0.0,0.0,0.0,0.0,0.0,0.0,0.0,0.0,0.0,0.0,0.0,0.0,0.0,0.0,0.0,0.0,0.0,0.0,0.0,0.0,0.0,0.0,0.0,0.0,0.0,0.0,0.0,0.0,0.0,0.0,0.0,0.0,0.0,0.0,0.0,0.0,0.0,0.0,0.0,0.0,0.0,0.0,0.0,0.0,0.0,0.0,0.0,0.0,0.0,0.0,0.0,0.0,0.0,0.0,0.0,0.0,0.0,0.0,0.0,0.0,0.0,0.0,0.0,0.0,0.0,0.0,0.0,0.0,0.0,0.0,0.0,0.0,0.0,0.0,0.0,0.0,0.0,0.0,0.0,0.0,0.0,0.0,0.0,0.0,0.0,0.0,0.0,0.0,0.0,0.0,0.0,0.0,0.0,0.0,0.0,0.0,0.0,0.0,0.0,0.0,0.0,0.0,0.0,0.0,0.0,0.0,0.0,0.0,0.0,0.0,0.0,0.0,0.0,0.0,0.0,0.0,0.0,0.0,0.0,0.0,0.0,0.0,0.0,0.0,0.0,0.0,0.0,0.0,0.0,0.0,0.0,0.0,0.0,0.0,0.0,0.0,0.0,0.0,0.0,0.0,0.0,0.0,0.0,0.0,0.0,0.0,0.0,0.0,0.0,0.0,0.0,0.0,0.0,0.0,0.0,0.0,0.0,0.0,0.0,0.0,0.0,0.0,0.0,0.0,0.0,0.0,0.0,0.0,0.0,0.0,0.0,0.0,0.0,0.0,0.0,0.0,0.0,0.0,0.0,0.0,0.0,0.0,0.0,0.0,0.0,0.0,0.0,0.0,0.0,0.0,0.0,0.0,0.0,0.0,0.0,0.0,0.0,0.0,0.0,0.0,0.0,0.0,0.0,0.0,0.0,0.0,0.0,0.0,0.0,0.0,0.0,0.0,0.0,0.0,0.0,0.0,0.0,0.0,0.0,0.0,0.0,0.0,0.0,0.0,0.0,0.0,0.0,0.0,0.0,0.0,0.0,0.0,0.0,0.0,0.0,2.5143,0.0,0.0,0.0,0.0,0.0,0.0,0.0,0.0,0.0,0.0,0.0,0.0,0.0,0.0,0.0,0.0,0.0,0.0,0.0,0.0,0.0,0.0,0.0,0.0,0.0,0.0,0.0,0.0,0.0,0.0,0.0,0.0,0.0,0.0,0.0,0.0,0.0,0.0,0.0,2.0504,2.0131,1.9777,2.0274,2.0753,2.1269,0.0,0.0,0.0,0.0,0.0,0.0,0.0,0.0,0.0,0.0,0.0,0.0,0.0,0.0,0.0,0.0,0.0,0.0,0.0,0.0,0.0,0.0,0.0,0.0,0.0,0.0,0.0,0.0,0.0,0.0,0.0,0.0,0.0,0.0,0.0,0.0,0.0,0.0,0.0,0.0,0.0,0.0,0.0,0.0,0.0,0.0,0.0,0.0,0.0,0.0,0.0,0.0,0.0,0.0,0.0,0.0,0.0,0.0,0.0,0.0,0.0,0.0,0.0,0.0,0.0,0.0,0.0,0.0,0.0,0.0,0.0,2.5448,0.0,0.0,0.0,0.0,0.0,0.0,0.0,0.0,0.0,0.0,0.0,0.0,0.0,0.0,0.0,0.0,0.0,0.0,0.0,0.0,0.0,0.0,0.0,0.0,0.0,0.0,0.0,0.0,0.0,0.0,0.0,0.0,0.0,0.0,0.0,0.0,0.0,2.1382,2.0685,2.055,2.0951,2.1023,2.1504,2.2344,2.2773,0.0,0.0,0.0,0.0,0.0,0.0,0.0,0.0,0.0,0.0,0.0,0.0,0.0,0.0,0.0,0.0,0.0,0.0,0.0,0.0,0.0,0.0,0.0,0.0,0.0,0.0,0.0,0.0,0.0,0.0,0.0,0.0,0.0,0.0,0.0,0.0,0.0,0.0,0.0,0.0,0.0,0.0,0.0,0.0,0.0,0.0,0.0,0.0,0.0,0.0,0.0,0.0,0.0,0.0,0.0,0.0,0.0,0.0,0.0,0.0,0.0,0.0,0.0,2.7087,2.7426,2.8203,2.806,2.7572,2.6794,2.612,2.5659,2.539,0.0,0.0,0.0,0.0,0.0,0.0,0.0,0.0,0.0,0.0,0.0,0.0,0.0,0.0,0.0,0.0,0.0,0.0,0.0,0.0,0.0,0.0,0.0,0.0,0.0,0.0,0.0,0.0,0.0,0.0,0.0,0.0,0.0,0.0,2.0235,2.0369,2.0465,2.0465,2.1259,2.2752,2.2823,2.3281,2.4004,2.2676,2.2812,2.3984,0.0,0.0,0.0,0.0,0.0,0.0,0.0,0.0,0.0,0.0,0.0,0.0,0.0,0.0,0.0,0.0,0.0,0.0,0.0,0.0,0.0,0.0,0.0,0.0,0.0,0.0,0.0,0.0,0.0,0.0,0.0,0.0,0.0,0.0,0.0,0.0,0.0,0.0,0.0,0.0,0.0,2.3095,2.3224,0.0,0.0,0.0,0.0,0.0,0.0,0.0,0.0,0.0,0.0,0.0,0.0,0.0,2.6933,2.7595,2.7702,2.8165,2.8954,2.8191,2.8255,2.9017,2.8264,2.7852,2.7717,2.7621,0.0,2.5303,2.5303,0.0,0.0,0.0,0.0,0.0,0.0,0.0,0.0,0.0,0.0,0.0,0.0,0.0,0.0,0.0,0.0,0.0,0.0,0.0,0.0,0.0,0.0,0.0,0.0,0.0,0.0,0.0,0.0,0.0,0.0,0.0,0.0,2.0966,2.1012,2.1294,2.1815,2.2362,2.2787,2.3045,2.3074,2.3522,2.4247,2.3083,2.3008,2.3672,2.2949,0.0,0.0,0.0,0.0,0.0,0.0,0.0,0.0,0.0,0.0,0.0,0.0,0.0,0.0,0.0,0.0,0.0,0.0,0.0,0.0,0.0,0.0,0.0,0.0,0.0,0.0,0.0,0.0,0.0,0.0,0.0,0.0,0.0,0.0,0.0,0.0,0.0,0.0,0.0,2.4251,2.4213,2.3828,2.4551,2.5098,0.0,0.0,0.0,0.0,0.0,0.0,0.0,0.0,0.0,2.7495,2.7981,2.8386,2.8763,2.9217,2.986,3.0695,3.029,3.0494,3.127,3.0891,3.0198,2.9313,2.9313,2.8332,2.6717,2.6236,2.6544,2.7274,0.0,0.0,0.0,0.0,2.74,2.7332,0.0,0.0,0.0,0.0,0.0,0.0,0.0,0.0,0.0,0.0,0.0,0.0,0.0,0.0,0.0,1.909,0.0,0.0,0.0,0.0,0.0,0.0,0.0,2.0908,2.1512,2.1811,2.2419,2.3351,2.3993,2.4097,2.3682,2.3682,2.4018,2.4554,2.4007,2.3778,2.3789,2.3359,2.3263,2.3429,0.0,0.0,0.0,0.0,0.0,0.0,0.0,0.0,0.0,0.0,0.0,0.0,0.0,0.0,0.0,0.0,0.0,0.0,0.0,0.0,0.0,0.0,0.0,0.0,0.0,0.0,0.0,0.0,0.0,0.0,0.0,0.0,0.0,0.0,0.0,0.0,0.0,2.4758,2.4926,2.4101,2.5019,2.5605,0.0,0.0,0.0,0.0,0.0,0.0,2.7152,2.7386,2.7862,2.8659,2.9498,3.0113,3.0554,3.0925,3.1648,3.2743,3.2244,3.2449,3.3237,3.3006,3.2218,3.1044,3.1044,3.0333,2.9063,2.7544,2.7448,2.814,2.7486,2.7775,2.8544,2.8544,2.8544,2.8544,0.0,0.0,0.0,0.0,0.0,0.0,0.0,0.0,0.0,0.0,0.0,0.0,0.0,0.0,1.9109,1.9186,2.0772,2.1426,0.0,0.0,2.0454,2.0408,2.1131,2.1543,2.1594,2.2472,2.3398,2.4331,2.43,2.4735,2.5563,2.5563,2.5582,2.5621,2.5601,2.5543,2.5371,2.3789,2.3574,2.4331,2.4321,0.0,0.0,0.0,0.0,0.0,0.0,0.0,0.0,0.0,0.0,0.0,0.0,0.0,0.0,0.0,0.0,0.0,0.0,0.0,0.0,0.0,0.0,0.0,0.0,0.0,0.0,0.0,0.0,0.0,0.0,0.0,0.0,0.0,0.0,0.0,0.0,0.0,0.0,2.3357,2.4707,0.0,0.0,0.0,0.0,2.6792,2.6833,2.7163,2.7915,2.8672,2.9452,3.0263,3.1129,3.2352,3.3949,3.3179,3.3641,3.5282,3.3641,3.3295,3.4103,3.3276,3.2852,3.2776,3.2776,3.2737,3.2391,2.9159,2.8313,2.9044,2.8986,2.9506,3.0263,3.0263,3.0263,3.0263,0.0,0.0,0.0,0.0,0.0,0.0,0.0,0.0,0.0,0.0,0.0,0.0,0.0,1.9026,2.0328,2.0896,2.154,2.1775,2.1455,0.0,2.0684,2.1216,2.1478,2.2159,2.3315,2.4178,2.5029,2.5874,2.5862,2.6023,2.6341,2.6341,2.636,2.6404,2.6446,2.6771,2.7122,2.4889,2.4082,2.4336,2.4386,2.4715,0.0,0.0,0.0,0.0,0.0,0.0,0.0,0.0,0.0,0.0,0.0,0.0,0.0,0.0,0.0,0.0,0.0,0.0,0.0,0.0,0.0,0.0,0.0,0.0,0.0,0.0,0.0,0.0,0.0,0.0,0.0,0.0,0.0,0.0,0.0,0.0,0.0,2.7213,2.7828,0.0,2.7773,2.7478,2.7419,2.7716,2.8191,2.8797,2.9574,3.0407,3.1488,3.2795,3.3699,3.468,3.5795,3.6065,3.6219,3.6257,3.5641,3.5507,3.5795,3.5488,3.5064,3.4603,3.5122,3.4737,3.3641,3.2449,3.1795,3.1487,3.0987,3.1275,3.2006,3.2006,3.2352,3.2776,0.0,0.0,0.0,0.0,0.0,0.0,0.0,0.0,0.0,0.0,0.0,1.7215,1.8629,2.0117,2.123,2.1816,2.2156,2.2075,2.1473,0.0,2.1113,2.1642,2.2186,2.3318,2.5144,2.5657,2.6326,2.7204,2.7157,2.7157,2.7166,2.7202,2.7239,2.7289,2.7329,2.7682,2.8106,2.6434,2.5352,2.4785,2.4824,2.5166,2.5492,0.0,0.0,0.0,0.0,0.0,0.0,0.0,0.0,0.0,0.0,0.0,0.0,0.0,0.0,0.0,0.0,0.0,0.0,0.0,0.0,0.0,0.0,0.0,0.0,0.0,0.0,0.0,0.0,0.0,0.0,0.0,0.0,0.0,0.0,0.0,2.9305,2.983,3.025,3.0254,2.9668,2.9268,2.9027,2.9001,2.9711,3.0612,3.17,3.2583,3.3673,3.5007,3.618,3.7046,3.7565,3.8142,3.8142,3.7565,3.7276,3.7142,3.7142,3.7142,3.6853,3.6372,3.6911,3.6507,3.5468,3.5468,3.5141,3.4487,3.3083,3.2872,3.341,3.3968,3.4545,3.5007,0.0,0.0,0.0,0.0,0.0,0.0,0.0,0.0,0.0,0.0,1.6719,1.7686,2.0212,2.1321,2.1875,2.1836,2.2664,2.2447,2.0696,2.1339,2.1761,2.1699,2.3347,2.5093,2.6852,2.6782,2.7242,2.8272,2.8115,2.8096,2.8207,2.8244,2.8286,2.8325,2.838,2.8425,2.8443,2.843,2.7441,2.5898,2.5801,2.5762,2.5644,0.0,0.0,0.0,0.0,0.0,0.0,0.0,0.0,0.0,0.0,0.0,0.0,0.0,0.0,0.0,0.0,0.0,0.0,0.0,0.0,0.0,0.0,0.0,0.0,0.0,0.0,0.0,0.0,0.0,0.0,0.0,0.0,0.0,2.82,2.9818,3.0976,3.0879,3.1738,3.168,2.996,3.0438,3.0822,3.0721,3.1482,3.2628,3.418,3.5141,3.5988,3.6796,3.8469,3.9392,3.9411,3.9411,3.9392,3.9315,3.8469,3.8065,3.8046,3.8046,3.8046,3.8046,3.8065,3.8065,3.8046,3.8046,3.8046,3.7796,3.5295,3.4314,3.4507,3.6142,3.6738,3.6873,0.0,0.0,0.0,0.0,0.0,0.0,0.0,0.0,0.0,0.0,1.8282,1.9703,2.0423,2.2326,2.3314,2.2792,2.2976,2.293,2.2412,0.0,2.2286,2.3493,2.5186,2.6329,2.6817,2.7352,2.8349,2.9809,2.9129,2.9475,3.077,3.0163,3.023,3.0885,3.0897,3.1293,3.1873,3.1248,3.0762,3.0254,2.8359,2.7207,2.6621,0.0,0.0,0.0,0.0,0.0,0.0,0.0,0.0,0.0,0.0,0.0,0.0,0.0,0.0,0.0,0.0,0.0,0.0,0.0,0.0,0.0,0.0,0.0,0.0,0.0,0.0,0.0,0.0,0.0,0.0,0.0,0.0,2.9998,2.9985,3.1978,3.3693,3.4392,3.5234,3.533,3.4265,3.4265,3.403,3.3333,3.4576,3.5551,3.5988,3.743,3.8623,3.9431,4.0527,4.1412,4.2047,4.2066,4.1412,4.0162,3.9931,3.9508,3.8931,3.8931,3.8931,3.8969,3.9546,3.9469,3.8931,3.8931,3.8931,3.8815,3.7469,3.6949,3.7007,3.7469,3.7642,3.7777,0.0,0.0,0.0,0.0,0.0,0.0,0.0,0.0,0.0,0.0,1.909,2.0738,2.1426,2.2815,2.3531,2.3095,2.3118,2.2952,2.2539,2.2656,2.3528,2.5274,2.6281,2.7125,2.783,2.8637,2.9687,3.0994,3.0794,3.1237,3.2244,3.1757,3.2016,3.2909,3.2987,3.3541,3.4319,3.3488,3.3184,3.3086,3.1191,2.9707,2.8554,2.778,2.7154,2.6631,2.6237,2.5837,2.5505,2.5505,0.0,0.0,0.0,0.0,0.0,0.0,0.0,0.0,0.0,0.0,0.0,0.0,0.0,0.0,0.0,0.0,0.0,0.0,0.0,0.0,0.0,0.0,0.0,0.0,3.1135,3.2584,3.3652,3.4453,3.5412,3.6664,3.7288,3.7283,3.6441,3.6566,3.6327,3.5422,3.6858,3.795,3.8277,3.9604,4.0719,4.1546,4.2412,4.2931,4.3104,4.3431,4.2931,4.1585,4.1585,4.1335,4.0893,4.0893,4.0893,0.0,4.0989,4.0777,4.0354,4.0354,4.0354,0.0,0.0,0.0,0.0,0.0,3.9354,3.9161,0.0,0.0,0.0,0.0,0.0,0.0,0.0,0.0,0.0,0.0,0.0,2.1217,2.2592,2.2976,2.3101,2.3016,2.3101,2.2833,2.2036,2.3562,2.5195,2.6737,2.7075,2.792,2.9413,3.0314,3.1186,3.2071,3.2737,3.3141,3.3333,3.3384,3.3884,3.4735,3.4922,3.5443,3.6112,3.5422,3.5134,3.5059,3.4082,3.2637,3.0857,2.9156,2.8424,2.8203,2.7277,2.6371,2.564,2.5755,0.0,0.0,0.0,0.0,0.0,0.0,0.0,0.0,0.0,0.0,0.0,0.0,0.0,0.0,0.0,0.0,0.0,0.0,0.0,0.0,0.0,0.0,0.0,0.0,3.3647,3.5575,3.8024,3.7237,3.6925,3.8358,3.8717,3.8499,3.7655,3.8234,3.8304,3.7425,3.8839,4.0027,4.0758,0.0,0.0,0.0,0.0,4.4105,4.3393,4.4085,4.4047,4.3239,4.3239,4.3181,4.3104,4.3104,4.3104,4.3066,4.2277,4.195,4.195,4.195,4.195,4.1797,4.0315,3.9662,3.9758,4.1354,4.1393,4.0758,0.0,0.0,0.0,0.0,0.0,0.0,0.0,0.0,0.0,1.8838,2.102,2.2326,2.1891,2.3081,2.365,2.3042,2.2976,2.3176,2.3683,2.5337,2.6463,2.6858,2.8792,3.0025,3.0343,3.1725,3.2852,3.3737,3.3872,3.4641,3.5968,3.5974,3.6454,3.7281,3.743,3.7634,3.7836,3.7734,3.7741,3.7715,3.6133,3.4062,3.1836,3.0771,2.9868,2.9052,2.817,2.7227,2.6505,2.7266,2.6611,2.5621,2.6404,2.6197,0.0,0.0,0.0,0.0,0.0,0.0,0.0,0.0,0.0,0.0,0.0,0.0,0.0,0.0,0.0,0.0,0.0,0.0,0.0,3.3547,3.5829,3.7986,3.9781,4.0377,4.0777,4.1193,4.1832,4.1938,4.1099,4.1751,4.1819,4.0896,4.1777,4.2431,4.2585,4.3374,4.3893,4.4066,4.4893,4.5259,4.5105,4.5259,4.4913,4.4066,0.0,0.0,4.3104,4.3104,4.3104,4.3085,4.2912,4.2854,4.2854,4.2854,4.2854,4.2816,4.2489,4.1931,4.145,4.247,4.2297,4.1681,0.0,0.0,0.0,0.0,0.0,0.0,0.0,0.0,0.0,0.0,2.1633,2.2765,2.2295,2.3024,2.3251,2.2477,2.2773,2.3534,2.4832,2.6114,2.7252,2.817,2.9765,3.102,3.1826,3.2998,3.4013,3.4853,3.5257,3.6103,3.7353,3.7353,3.7815,3.8661,3.9215,3.9727,4.0186,3.9762,3.9675,3.9653,3.7864,3.638,3.5018,3.2868,3.1456,3.054,3.0071,2.9025,2.7928,2.842,2.7785,2.6765,2.6862,2.6614,2.6217,0.0,0.0,0.0,0.0,0.0,0.0,0.0,0.0,0.0,0.0,0.0,0.0,0.0,0.0,2.9692,0.0,0.0,3.4429,3.6507,3.8216,4.0031,4.2104,4.2777,4.2931,4.2582,4.2909,4.2986,4.2585,4.2912,4.297,4.2489,4.3239,4.3701,4.3701,4.4489,4.4951,4.4951,4.5355,4.5586,4.5586,4.5586,4.5374,4.4951,4.4951,4.4739,4.4355,4.4355,4.4355,4.4335,4.3893,4.3701,4.3701,4.3701,4.3701,4.3739,4.4182,4.3566,4.2547,4.3393,4.3162,4.2566,0.0,0.0,0.0,0.0,0.0,0.0,0.0,0.0,0.0,0.0,2.1972,2.291,2.291,2.3116,2.2998,0.0,2.3074,2.4236,2.5746,2.6834,2.8106,2.9707,3.0839,3.2116,3.3563,3.437,3.5172,3.5988,3.6796,3.7642,3.8488,3.8661,3.92,4.0065,4.085,4.1602,4.2277,4.1594,4.1369,4.1324,3.9688,3.8937,3.8441,3.5329,3.3478,3.2474,3.1924,3.0609,2.9159,2.939,2.8709,2.7739,2.7503,2.7179,2.6786,2.6142,2.582,0.0,0.0,0.0,0.0,0.0,0.0,0.0,0.0,2.835,2.8588,2.9863,3.0939,3.2042,3.3336,3.5072,3.703,3.9253,4.0531,4.195,4.4008,4.4451,4.4316,4.3662,4.3585,4.3585,4.3585,4.3585,4.3585,4.3585,4.4182,4.4547,4.4547,4.522,4.5586,4.5586,4.5759,4.5759,4.5586,4.5759,4.5759,4.5586,4.5586,4.5586,4.5586,4.5586,4.5586,4.5547,4.4855,4.4547,4.4547,4.4547,4.4547,4.4624,4.5316,4.4759,4.3662,4.4316,4.4047,4.3451,0.0,0.0,0.0,0.0,0.0,0.0,0.0,0.0,0.0,0.0,0.0,0.0,0.0,0.0,0.0,2.4029,2.4826,2.5726,2.6689,2.83,2.9673,3.0703,3.2874,3.4497,3.5393,3.6075,3.6853,3.7719,3.8584,3.9411,4.0239,4.1008,4.1835,4.2681,4.2852,4.298,4.3069,4.31,4.3121,4.3063,4.2079,4.117,4.0217,3.8296,3.6554,3.4878,3.2596,3.0662,2.9317,3.0148,2.8931,2.7294,2.8814,2.8238,2.6969,2.6875,2.6309,2.5703,2.5703,2.6348,2.7559,2.9883,2.9961,3.0215,0.0,3.3199,3.2628,3.2754,3.399,3.5091,3.521,3.7224,3.9219,4.0219,4.2335,4.397,4.4259,4.497,4.5413,4.5316,4.5316,4.5316,4.5316,4.5316,4.5316,4.5316,4.5393,4.5451,4.5451,4.5547,4.5586,4.5586,4.6355,4.6374,4.5605,4.6374,4.6374,4.5586,4.5586,4.5586,4.5586,4.5586,4.5586,4.5586,4.549,4.5451,4.5451,4.5451,4.5451,4.5451,4.5547,4.549,4.5316,4.5413,4.4913,4.4297,0.0,0.0,0.0,0.0,0.0,0.0,0.0,0.0,0.0,0.0,0.0,0.0,0.0,0.0,2.3285,2.4227,2.4672,2.5471,2.6815,2.8566,3.0156,3.1484,3.3432,3.5097,3.6363,3.6608,3.7373,3.8757,3.9585,4.0431,4.1277,4.2143,4.2758,4.3124,4.3621,4.3891,4.3948,4.3931,4.3974,4.3929,4.2508,4.1684,4.1104,3.8885,3.7002,3.5262,3.3185,3.1706,0.0,3.0043,2.8867,2.7711,2.8008,2.7598,2.6894,2.6387,2.6348,2.668,2.7695,2.8613,2.9648,3.1269,3.209,3.2871,3.4316,3.4276,3.4332,3.5759,3.6988,3.8082,3.8992,4.045,4.1758,0.0,4.3605,4.447,4.4989,4.5355,4.5586,4.5586,4.5586,4.5797,4.6317,4.6778,4.7048,4.7048,4.7048,4.7048,4.7048,4.6605,4.6355,4.6355,4.622,4.6201,4.6355,4.6201,4.622,4.6355,4.5836,4.5586,4.5586,4.5586,4.5586,4.5586,4.5586,4.5586,4.5586,4.5586,4.5586,4.5586,4.5586,4.5586,4.5586,4.5586,4.5355,4.5105,0.0,0.0,0.0,0.0,0.0,0.0,0.0,0.0,0.0,0.0,0.0,0.0,0.0,0.0,2.3066,2.4238,2.459,2.5365,2.6805,2.8574,3.0294,3.19,3.3558,3.5329,3.7185,3.7108,3.7892,3.9623,4.045,4.1296,4.2181,4.3028,4.3566,4.3816,4.4393,4.4718,4.4795,4.4701,4.4718,4.466,4.3104,4.222,4.1511,3.8969,3.6799,3.4927,3.3215,3.1814,3.0599,2.9398,2.8494,2.7811,2.7468,2.7187,2.6914,2.6523,2.6855,2.7695,2.9199,3.041,3.1523,3.2598,3.4277,3.5701,3.5908,3.622,3.6987,3.8786,3.9816,4.0787,4.1934,4.2854,4.3624,4.4201,4.4489,4.4874,4.5509,4.5586,4.5586,4.5586,4.5797,4.6297,4.7163,4.7567,4.7855,4.8086,4.8105,4.8105,4.8105,4.7548,4.724,4.724,4.6855,4.6836,4.724,4.6605,4.649,4.6894,4.6009,4.5586,4.5586,4.5586,4.5586,4.5586,4.5586,4.5586,4.5586,4.5586,4.5586,4.5586,4.5586,4.5586,4.5586,4.5586,4.5586,4.5586,0.0,0.0,0.0,0.0,0.0,0.0,0.0,0.0,0.0,0.0,0.0,0.0,0.0,0.0,2.4336,2.4394,2.5176,2.6008,2.685,2.8538,3.0211,3.1824,3.3448,3.5501,3.8012,3.8007,3.8777,4.045,4.1335,4.222,4.3085,4.3893,4.4701,4.5528,4.5547,4.5547,4.5566,4.5547,4.5547,4.549,4.4586,4.3258,4.1511,3.8958,3.6415,3.4016,3.2407,3.0273,2.8214,2.8234,2.7699,2.7187,2.8008,2.7676,2.7168,2.7988,2.8242,2.8457,2.9355,3.0859,3.2539,3.4121,3.6426,3.8473,3.9201,4.0545,4.169,4.1767,4.2417,4.3008,4.3047,4.372,4.4259,4.4297,4.5009,4.5566,4.5586,4.5586,4.5586,4.5586,4.6355,4.7182,0.0,4.7394,4.7259,4.8048,4.8105,4.8105,4.8105,4.8086,4.8067,4.8067,4.8856,4.8894,4.8067,4.8048,4.7663,4.6894,4.6009,4.5586,4.5586,4.5586,4.5586,4.5586,4.5586,4.5586,4.5586,4.5586,4.5586,4.5586,4.5586,4.5586,4.5586,4.5586,4.5586,4.5586,0.0,0.0,0.0,0.0,0.0,0.0,0.0,0.0,0.0,0.0,0.0,0.0,0.0,0.0,0.0,0.0,2.5481,2.5987,2.6844,2.8499,2.9888,3.0926,3.3114,3.4949,3.6339,3.745,3.8565,3.97,4.1104,4.2258,4.3124,4.3912,4.4759,4.5586,4.5586,4.5586,4.5547,4.497,4.4739,4.4547,4.2566,4.1431,4.0546,3.6865,3.428,3.2313,0.0,2.8811,2.7928,2.6833,2.6327,2.6289,2.7168,2.7246,2.7285,2.873,2.916,2.9609,3.1582,3.2949,3.4336,3.6562,3.8539,4.0127,4.0962,4.1944,4.284,4.3378,4.2819,4.2412,4.2989,4.3316,4.3508,4.3508,4.4682,4.5586,4.5586,4.5586,4.5586,4.5586,4.5855,0.0,0.0,0.0,0.0,4.976,4.9817,4.9817,4.9817,4.9279,4.8952,4.8952,4.9067,4.9067,4.8952,4.8779,4.8644,4.8548,4.7124,4.6163,4.5586,4.5586,4.5586,4.5586,4.5586,4.5586,4.5586,4.5586,4.5586,4.5586,4.5586,4.5586,4.5586,4.5586,4.5586,4.5586,0.0,0.0,0.0,0.0,0.0,0.0,0.0,0.0,0.0,0.0,0.0,0.0,0.0,0.0,0.0,0.0,0.0,2.5823,2.6333,2.7661,2.8777,2.9544,3.141,3.2968,3.4122,3.5199,3.6315,3.7469,3.9161,4.0431,4.1296,4.2412,4.3239,4.3778,4.4105,4.4259,4.4278,4.3684,4.3278,4.2813,4.0592,3.9342,3.8381,3.509,3.2814,0.0,2.9261,2.841,2.7872,2.6209,2.5879,2.6269,2.6816,2.7422,2.8203,2.9648,3.0469,3.1426,3.3672,3.5098,3.6442,3.8678,4.0421,4.1813,4.2635,4.3436,4.4049,4.4261,4.3203,4.2335,4.2585,4.2643,4.2643,4.2643,4.3547,4.4451,4.5047,4.4893,4.5028,4.5951,4.6067,4.6721,0.0,0.0,0.0,5.0625,5.0971,5.0991,5.0721,5.0433,5.0164,4.9875,4.9702,4.9683,4.9856,4.9375,4.9067,4.8913,4.7836,4.6874,4.6067,4.6067,4.5893,4.5586,4.5586,4.5586,4.5586,4.5586,4.5586,4.5586,4.5586,4.5586,4.5586,4.5586,4.5586,4.5586,0.0,0.0,0.0,0.0,0.0,0.0,0.0,0.0,0.0,0.0,0.0,0.0,0.0,0.0,0.0,0.0,0.0,0.0,2.5409,2.6206,2.7033,2.7794,2.864,2.9871,3.1525,3.166,3.2487,3.4064,3.5757,3.7026,3.7911,3.9527,4.0296,4.0335,4.1181,4.1623,4.172,4.1588,4.1101,4.0299,3.8681,3.6999,3.5311,3.367,3.2034,3.0502,2.9717,2.8908,2.796,2.6376,2.6445,2.7207,2.7207,2.8398,2.9961,3.082,3.2207,3.3828,3.5604,3.7225,3.8814,4.0429,4.2042,4.3457,4.4147,4.4934,4.5278,4.4412,4.3528,4.2643,4.1816,4.172,4.1758,4.1797,4.1912,4.2566,4.4201,4.3778,4.422,0.0,0.0,0.0,0.0,0.0,0.0,5.076,0.0,5.1548,5.0856,5.1471,5.151,5.0779,5.0721,5.0702,5.0702,4.9875,4.9029,4.8163,4.8163,4.7721,4.6913,4.6913,4.6413,4.5586,4.5586,4.5586,4.5586,4.5586,4.5586,4.5586,4.5586,4.5586,4.5586,4.5586,4.5586,4.5586,0.0,0.0,0.0,0.0,0.0,0.0,0.0,0.0,0.0,0.0,0.0,0.0,0.0,0.0,0.0,0.0,0.0,0.0,2.5409,2.6178,2.6717,2.6928,2.8313,2.9313,2.9756,3.1044,3.191,3.2333,3.4026,3.5276,3.6161,3.7199,3.768,3.768,3.7947,3.8101,3.8055,3.6837,3.6579,3.6831,3.5116,3.4154,3.3568,3.1885,3.1016,3.0497,2.904,2.843,2.8206,2.7778,2.8642,2.9902,2.9844,3.1035,3.2598,3.3418,3.4414,3.5734,3.7977,3.9317,4.0493,4.2163,4.3297,4.407,4.4263,4.4455,4.4395,4.3583,4.1739,4.0204,3.9988,4.0431,4.1046,4.17,4.3393,0.0,4.6086,4.6067,0.0,4.8548,0.0,4.9413,5.1106,5.126,0.0,0.0,5.1606,5.1452,5.251,5.1568,5.1183,5.1587,5.101,5.0702,5.0702,5.0471,4.9933,4.9067,4.9067,4.8317,4.6913,4.6913,4.6413,4.5586,4.5586,4.5586,4.5586,4.5586,4.5586,4.5586,4.5586,4.5586,4.5586,4.5586,4.5586,4.5586,0.0,0.0,0.0,0.0,0.0,0.0,0.0,0.0,0.0,0.0,0.0,0.0,0.0,0.0,0.0,0.0,0.0,0.0,0.0,2.5793,2.6024,2.6024,2.6928,2.7428,2.7428,2.8775,2.9467,2.9467,3.1141,3.2199,3.2718,3.3545,3.3955,3.3999,3.4419,3.4654,3.463,3.3712,3.3373,0.0,0.0,3.1829,3.1416,3.0921,3.0762,3.0662,2.9666,2.955,2.9873,2.9852,3.0259,3.0974,3.2104,3.3098,3.4075,3.5331,3.6258,3.7339,3.9455,4.0588,4.1553,4.3121,4.3816,4.3993,4.3496,4.338,4.3011,4.17,4.0296,3.9185,3.8796,3.97,4.0662,4.1143,4.3066,4.4932,4.6163,4.6663,4.7663,4.9721,5.0279,0.0,5.2337,5.2472,5.2837,0.0,5.2895,5.2606,5.3164,5.2664,5.1949,5.1067,5.116,5.1048,5.0702,5.0702,5.0452,4.9971,4.9971,4.9279,4.799,4.7605,4.6971,4.6144,0.0,4.5586,4.5586,4.5586,4.5586,4.5586,4.5586,4.5586,4.5586,4.5586,4.5419,4.5161,0.0,0.0,0.0,0.0,0.0,0.0,0.0,0.0,0.0,0.0,0.0,0.0,0.0,0.0,0.0,0.0,0.0,0.0,0.0,0.0,0.0,2.5303,2.5303,2.5303,2.5303,2.6043,2.6428,2.6428,2.8005,2.8775,2.8794,2.966,3.004,3.0016,3.077,3.1193,3.1296,3.113,3.0711,3.02,3.037,2.9952,2.9367,0.0,0.0,3.0864,3.0717,3.1139,3.1748,3.1904,3.1661,3.1688,3.4008,3.4818,3.5242,3.6866,3.7789,3.8654,4.0412,4.1421,4.2291,4.363,4.4032,4.3782,4.2462,4.194,4.128,3.9646,3.9219,3.8931,3.8296,3.945,4.0566,4.0796,4.22,4.3874,4.5682,4.6682,4.8182,5.0721,5.176,5.2587,5.3453,5.353,5.3857,5.4607,5.4664,5.4337,5.3568,5.4049,5.3034,5.0253,5.119,5.1414,5.0702,5.0702,5.0702,5.0702,5.0702,5.024,4.9375,4.8509,4.7663,4.6855,4.597,0.0,4.5586,4.5586,4.5568,4.5513,4.5513,4.555,4.5586,4.5586,4.5099,4.4474,0.0,0.0,0.0,0.0,0.0,0.0,0.0,0.0,0.0,0.0,0.0,0.0,0.0,0.0,0.0,0.0,0.0,0.0,0.0,0.0,0.0,0.0,2.5303,2.5303,2.5303,2.5437,2.5534,2.5534,2.6544,2.7024,2.7044,2.7928,2.7967,2.7294,2.75,2.7595,2.7569,2.691,2.6943,2.7535,2.8274,2.849,2.8584,0.0,0.0,0.0,3.0641,3.0675,3.0948,3.2333,3.3684,3.4889,3.5295,3.6445,3.7769,3.847,3.8907,3.9588,4.1443,4.2396,4.3094,4.4013,4.4771,4.4707,4.2403,4.0569,3.9374,3.9307,3.8715,3.8407,3.8969,3.9854,4.0969,4.2412,4.3451,4.4932,4.7336,4.8413,4.9913,5.2452,5.353,5.4376,5.5184,5.5261,0.0,0.0,5.5491,5.5434,5.5261,5.4107,5.2834,5.1581,5.1124,5.0837,5.0702,5.0702,5.0702,5.0702,5.0702,5.024,4.9375,4.8509,4.7663,4.6855,4.597,0.0,4.5586,4.5586,4.5381,4.5014,4.5014,4.5244,4.5586,4.5586,4.4787,4.3712,0.0,0.0,0.0,0.0,0.0,0.0,0.0,0.0,0.0,0.0,2.2667,2.328,0.0,0.0,0.0,0.0,0.0,0.0,0.0,0.0,0.0,0.0,0.0,0.0,2.5303,2.5726,2.5745,2.5303,0.0,2.637,2.5928,2.6351,2.6351,2.5986,2.6011,2.6049,2.6052,2.5626,2.5686,2.6198,2.7509,2.8067,0.0,0.0,0.0,0.0,0.0,3.0794,3.1256,3.2051,3.3788,3.5691,3.6128,3.7135,3.8264,3.8869,3.98,4.087,4.1921,4.2951,4.3784,4.4032,4.3503,4.2318,3.9964,3.8193,3.7137,3.7291,3.7676,3.8123,3.8546,4.0027,4.145,4.2297,4.3489,4.5047,4.7182,4.8971,5.0856,5.2953,5.4337,5.528,5.5665,5.5703,5.5703,5.5703,5.5703,5.5703,5.5703,5.4342,5.3158,5.2296,5.1271,5.055,5.0068,5.0068,5.0068,5.0068,5.0068,4.9858,4.942,4.8562,4.7724,4.6923,4.6085,0.0,4.5096,4.5096,4.4966,4.4738,4.4738,4.4877,4.5033,4.4644,4.4076,4.3497,0.0,0.0,0.0,0.0,0.0,0.0,0.0,2.1139,2.2034,2.2775,2.3745,2.4389,2.4438,2.5005,0.0,0.0,0.0,0.0,0.0,0.0,0.0,0.0,0.0,0.0,0.0,0.0,0.0,2.5303,2.5986,0.0,0.0,0.0,0.0,0.0,2.539,2.5409,2.5447,2.5409,2.539,0.0,0.0,2.799,0.0,0.0,0.0,0.0,0.0,3.0891,3.1448,3.1641,3.3045,3.4839,3.5762,3.6935,3.818,3.9123,4.0408,4.1632,4.2075,4.3236,4.4166,4.3592,4.1966,3.9937,3.7847,3.6396,3.5547,3.5724,3.6949,3.8065,3.8238,4.0065,4.1585,4.1777,4.3066,4.4701,4.6644,4.9086,5.1318,5.301,5.4684,5.5703,5.5703,5.5703,0.0,5.5703,5.5621,0.0,5.5577,5.4331,5.3353,5.276,5.1282,5.0277,4.9768,4.9598,4.9504,4.9504,4.9504,4.9504,4.9485,4.8588,4.7768,4.6957,4.6137,0.0,0.0,4.458,4.4553,4.4527,4.4527,4.4447,4.428,4.3712,4.3497,4.3497,0.0,0.0,0.0,0.0,0.0,0.0,0.0,2.1658,2.2716,2.2793,2.4197,2.5187,2.5207,2.5264,0.0,0.0,0.0,0.0,0.0,0.0,0.0,0.0,0.0,0.0,0.0,0.0,0.0,2.5303,2.538,0.0,0.0,0.0,0.0,0.0,0.0,2.5303,2.5322,2.5303,0.0,0.0,0.0,0.0,0.0,0.0,0.0,0.0,0.0,3.0456,3.0641,3.1429,3.1859,3.2193,3.3019,3.5441,3.8315,3.9894,4.0496,4.085,4.1902,4.3236,4.3918,4.2368,4.1242,4.0063,3.8315,3.6661,3.5715,3.644,3.7339,3.8238,3.9027,3.9969,4.0873,4.1681,4.2585,4.4066,4.6547,4.9086,5.1318,5.301,5.4684,5.5703,5.5703,5.5703,5.5703,5.5703,0.0,0.0,5.516,5.3614,5.2859,5.3138,5.0843,4.9937,5.0568,4.9881,4.9504,4.9504,4.9504,4.9504,4.9485,4.8588,4.7768,4.6957,4.6137,0.0,0.0,4.458,4.4474,4.4233,4.4233,4.3974,4.3597,4.3513,4.3497,4.3497,0.0,0.0,0.0,0.0,0.0,0.0,0.0,2.1273,2.2216,2.2791,2.386,2.4774,2.5313,2.5322,2.5303,0.0,0.0,0.0,0.0,0.0,0.0,0.0,0.0,0.0,0.0,0.0,2.5553,2.6082,2.6082,0.0,0.0,0.0,0.0,0.0,0.0,2.5303,2.5303,2.5303,0.0,0.0,0.0,0.0,0.0,0.0,0.0,0.0,0.0,0.0,3.0436,3.0814,3.1275,3.1672,3.1455,3.3025,3.5407,3.7819,3.9461,4.0889,4.2742,4.4129,4.4807,4.3609,4.1524,3.9615,3.8917,3.6675,3.4955,3.5801,3.6628,3.7488,3.8354,3.92,4.0219,4.1585,4.2085,4.322,4.5759,4.7432,4.9413,5.2106,5.3472,5.4587,0.0,0.0,5.5599,5.5375,0.0,0.0,5.4369,5.3967,5.3471,5.2847,5.1892,5.0934,5.006,4.9726,4.9317,4.8797,4.8797,4.8797,4.8779,4.841,4.7816,4.6999,4.6201,0.0,0.0,4.4209,4.4004,4.4058,4.3868,4.3679,4.3497,4.3497,4.3497,4.3497,0.0,0.0,0.0,0.0,0.0,0.0,2.0312,2.0985,2.1831,2.2752,2.361,2.4456,2.5274,2.5341,2.5322,2.5303,0.0,0.0,0.0,0.0,0.0,0.0,0.0,0.0,0.0,0.0,0.0,2.6601,2.6611,2.7054,0.0,0.0,2.6842,2.6574,0.0,0.0,0.0,0.0,0.0,0.0,0.0,0.0,0.0,0.0,0.0,0.0,0.0,0.0,0.0,0.0,0.0,3.1588,3.0979,3.1763,3.3307,3.5322,3.7752,4.0165,4.2024,4.3863,4.4958,4.384,4.1408,3.9215,3.897,3.6458,3.4449,3.5334,3.6142,3.6969,3.7834,3.87,3.9854,4.1527,4.2027,4.2989,4.5278,4.6567,4.824,5.0856,0.0,5.3126,0.0,5.5311,5.5399,5.5115,0.0,0.0,5.3832,5.3996,5.3699,5.2828,5.2085,5.1138,4.9958,4.9701,4.915,4.8306,4.8306,4.8306,4.8306,4.8306,4.7829,4.6948,4.6214,0.0,0.0,4.3885,4.3646,4.3836,4.3597,4.3497,4.3497,4.3497,4.3497,4.3497,0.0,0.0,0.0,0.0,0.0,0.0,0.0,2.0985,2.1812,2.2677,2.3629,2.4476,2.5207,2.537,2.537,2.5303,0.0,0.0,0.0,0.0,0.0,0.0,0.0,0.0,0.0,0.0,0.0,0.0,2.6602,2.7055,2.7892,2.7901,2.742,2.6593,0.0,0.0,0.0,0.0,0.0,0.0,0.0,0.0,0.0,0.0,0.0,0.0,0.0,0.0,0.0,0.0,0.0,0.0,0.0,3.2247,3.2914,3.2933,3.5353,3.8223,3.9099,4.1775,4.3899,4.2234,4.0553,3.9066,3.8209,3.6048,3.4449,3.5334,3.6142,3.6969,3.7834,3.87,3.9854,4.1527,4.2527,4.3662,4.5355,4.7048,4.8413,0.0,5.0202,5.1375,5.3068,5.4374,5.5088,0.0,0.0,0.0,5.3814,5.3422,5.3206,5.3188,5.0857,4.9976,5.0784,4.9994,4.915,4.8306,4.8306,4.8306,4.8306,4.8306,4.7719,0.0,0.0,0.0,0.0,4.3712,4.3479,4.3479,4.3479,4.3497,4.3497,4.3497,4.3497,4.3497,0.0,0.0,0.0,0.0,0.0,0.0,0.0,2.135,2.2032,2.3559,2.4032,2.4495,2.5274,2.539,2.537,2.5303,0.0,0.0,0.0,0.0,0.0,0.0,0.0,0.0,0.0,0.0,0.0,0.0,0.0,0.0,2.8709,2.8165,2.775,2.7456,2.6872,2.6121,0.0,0.0,0.0,0.0,0.0,0.0,0.0,0.0,0.0,0.0,0.0,0.0,0.0,0.0,0.0,0.0,0.0,0.0,0.0,3.2737,3.4897,3.755,3.9576,4.088,4.172,4.1777,3.9634,3.7602,3.793,3.6034,3.4449,3.5334,3.6142,3.6969,3.7834,3.87,4.0027,4.2316,4.2912,4.3682,4.5355,4.7048,4.8644,5.0106,5.2549,5.4318,0.0,0.0,5.4979,0.0,0.0,0.0,5.3422,5.2739,5.2637,5.3188,5.2472,5.1646,5.082,5.0545,4.9701,4.8306,4.8306,4.8306,4.8306,4.8306,4.8122,0.0,0.0,0.0,0.0,4.3876,4.3664,4.3836,4.3597,4.3497,4.3497,4.3497,4.3497,4.3497,0.0,0.0,0.0,0.0,0.0,0.0,0.0,2.1293,2.2013,2.3482,2.3993,2.4495,2.5274,2.539,2.537,2.5303,0.0,0.0,0.0,0.0,0.0,0.0,0.0,0.0,0.0,0.0,0.0,0.0,0.0,0.0,0.0,0.0,0.0,2.7879,2.7334,2.6622,0.0,0.0,0.0,0.0,0.0,0.0,3.0398,0.0,0.0,0.0,0.0,0.0,0.0,0.0,0.0,0.0,0.0,0.0,0.0,0.0,3.4999,3.6656,3.8541,3.9557,4.0169,4.0723,3.8753,3.6845,3.7401,3.579,3.4449,3.5334,3.5911,3.6622,3.7777,3.8585,3.9953,4.2665,4.3249,4.3999,4.5818,4.7259,0.0,5.0491,0.0,0.0,0.0,5.4726,0.0,0.0,0.0,0.0,5.3206,5.2729,5.2674,5.3188,5.2913,5.227,5.1261,5.1242,5.0472,4.8948,4.8948,4.8728,4.8306,4.8306,4.8306,0.0,0.0,0.0,0.0,4.3773,4.3693,4.3955,4.3612,4.3497,4.3497,4.3497,4.3497,4.3497,0.0,0.0,0.0,0.0,0.0,0.0,0.0,0.0,0.0,0.0,2.3706,2.4553,2.5226,2.537,2.537,0.0,0.0,0.0,0.0,0.0,0.0,0.0,0.0,0.0,0.0,0.0,0.0,2.6719,2.6711,2.7133,2.7922,0.0,0.0,0.0,2.7815,0.0,0.0,0.0,0.0,0.0,0.0,0.0,0.0,0.0,0.0,0.0,0.0,0.0,0.0,0.0,0.0,0.0,0.0,0.0,0.0,0.0,0.0,0.0,0.0,3.7891,3.9166,3.9204,3.7938,3.671,3.6689,3.5443,0.0,3.5334,3.5603,3.6161,3.7719,3.8433,3.9738,4.2629,4.3446,4.4437,0.0,4.7663,0.0,0.0,5.2336,0.0,5.2647,5.3705,0.0,0.0,0.0,0.0,5.3206,5.3206,5.3206,5.3206,5.2472,5.205,5.1995,5.194,5.1261,4.9976,4.9903,4.9315,4.8306,4.8306,4.8269,0.0,0.0,0.0,0.0,4.3552,4.3734,4.3924,4.3612,4.3497,4.3497,4.3497,4.3497,4.3497,0.0,0.0,0.0,0.0,0.0,0.0,0.0,0.0,0.0,0.0,0.0,2.5159,2.5284,2.537,0.0,0.0,0.0,0.0,0.0,0.0,0.0,0.0,0.0,0.0,0.0,0.0,0.0,2.5874,2.5883,2.626,2.7009,2.7006,0.0,0.0,0.0,0.0,0.0,0.0,0.0,0.0,0.0,0.0,0.0,0.0,0.0,0.0,3.0398,3.0398,0.0,0.0,0.0,0.0,0.0,0.0,0.0,0.0,3.4979,3.5666,3.6493,0.0,3.7786,3.8204,3.7497,3.6694,0.0,3.593,3.5257,3.5468,3.6526,3.7526,3.793,3.8967,4.0501,4.2744,4.2967,4.3598,4.5626,4.8317,0.0,5.2414,5.3832,5.4098,5.2717,5.344,0.0,0.0,0.0,5.3206,5.3206,5.3206,5.3206,5.3206,5.3023,5.2619,5.1995,5.1389,5.06,4.9682,4.9022,4.8563,4.8306,4.8306,4.7847,0.0,0.0,0.0,4.3534,4.4158,4.4099,4.3631,4.3548,4.3497,4.3497,4.3497,4.3497,4.3497,0.0,0.0,0.0,0.0,0.0,0.0,0.0,0.0,0.0,0.0,0.0,0.0,0.0,0.0,0.0,0.0,0.0,0.0,0.0,0.0,0.0,0.0,0.0,0.0,0.0,0.0,0.0,0.0,0.0,2.5811,0.0,0.0,0.0,0.0,0.0,0.0,0.0,0.0,0.0,0.0,2.9512,0.0,0.0,0.0,0.0,0.0,3.0398,3.0398,0.0,3.0398,3.0398,3.0544,0.0,0.0,0.0,0.0,3.4826,3.5589,3.6017,3.6281,3.6584,3.7238,3.6776,3.6161,3.6161,3.5815,3.5603,3.5968,3.6776,3.7642,3.845,3.9714,4.1131,4.2584,4.3209,0.0,0.0,0.0,5.0696,5.2932,5.3666,5.3827,0.0,0.0,0.0,0.0,0.0,5.3206,5.3206,5.3206,5.3206,5.3206,5.3206,5.3004,5.2546,5.2123,5.1187,4.9774,4.9315,4.882,4.8306,4.8306,4.7719,0.0,0.0,0.0,4.3552,4.4507,4.4342,4.3497,4.3497,4.3497,4.3497,4.3497,4.3497,4.3497,0.0,0.0,0.0,0.0,0.0,0.0,0.0,0.0,0.0,0.0,0.0,0.0,0.0,0.0,0.0,0.0,0.0,0.0,0.0,0.0,0.0,0.0,0.0,0.0,0.0,0.0,0.0,0.0,0.0,0.0,0.0,0.0,2.589,0.0,0.0,0.0,0.0,0.0,0.0,0.0,2.9104,0.0,0.0,0.0,0.0,0.0,0.0,0.0,0.0,3.0398,3.0398,3.0525,3.128,0.0,0.0,0.0,0.0,0.0,3.5608,3.5666,3.5839,3.6531,3.6185,3.568,3.568,3.5603,3.5738,3.6526,3.6815,3.743,3.9161,4.0443,0.0,0.0,0.0,0.0,4.788,4.8962,5.0427,5.2809,5.3022,0.0,0.0,0.0,0.0,0.0,0.0,5.3206,5.3206,5.3206,5.3206,5.3206,5.3206,5.3206,5.3206,5.2968,5.1922,5.0123,4.9866,4.9169,4.8122,4.8122,4.7498,4.6397,0.0,0.0,4.3571,4.4599,4.4415,4.3497,4.3497,4.3497,4.3497,4.3497,4.3497,4.3497,0.0,0.0,0.0,0.0,0.0,0.0,0.0,0.0,0.0,0.0,0.0,0.0,0.0,0.0,0.0,0.0,0.0,0.0,0.0,0.0,0.0,0.0,0.0,0.0,0.0,0.0,0.0,0.0,0.0,0.0,2.5427,2.5467,2.589,2.664,0.0,0.0,0.0,0.0,0.0,0.0,3.0175,0.0,0.0,0.0,0.0,0.0,0.0,0.0,0.0,3.0398,3.0398,3.0417,3.0564,0.0,0.0,0.0,0.0,0.0,3.6133,3.6531,3.6551,3.6675,3.6617,3.6526,3.6526,3.5988,3.5738,3.6526,3.7296,3.8315,3.9988,4.0634,4.1585,0.0,0.0,4.7919,0.0,0.0,5.2513,5.2666,0.0,0.0,0.0,0.0,0.0,0.0,0.0,5.3206,5.3206,5.3206,5.3206,5.3206,5.3206,5.3206,5.3206,5.1848,5.1004,5.0655,4.9242,4.8122,4.7297,4.7297,4.6471,4.5057,0.0,4.5057,4.3552,4.4415,4.4268,4.3497,4.3497,4.3497,4.3497,4.3497,4.3497,4.3497,0.0,0.0,0.0,0.0,0.0,0.0,0.0,0.0,0.0,0.0,0.0,0.0,0.0,0.0,0.0,0.0,0.0,0.0,0.0,0.0,0.0,0.0,0.0,0.0,0.0,0.0,0.0,0.0,0.0,2.5543,2.5447,2.5447,2.612,2.7313,0.0,0.0,0.0,0.0,0.0,0.0,0.0,0.0,0.0,0.0,0.0,0.0,0.0,0.0,0.0,0.0,3.0398,3.0398,3.0398,0.0,0.0,0.0,0.0,0.0,3.5139,3.5691,3.6051,3.6045,3.6372,3.6603,3.6161,3.5776,3.5872,3.7142,3.7719,3.8661,4.0816,0.0,4.2865,4.5354,0.0,4.7903,4.9755,5.0847,5.1764,0.0,0.0,0.0,0.0,0.0,0.0,0.0,0.0,0.0,5.3206,5.3206,5.3206,5.3206,5.3206,5.3206,5.3206,5.205,5.1224,5.0802,5.0031,4.8765,4.7113,4.7113,4.6232,4.4745,0.0,4.4984,4.3552,4.4378,4.4232,4.3497,4.3497,4.3497,4.3497,4.3497,4.3497,4.3497,0.0,0.0,0.0,0.0,0.0,0.0,0.0,0.0,0.0,0.0,0.0,0.0,0.0,0.0,0.0,0.0,0.0,0.0,0.0,0.0,0.0,0.0,0.0,0.0,0.0,0.0,2.5532,2.5486,2.5524,2.5524,2.5486,2.562,2.6477,0.0,0.0,0.0,0.0,0.0,0.0,0.0,0.0,0.0,0.0,0.0,0.0,0.0,0.0,0.0,0.0,0.0,0.0,0.0,0.0,0.0,0.0,3.1646,3.2737,3.3928,3.4139,3.496,3.5738,3.5565,3.5968,3.6315,3.5892,3.5949,3.6565,3.8238,3.8757,3.9604,4.195,4.3258,0.0,4.6807,4.7597,4.8362,4.9591,5.0562,5.1612,0.0,0.0,0.0,0.0,0.0,0.0,0.0,0.0,0.0,5.3206,5.3206,5.3206,5.3206,5.3023,5.3023,5.3206,5.2215,5.1408,5.0802,5.0618,4.9334,4.7113,4.7113,4.6232,4.4745,4.5351,4.48,4.3534,4.4158,4.4066,4.3497,4.3497,4.3497,4.3497,4.3497,4.3497,4.3497,0.0,0.0,0.0,0.0,0.0,0.0,0.0,0.0,0.0,0.0,0.0,0.0,0.0,0.0,0.0,0.0,0.0,0.0,0.0,0.0,0.0,0.0,0.0,0.0,0.0,2.544,2.5399,2.5409,2.5409,2.5409,2.5428,2.6179,2.7017,2.793,0.0,0.0,3.0398,3.0398,3.0398,0.0,0.0,0.0,0.0,0.0,0.0,0.0,0.0,0.0,0.0,0.0,0.0,0.0,0.0,0.0,3.066,3.1468,3.2314,3.3179,3.3987,3.5372,3.643,3.5699,3.5532,3.5776,3.6469,3.7238,3.8296,3.9969,4.095,4.2066,4.3797,4.549,4.6849,4.7542,4.9214,5.0866,5.2172,0.0,0.0,0.0,0.0,0.0,0.0,0.0,0.0,0.0,0.0,0.0,5.3206,5.3206,5.3206,5.3206,5.2472,5.2435,5.3206,5.1665,5.0857,5.0802,5.0031,4.8783,4.7113,4.7113,4.6232,4.4709,4.4764,4.4305,4.3497,4.3552,4.3534,4.3497,4.3497,4.3497,4.3497,4.3497,4.3497,4.3497,0.0,0.0,0.0,0.0,0.0,0.0,0.0,0.0,0.0,0.0,0.0,0.0,0.0,0.0,0.0,0.0,0.0,0.0,0.0,0.0,0.0,0.0,0.0,2.5357,2.5369,2.5385,2.539,2.5341,2.5915,2.6222,2.6226,2.7072,0.0,0.0,0.0,0.0,3.0398,3.0398,3.0398,3.0398,0.0,0.0,0.0,0.0,0.0,0.0,0.0,0.0,0.0,0.0,3.0398,3.0494,3.1044,3.0852,3.0571,3.1448,3.2275,3.2968,3.3295,3.5007,3.6507,3.5699,3.6276,3.7142,3.745,3.818,3.9123,4.0258,4.1181,4.2316,4.3989,0.0,4.7061,4.8521,4.9899,5.1269,5.2761,5.4215,0.0,0.0,0.0,0.0,0.0,0.0,0.0,0.0,0.0,0.0,5.3206,5.3206,5.2968,5.2472,5.216,5.1903,5.172,5.1096,5.0545,5.005,4.9738,4.871,4.7113,4.7113,4.6232,4.4709,4.4709,4.425,4.3497,4.3497,4.3497,4.3552,4.4232,4.4085,4.3552,4.4066,4.425,4.425,0.0,0.0,0.0,0.0,0.0,0.0,0.0,0.0,0.0,0.0,0.0,0.0,0.0,0.0,0.0,0.0,0.0,0.0,0.0,0.0,0.0,0.0,0.0,2.5303,2.5303,2.5341,2.5341,2.5303,2.6231,2.6814,2.7099,0.0,0.0,0.0,0.0,2.9571,3.0379,3.011,3.011,3.0263,3.0263,3.0139,0.0,0.0,0.0,0.0,0.0,0.0,0.0,0.0,3.0398,3.0494,3.1102,3.0891,3.0571,3.1448,3.2275,3.2891,3.2891,3.4564,3.6199,3.5641,3.6969,3.8546,3.9084,3.9662,4.0392,4.147,4.2307,4.3157,4.4192,0.0,0.0,0.0,5.0413,5.1753,5.3004,0.0,0.0,0.0,0.0,0.0,0.0,0.0,0.0,0.0,0.0,0.0,0.0,5.3206,5.2839,5.2013,5.1738,5.1353,5.082,5.0288,4.9866,4.9591,4.9315,4.8581,4.748,4.7241,4.6379,4.5057,4.4819,4.4397,4.3864,4.3589,4.3497,4.3552,4.4305,4.4562,4.4488,4.4378,4.4635,4.5112,0.0,0.0,0.0,0.0,0.0,0.0,0.0,0.0,0.0,0.0,0.0,0.0,0.0,0.0,0.0,0.0,0.0,0.0,0.0,0.0,0.0,0.0,0.0,2.5303,2.5303,2.5322,2.5322,2.5303,2.6186,2.707,2.7934,2.8725,0.0,0.0,0.0,2.9586,3.0321,2.9471,2.9452,3.0002,3.0002,2.9874,2.9716,0.0,0.0,0.0,0.0,0.0,0.0,0.0,3.0417,3.0417,3.0417,3.0417,3.059,3.1468,3.2275,3.291,3.291,3.418,3.5512,3.5512,3.743,3.9738,4.1431,4.1816,4.2297,4.3951,4.4729,4.5007,4.4676,4.6579,0.0,4.8837,5.0929,5.2641,5.312,0.0,0.0,0.0,0.0,0.0,0.0,0.0,0.0,0.0,0.0,0.0,0.0,5.3206,5.2821,5.1995,5.1206,5.0784,5.0784,4.9132,4.8728,4.9554,4.871,4.8306,4.8269,4.748,4.6673,4.5865,4.5076,4.4727,4.4654,4.3828,4.3516,4.3534,4.3534,4.4819,4.6434,4.4305,4.4525,4.5993,0.0,0.0,0.0,0.0,0.0,0.0,0.0,0.0,0.0,0.0,0.0,0.0,0.0,0.0,0.0,0.0,0.0,0.0,0.0,0.0,0.0,0.0,0.0,0.0,0.0,0.0,2.6824,2.6196,2.7091,2.7937,0.0,0.0,0.0,2.9132,0.0,2.9821,2.9506,2.986,3.0129,3.0285,3.0278,3.0113,2.9981,0.0,0.0,0.0,0.0,0.0,0.0,0.0,0.0,0.0,3.216,3.216,3.2218,3.2468,3.3141,3.3814,3.3814,3.5045,3.6353,3.6353,3.8257,4.0431,4.1546,4.2277,4.3028,4.4085,4.4729,4.5246,4.5703,4.692,0.0,4.9551,5.062,5.1735,0.0,0.0,0.0,0.0,0.0,0.0,0.0,0.0,0.0,0.0,0.0,0.0,0.0,5.2656,5.1995,5.1187,5.038,4.9664,4.9058,4.8563,4.8434,4.8673,4.8416,4.8306,4.8306,4.8067,4.7517,4.6746,4.6507,4.5865,4.4892,4.3901,4.4819,4.6874,4.6874,4.6562,4.6104,4.5847,4.6177,4.6746,0.0,0.0,0.0,0.0,0.0,0.0,0.0,0.0,0.0,0.0,2.5011,2.5091,0.0,0.0,0.0,0.0,0.0,0.0,0.0,0.0,0.0,0.0,0.0,0.0,0.0,2.7575,2.7806,0.0,0.0,0.0,0.0,0.0,3.0121,2.9621,0.0,2.9775,2.9621,2.9821,3.0021,3.0234,3.0152,2.9983,2.9836,0.0,0.0,0.0,0.0,0.0,0.0,0.0,0.0,0.0,3.2891,3.2891,3.2968,3.3314,3.3795,3.4199,3.4199,3.5411,3.6776,3.7142,3.9123,4.1335,4.2527,4.347,4.428,4.4959,4.5252,4.5588,4.6278,4.7224,0.0,4.9658,5.0669,0.0,0.0,0.0,0.0,0.0,0.0,0.0,0.0,0.0,0.0,0.0,0.0,0.0,0.0,5.2252,5.1481,5.0362,4.9848,4.9169,4.8324,4.8306,4.8306,4.8306,4.8306,4.8306,4.8306,4.7976,4.7572,4.7075,4.7003,4.6361,4.5424,4.5406,4.6544,4.8306,4.8306,4.7719,4.6819,4.6507,4.6893,4.7572,0.0,0.0,0.0,0.0,0.0,0.0,0.0,0.0,0.0,0.0,2.4983,2.5091,0.0,0.0,0.0,0.0,0.0,0.0,0.0,0.0,0.0,0.0,0.0,0.0,0.0,0.0,0.0,0.0,0.0,0.0,0.0,0.0,3.0348,3.022,0.0,2.959,3.017,2.9498,2.9517,2.9972,2.9804,2.962,2.9462,2.9498,0.0,0.0,0.0,0.0,0.0,0.0,0.0,0.0,3.3045,3.3064,3.3276,3.3987,3.4257,3.4334,3.441,3.5512,3.6921,3.7969,4.0127,4.2398,4.4047,4.501,4.5668,4.6097,0.0,4.6195,4.6545,4.7568,4.862,4.9462,5.0894,0.0,0.0,0.0,0.0,0.0,0.0,0.0,0.0,0.0,0.0,0.0,0.0,0.0,0.0,5.1848,5.1096,4.9627,4.9499,4.9095,4.8324,4.8306,4.8306,4.8306,4.8306,4.8306,4.8288,4.7553,4.7223,4.7223,4.6948,4.6562,4.6232,4.77,4.8306,4.8306,4.8306,4.8306,4.8122,4.6654,4.704,4.8306,0.0,0.0,0.0,0.0,0.0,0.0,0.0,0.0,0.0,0.0,0.0,0.0,0.0,0.0,0.0,0.0,0.0,0.0,0.0,0.0,0.0,0.0,0.0,0.0,0.0,0.0,0.0,0.0,0.0,0.0,0.0,0.0,0.0,2.917,2.9826,2.9646,2.8897,2.9749,3.0075,2.9999,2.9943,2.9918,2.9912,3.0222,3.0715,0.0,0.0,0.0,0.0,0.0,0.0,0.0,3.4141,3.4391,3.4853,3.4353,3.468,3.5372,3.5988,3.6259,3.6963,3.9362,4.1682,4.3694,4.5031,4.5266,4.5218,4.5265,4.682,4.8022,4.7535,4.8163,4.9139,5.0349,0.0,0.0,0.0,0.0,0.0,0.0,0.0,0.0,0.0,0.0,0.0,0.0,0.0,0.0,5.1995,5.0784,4.9939,4.9591,4.893,4.8489,4.8306,4.8306,4.8306,0.0,4.8306,4.8306,4.8306,4.8122,4.8049,4.8049,4.7994,4.7902,4.781,4.8159,4.8306,4.8306,4.8306,4.8306,4.8269,4.7921,4.8012,4.8306,0.0,0.0,0.0,0.0,0.0,0.0,0.0,0.0,0.0,0.0,0.0,0.0,0.0,0.0,0.0,0.0,0.0,0.0,0.0,0.0,0.0,0.0,0.0,0.0,0.0,0.0,0.0,0.0,0.0,0.0,3.0398,3.0279,2.9894,2.9399,2.9956,2.9813,2.9216,3.0049,3.0254,2.9999,2.9899,2.9805,2.972,2.9802,3.0318,3.1001,3.1155,0.0,0.0,0.0,0.0,0.0,0.0,0.0,3.5243,3.4922,3.5141,3.5603,3.6007,3.6495,3.7584,4.052,4.2986,4.4787,4.5246,4.5668,4.5854,4.5442,4.6436,4.7602,4.8408,4.8286,4.8513,4.9979,0.0,0.0,0.0,0.0,0.0,0.0,0.0,0.0,0.0,0.0,0.0,0.0,0.0,5.1646,5.0875,5.005,4.9389,4.8985,4.8545,4.8306,4.8306,4.8306,4.8306,4.8306,4.8306,4.8306,4.8306,4.8306,4.8306,4.8306,4.8306,4.8306,4.8306,4.8306,4.8306,4.8306,4.8306,4.8306,4.8306,4.8306,4.8306,4.8306,0.0,0.0,0.0,0.0,0.0,0.0,0.0,0.0,0.0,0.0,0.0,0.0,0.0,0.0,0.0,0.0,0.0,0.0,0.0,0.0,0.0,0.0,0.0,0.0,0.0,0.0,0.0,0.0,0.0,3.0129,3.0398,2.9971,2.9671,2.9458,2.9661,2.9696,2.9633,3.0098,3.0142,2.9877,2.9713,2.9551,2.9381,2.9097,2.9577,3.0401,3.0506,3.1599,3.3004,3.3088,0.0,0.0,0.0,0.0,3.4947,3.5311,3.546,3.5532,3.568,3.6916,3.8765,4.1255,4.3618,4.5303,4.5222,4.5878,4.6392,4.5969,4.5965,4.6656,4.8724,4.8002,4.7664,4.9315,4.9591,0.0,0.0,0.0,0.0,0.0,0.0,0.0,0.0,0.0,0.0,0.0,0.0,5.0986,4.9646,4.9444,4.904,4.8324,4.8306,4.8306,4.8306,4.8306,4.8306,4.8306,4.8306,4.8306,4.8306,4.8306,4.8306,4.8306,4.8306,4.8306,4.8306,4.8306,4.8306,4.8306,4.8306,4.8306,4.8306,4.8306,4.8306,4.8306,0.0,0.0,0.0,0.0,0.0,0.0,0.0,0.0,0.0,0.0,2.5149,2.5264,0.0,0.0,0.0,0.0,0.0,0.0,0.0,0.0,0.0,0.0,0.0,0.0,0.0,0.0,0.0,0.0,2.8833,2.8979,3.0379,2.9408,2.8365,2.7354,2.8291,2.8463,2.8167,2.9324,2.9661,2.9493,2.9454,2.9418,2.9381,2.9097,2.9242,2.9614,3.0102,3.0702,3.1388,3.1869,3.2256,0.0,0.0,0.0,3.4127,3.4909,3.532,3.5661,3.6353,3.8621,4.084,4.1022,4.2641,4.4463,4.5323,4.5213,4.516,0.0,4.6563,4.6966,4.7348,4.7243,4.7664,4.9315,4.9591,0.0,0.0,0.0,0.0,0.0,0.0,0.0,0.0,0.0,0.0,0.0,5.0306,4.9811,4.9591,4.8875,4.8416,4.8306,4.8306,4.8306,4.8306,4.8306,4.8306,4.8306,4.8306,4.8306,4.8306,4.8306,4.8306,4.8306,4.8306,4.8306,4.8306,4.8306,4.8306,4.8306,4.8306,4.8306,4.8306,4.8306,4.8306,4.8306,0.0,0.0,0.0,0.0,0.0,0.0,0.0,0.0,0.0,0.0,0.0,2.5303,0.0,0.0,0.0,0.0,0.0,0.0,0.0,0.0,0.0,0.0,0.0,0.0,0.0,0.0,0.0,0.0,2.8491,2.8479,2.8603,2.8623,2.8568,2.8482,2.8839,2.8883,2.8754,2.9401,2.9589,2.9412,2.9412,2.9312,2.9148,0.0,0.0,0.0,0.0,0.0,3.1172,3.0979,3.1273,3.1856,3.2341,0.0,0.0,0.0,3.422,3.4653,3.6274,3.8403,4.0344,4.1111,4.2598,4.4102,4.4874,4.4806,4.4674,4.4942,4.5181,4.5754,4.7154,4.726,4.7498,4.8673,4.8875,0.0,0.0,0.0,0.0,0.0,0.0,0.0,0.0,0.0,0.0,0.0,4.9793,4.937,4.8893,4.8508,4.8306,4.8306,4.8306,4.8306,4.8306,4.7865,4.7645,4.7645,4.8086,4.8306,4.8306,4.8306,4.8306,4.8306,4.8306,4.8306,4.8306,4.8306,4.8306,4.8306,4.8306,4.8306,4.8306,4.8306,4.8306,4.8306,0.0,0.0,0.0,0.0,0.0,0.0,0.0,0.0,0.0,0.0,0.0,0.0,0.0,0.0,0.0,0.0,0.0,0.0,0.0,0.0,0.0,0.0,0.0,0.0,0.0,0.0,0.0,2.7426,2.7927,2.7963,2.7634,2.8265,2.8983,2.9696,2.9202,2.8983,2.903,2.9358,2.9435,2.9289,2.9289,2.9178,2.8994,0.0,0.0,0.0,0.0,0.0,0.0,0.0,3.0467,3.0864,3.1269,3.144,0.0,0.0,0.0,3.4112,3.5903,3.7633,3.9288,4.0766,4.2266,4.3585,4.4253,4.4429,4.4346,0.0,4.4165,4.4842,4.6624,4.6871,4.7003,4.759,4.7865,4.7921,0.0,0.0,0.0,0.0,0.0,0.0,0.0,0.0,0.0,0.0,4.8948,4.8673,4.8031,4.781,4.77,4.77,4.7902,4.7902,4.77,4.7315,4.7223,4.7425,4.8012,4.8306,4.8306,4.8306,4.8306,4.8306,4.8306,4.8306,4.8306,4.8306,4.8306,4.8306,4.8306,4.8306,4.8306,4.8306,4.8306,4.8306,0.0,0.0,0.0,0.0,0.0,0.0,0.0,0.0,0.0,0.0,0.0,0.0,0.0,0.0,0.0,2.4832,0.0,0.0,0.0,0.0,0.0,0.0,0.0,0.0,0.0,0.0,2.6184,2.6954,2.6605,2.722,2.8732,2.8752,2.9119,2.9646,2.8419,2.7882,2.7941,2.8713,2.9021,2.9017,2.9017,2.9017,2.8994,0.0,0.0,0.0,0.0,0.0,0.0,0.0,0.0,0.0,3.005,3.0465,3.0963,0.0,0.0,0.0,3.5392,3.6729,3.8281,3.9483,4.1087,4.265,4.3634,0.0,4.4046,4.3998,4.4612,4.5082,4.4888,4.5443,4.5975,4.6012,4.6673,4.6911,0.0,0.0,0.0,0.0,0.0,0.0,0.0,0.0,0.0,0.0,4.7241,4.7223,4.7186,4.6452,4.6012,4.6012,4.6764,4.6819,4.603,4.6746,4.7498,4.8251,4.8288,4.8306,4.8306,4.8306,4.8306,4.8306,4.8306,4.8306,4.8306,4.8306,4.8306,4.8306,4.8306,4.8306,4.8306,4.8306,4.8306,4.8306,0.0,0.0,0.0,0.0,0.0,0.0,0.0,0.0,0.0,0.0,0.0,0.0,0.0,2.4804,2.4804,2.4804,2.4685,0.0,0.0,0.0,0.0,0.0,0.0,0.0,0.0,2.6133,2.6219,2.6135,2.6501,2.6996,2.7603,2.8799,2.9344,2.924,2.8949,2.8736,2.8576,2.8888,2.8994,2.8994,0.0,0.0,0.0,0.0,0.0,0.0,0.0,0.0,0.0,0.0,0.0,0.0,0.0,0.0,0.0,3.1647,3.2691,3.3724,3.4873,3.6429,3.7984,3.91,4.0184,4.1444,4.3101,4.3165,4.313,4.3844,4.4059,4.407,4.3954,4.5002,4.5902,4.5902,4.614,4.6232,4.5938,0.0,0.0,0.0,0.0,0.0,0.0,0.0,0.0,0.0,0.0,4.6562,4.7095,4.6342,4.5902,4.5902,4.6177,4.6195,4.5902,4.6709,4.726,4.7553,4.8067,4.8306,4.8306,4.8306,4.8306,4.8306,4.8306,4.8306,4.8306,4.8306,4.8306,4.8306,4.8306,4.8306,4.8306,4.8306,4.8306,4.8306,0.0,0.0,0.0,0.0,0.0,0.0,0.0,0.0,0.0,0.0,0.0,0.0,0.0,0.0,2.4591,2.4591,2.4478,2.441,2.441,2.4266,0.0,0.0,0.0,0.0,0.0,0.0,2.6401,2.6005,2.6874,2.7304,2.7326,2.8952,2.9514,2.9156,2.9325,2.9249,2.8994,2.8994,0.0,2.9389,0.0,0.0,2.982,0.0,0.0,0.0,0.0,0.0,0.0,0.0,0.0,0.0,0.0,0.0,0.0,0.0,0.0,3.2653,3.4173,3.5443,3.6714,3.8347,3.9275,4.0254,4.2046,4.2385,4.2566,4.3441,4.3541,4.3497,4.3497,4.436,4.5094,4.5094,4.5314,4.5406,4.5131,0.0,0.0,0.0,0.0,0.0,0.0,0.0,0.0,0.0,0.0,0.0,4.6287,4.5535,4.5223,4.5498,4.5241,4.5351,4.5883,4.6177,4.6544,4.6985,4.7609,4.7664,4.726,4.7976,4.8012,4.7517,4.7792,4.8067,4.8306,4.8306,4.8306,4.8269,4.7902,4.7994,4.8269,4.8012,4.8086,4.8306,0.0,0.0,0.0,0.0,0.0,0.0,0.0,0.0,0.0,0.0,0.0,0.0,0.0,0.0,0.0,2.419,2.419,2.419,2.419,2.419,0.0,0.0,0.0,0.0,0.0,0.0,0.0,0.0,0.0,0.0,0.0,2.9194,2.9589,2.9394,2.9401,2.9249,2.8994,0.0,2.9485,3.0199,0.0,3.0693,3.1419,0.0,0.0,0.0,3.2331,3.2118,0.0,3.2375,0.0,0.0,0.0,0.0,0.0,0.0,0.0,0.0,0.0,0.0,0.0,3.7144,3.8238,3.9047,4.0459,4.1556,4.2331,4.2723,4.3139,4.3442,4.3442,4.3461,4.3497,4.3497,4.4158,4.4397,4.3608,4.4176,0.0,0.0,0.0,0.0,0.0,0.0,0.0,0.0,4.469,4.4672,4.4709,4.3938,4.3864,4.4654,4.3901,4.425,4.5847,4.5094,4.5369,4.6673,4.6948,4.6397,4.5186,4.7278,4.7388,4.5938,4.6746,4.7517,4.8233,4.8233,4.8251,4.8159,4.7131,4.737,4.8214,4.7443,4.7645,4.8306,0.0,0.0,0.0,0.0,0.0,0.0,0.0,0.0,0.0,0.0,0.0,0.0,0.0,0.0,0.0,2.419,2.419,2.419,2.419,2.419,2.419,2.419,2.5529,0.0,0.0,0.0,0.0,0.0,0.0,0.0,0.0,0.0,0.0,0.0,2.9308,2.9249,2.9053,2.9614,0.0,3.0254,3.0826,3.119,0.0,0.0,0.0,0.0,0.0,3.2842,3.3164,0.0,3.3164,3.2596,0.0,0.0,0.0,0.0,0.0,0.0,3.3266,0.0,0.0,0.0,0.0,0.0,4.0085,4.0555,4.0983,4.2474,4.2691,4.2635,4.2635,4.3112,4.3497,4.3497,4.3681,4.3754,4.3516,4.3681,0.0,0.0,0.0,0.0,0.0,0.0,0.0,0.0,4.4158,4.4085,4.4672,4.3938,4.3589,4.3809,4.3608,4.3993,4.5021,4.4819,4.5186,4.6122,4.6195,4.6049,4.57,4.6287,4.6324,4.5902,4.614,4.6361,4.6562,4.6562,4.6911,4.7407,4.7131,4.7535,4.8269,4.8067,4.8122,4.8306,0.0,0.0,0.0,0.0,0.0,0.0,0.0,0.0,0.0,0.0,0.0,0.0,0.0,0.0,0.0,2.419,2.419,2.419,2.419,2.4502,2.4685,2.4685,2.6245,2.7108,0.0,0.0,0.0,0.0,0.0,0.0,0.0,0.0,0.0,0.0,0.0,0.0,2.954,0.0,0.0,0.0,3.1571,0.0,0.0,3.2529,3.2902,0.0,0.0,0.0,3.4301,3.4301,3.4072,0.0,0.0,0.0,0.0,0.0,0.0,0.0,0.0,0.0,0.0,3.4954,0.0,0.0,3.8654,3.9394,4.0154,4.1072,4.1545,4.1901,4.2249,4.2671,4.3112,4.3442,4.3497,4.3497,4.3497,4.3497,4.3663,0.0,0.0,0.0,0.0,4.3773,4.3681,4.4158,4.3754,4.3699,4.4176,4.3754,4.3497,4.3497,4.3497,4.3718,4.4195,4.4195,4.4433,4.4892,4.5241,4.5223,4.4911,4.559,4.5535,4.4911,4.5241,4.5204,4.4892,4.4892,4.5571,4.6617,4.6617,4.7095,4.781,4.781,4.8012,4.8306,0.0,0.0,0.0,0.0,0.0,0.0,0.0,0.0,0.0,0.0,0.0,0.0,0.0,0.0,0.0,0.0,2.4318,2.4318,2.4318,2.5089,0.0,0.0,2.6979,2.7787,2.7787,0.0,0.0,0.0,0.0,0.0,0.0,0.0,0.0,0.0,0.0,0.0,0.0,0.0,0.0,3.1601,3.2419,3.3633,0.0,0.0,3.4421,3.5045,3.432,3.4531,3.5145,3.5155,3.4604,0.0,0.0,0.0,0.0,0.0,3.1531,0.0,0.0,0.0,0.0,0.0,3.6266,0.0,3.6994,3.8477,3.9774,3.9389,4.0351,4.146,4.2176,4.2378,4.2671,4.3369,4.3497,4.3497,4.3497,4.3497,4.3497,0.0,0.0,0.0,4.3497,4.3497,4.3497,4.3497,4.3497,4.3497,4.3497,4.3497,4.3497,4.3497,4.3497,4.3497,4.3497,4.3497,4.3497,4.3497,4.4213,4.4195,4.3534,4.4984,4.4837,4.3534,4.4268,4.4158,4.3497,4.3497,4.4397,4.5773,4.5865,4.6397,4.7131,4.7223,4.77,4.8306,0.0,0.0,0.0,0.0,0.0,0.0,0.0,0.0,0.0,0.0,0.0,0.0,0.0,0.0,0.0,0.0,2.5182,2.5182,2.5182,0.0,0.0,2.6374,2.7291,2.7787,2.7787,2.8594,0.0,0.0,0.0,0.0,0.0,0.0,0.0,0.0,0.0,0.0,0.0,0.0,0.0,3.2437,3.3258,0.0,3.4981,3.4827,3.5318,3.6019,3.589,3.5908,3.6029,3.6057,3.5459,3.4613,0.0,0.0,0.0,3.2381,0.0,0.0,0.0,0.0,0.0,0.0,0.0,0.0,3.8173,3.9136,4.006,4.0601,4.142,4.2121,4.2268,4.2818,4.3314,4.3461,4.3497,4.3497,4.3497,4.3497,4.3497,4.3497,0.0,0.0,4.3497,4.3497,4.3497,4.3497,4.3497,4.3497,4.3497,4.3497,4.3497,4.3497,4.3497,4.3497,4.3497,4.3497,4.3497,4.3497,4.3644,4.3644,4.3497,4.3828,4.3791,4.3497,4.3663,4.3644,4.3497,4.3497,4.4066,4.5002,4.5645,4.6397,4.7205,4.7847,4.8177,4.8306,0.0,0.0,0.0,0.0,0.0,0.0,0.0,0.0,0.0,0.0,0.0,0.0,0.0,0.0,0.0,0.0,0.0,0.0,0.0,0.0,0.0,2.72,2.797,2.8411,2.8411,2.8796,0.0,0.0,0.0,0.0,0.0,0.0,0.0,0.0,0.0,0.0,0.0,0.0,3.2092,3.324,3.3633,0.0,3.4954,3.4563,3.502,3.5845,3.5255,3.5607,3.637,3.6743,3.6622,0.0,3.5308,3.4767,3.4448,0.0,3.4449,3.4541,0.0,0.0,0.0,3.5752,0.0,0.0,0.0,3.8432,3.9423,3.9827,4.023,4.0744,4.1552,4.2029,4.2433,4.2837,4.3222,4.3497,4.3497,4.3497,4.3497,4.3497,0.0,0.0,4.3497,4.3497,4.3497,4.3497,4.3497,4.3497,4.3497,4.3497,4.3497,4.3497,4.3497,4.3497,4.3497,4.3497,4.3497,4.3497,4.3497,4.3497,4.3497,4.3497,4.3497,4.3497,4.3497,4.3497,4.3497,4.3497,4.3736,4.4213,4.5424,4.6159,4.6654,4.7865,4.8306,4.8306,2.55,0.0,0.0,0.0,0.0,0.0,0.0,0.0,0.0,0.0,0.0,0.0,0.0,0.0,0.0,0.0,0.0,0.0,0.0,0.0,0.0,0.0,2.8604,2.892,2.8755,2.892,2.8994,0.0,0.0,0.0,0.0,0.0,0.0,0.0,0.0,2.9898,3.1403,0.0,0.0,3.4036,0.0,3.442,3.4944,3.4266,3.4702,3.5551,3.4786,3.5371,3.6657,3.7466,3.7631,3.74,3.6741,3.6419,0.0,0.0,0.0,0.0,0.0,0.0,0.0,0.0,0.0,3.8358,0.0,0.0,0.0,3.9166,3.9294,3.979,4.1093,0.0,0.0,0.0,0.0,0.0,0.0,4.3387,0.0,4.3497,4.3497,0.0,4.3497,4.3497,4.3513,4.3597,4.3548,4.3582,4.3712,4.3582,4.3513,4.3597,4.3548,4.3497,4.3497,4.3497,4.3497,4.3497,4.3497,4.3497,4.3497,4.3497,4.3497,4.3497,4.3497,4.3589,4.3718,4.3718,4.3809,4.4085,4.5388,4.5902,4.6085,4.7719,4.8306,4.8306,2.6447,2.5889,0.0,0.0,0.0,0.0,0.0,0.0,0.0,0.0,0.0,0.0,0.0,0.0,0.0,0.0,0.0,0.0,2.9052,0.0,0.0,0.0,2.8718,2.8686,2.7952,2.865,2.8994,2.8994,0.0,0.0,0.0,0.0,0.0,0.0,2.8994,2.9898,3.1403,0.0,3.2738,0.0,3.4879,3.4934,0.0,3.4898,3.5413,3.6278,3.6877,3.7208,3.7495,0.0,3.8083,3.7473,0.0,3.6881,3.6435,3.7136,0.0,0.0,0.0,0.0,0.0,0.0,3.856,0.0,0.0,0.0,4.0836,4.0836,0.0,4.1956,4.2139,0.0,0.0,0.0,0.0,0.0,4.2433,4.3039,4.3497,4.3497,4.3497,0.0,0.0,4.3497,4.3612,4.3924,4.3679,4.3791,4.4447,4.3855,4.3646,4.3924,4.3646,4.3497,4.3497,4.3497,4.3497,4.3497,4.3497,4.3497,4.3497,4.3497,4.3497,4.3497,4.3497,4.3901,4.4562,4.4562,4.4984,4.5645,4.5828,4.5902,4.6085,4.7719,4.8306,4.8306,2.7209,2.7028,0.0,0.0,0.0,0.0,0.0,0.0,0.0,0.0,0.0,0.0,0.0,0.0,0.0,0.0,0.0,2.7536,0.0,0.0,0.0,0.0,0.0,0.0,2.8851,2.8955,2.8994,2.8994,2.8994,0.0,0.0,0.0,0.0,0.0,2.9709,0.0,3.2133,0.0,3.3633,0.0,0.0,0.0,0.0,3.5551,3.5975,3.6457,3.7761,3.7794,3.7399,0.0,3.8475,0.0,0.0,0.0,0.0,3.8102,0.0,0.0,0.0,0.0,0.0,0.0,0.0,0.0,3.8707,0.0,4.0396,0.0,0.0,0.0,0.0,0.0,0.0,0.0,4.1791,0.0,0.0,0.0,4.2983,0.0,0.0,0.0,0.0,0.0,0.0,0.0,4.374,4.3943,4.4252,4.3974,4.3849,4.4016,4.366,4.3497,4.3497,4.3497,4.3497,4.3497,4.3497,4.3497,4.3497,4.3497,4.3497,4.3497,4.3497,4.3956,4.4672,4.4195,4.4745,4.5902,4.5902,4.6195,4.6746,4.7884,4.8618,4.8967,2.8021,2.7948,2.7675,2.7313,0.0,0.0,0.0,0.0,0.0,0.0,0.0,0.0,2.8397,2.851,0.0,0.0,2.8411,2.8699,0.0,0.0,2.916,0.0,0.0,0.0,0.0,0.0,2.9077,2.8839,0.0,0.0,0.0,0.0,0.0,0.0,0.0,3.1297,3.2655,0.0,3.4338,3.5174,3.5826,3.5864,3.5617,3.5862,3.6098,3.6474,3.7875,3.7808,3.7266,3.8346,3.8707,0.0,3.8707,0.0,0.0,0.0,0.0,0.0,4.0432,0.0,0.0,0.0,0.0,0.0,0.0,0.0,0.0,0.0,0.0,0.0,0.0,0.0,0.0,0.0,0.0,4.1974,0.0,4.1974,0.0,0.0,0.0,0.0,0.0,0.0,0.0,4.3444,4.3782,4.4005,4.407,4.4044,4.4058,4.4146,4.3726,4.3497,4.3497,4.3497,4.3497,4.3497,4.3497,4.3497,4.3497,4.3497,4.3497,4.3497,4.3497,4.3956,4.4672,4.4305,4.4984,4.625,4.6471,4.6911,4.7517,4.8086,4.8691,4.9132,2.8962,2.8338,2.8044,2.8792,2.8957,0.0,0.0,0.0,0.0,0.0,0.0,0.0,0.0,0.0,0.0,0.0,0.0,2.8647,3.0543,0.0,2.8564,0.0,0.0,2.9528,0.0,0.0,0.0,2.842,0.0,0.0,0.0,0.0,0.0,0.0,3.1017,3.1825,3.2643,3.3458,3.4449,3.5477,3.5512,3.6127,3.6912,0.0,3.555,3.6401,3.7234,0.0,0.0,3.834,3.8707,0.0,0.0,0.0,0.0,0.0,0.0,0.0,0.0,0.0,0.0,4.1075,0.0,0.0,0.0,0.0,4.1075,0.0,0.0,0.0,0.0,0.0,0.0,0.0,0.0,0.0,0.0,0.0,0.0,0.0,0.0,0.0,0.0,0.0,4.3799,4.3352,4.3726,4.4086,4.4285,4.4115,4.4175,4.4553,4.3868,4.3497,4.3497,4.3497,4.3497,4.3497,4.3497,4.3497,4.3497,4.3497,4.3497,4.3497,4.3497,4.3956,4.4764,4.5516,4.6305,4.715,4.7921,4.8251,4.8269,4.8306,4.8324,4.8343,2.859,2.862,2.8686,2.8938,2.9457,0.0,0.0,3.2019,0.0,0.0,3.336,0.0,0.0,3.2955,3.2493,0.0,0.0,3.1353,3.1498,3.1647,0.0,0.0,0.0,3.024,0.0,0.0,0.0,0.0,0.0,0.0,0.0,0.0,0.0,0.0,0.0,3.2944,0.0,0.0,0.0,0.0,0.0,3.7827,3.8026,0.0,0.0,3.7918,3.82,3.8248,0.0,3.8579,3.9166,3.9638,3.8909,3.8812,3.8909,3.8655,3.9066,0.0,0.0,0.0,4.1378,4.1797,0.0,0.0,0.0,0.0,0.0,0.0,0.0,0.0,0.0,0.0,0.0,0.0,0.0,0.0,0.0,0.0,4.0414,4.0671,0.0,0.0,0.0,0.0,0.0,4.265,4.2688,4.2989,4.3589,4.3561,4.3864,4.458,4.3868,4.3497,4.3497,4.3497,4.3497,4.3497,4.3497,4.3497,4.3497,4.3497,4.3497,4.3497,4.3497,4.3956,4.4727,4.5002,4.5902,4.715,4.7407,4.7847,4.8306,4.8306,4.8673,4.915,2.8881,2.938,2.9769,2.9494,3.0435,0.0,0.0,0.0,0.0,0.0,3.5117,0.0,3.5967,0.0,3.4873,0.0,3.4466,3.3773,3.2276,3.3196,0.0,3.1079,3.1184,0.0,0.0,0.0,0.0,0.0,0.0,3.1263,3.1611,3.1155,3.1701,0.0,0.0,3.389,3.5064,3.6135,3.6668,0.0,0.0,3.8692,0.0,0.0,3.8621,3.87,0.0,3.8707,3.8707,3.8707,3.9148,3.9656,3.9239,3.9049,3.8946,3.8758,3.9191,3.9899,4.0526,4.1099,0.0,4.1905,4.1207,0.0,3.9728,0.0,0.0,0.0,0.0,0.0,0.0,0.0,0.0,0.0,0.0,0.0,0.0,3.9808,0.0,3.9863,4.1438,4.2507,0.0,4.2562,4.2221,4.1617,4.1792,4.2266,0.0,0.0,4.3693,4.4587,4.4004,4.3612,4.3497,4.3497,4.3497,4.3497,4.3497,4.3497,4.3497,4.3497,4.3497,4.3497,4.3497,4.3791,4.4323,4.4892,4.5755,4.6746,4.7315,4.7847,4.8306,4.8306,4.8655,4.9132,2.9809,3.0654,3.1274,0.0,3.1874,0.0,0.0,0.0,3.5787,0.0,3.6013,3.6325,3.5843,3.6484,3.6641,3.583,3.6463,3.5813,3.3136,3.4318,0.0,0.0,3.1324,3.1586,2.9807,0.0,0.0,0.0,0.0,0.0,3.3063,3.1124,3.147,3.3744,3.4166,0.0,3.5054,3.6456,3.6812,3.6544,3.7972,3.8606,3.8876,4.0281,3.9913,3.8634,3.8682,3.8707,3.8707,3.8676,3.8695,3.8891,3.9612,3.9355,3.8967,3.9896,4.0165,4.0363,4.1101,4.156,4.1742,4.1513,0.0,0.0,0.0,0.0,4.2084,0.0,0.0,0.0,0.0,0.0,0.0,0.0,0.0,0.0,0.0,0.0,3.8982,3.9753,4.1508,4.2266,4.1199,4.2045,4.1994,4.0402,4.1054,4.1856,0.0,0.0,4.37,4.4587,4.4204,4.3849,4.3548,4.3513,4.3532,4.3513,4.3532,4.3497,4.3497,4.3497,4.3497,4.3497,4.3497,4.3516,4.3663,4.5241,4.5902,4.6067,4.7682,4.8306,4.8306,4.8306,4.8306,4.8306,3.053,3.1974,3.3109,0.0,3.2792,3.3421,0.0,0.0,0.0,0.0,3.8607,3.915,3.8975,3.8991,3.8788,3.8167,3.8553,0.0,0.0,0.0,0.0,3.399,3.2378,3.1308,3.0818,3.1055,3.1896,3.3308,0.0,0.0,3.3001,3.2243,3.2225,3.2876,3.3514,3.4085,3.4619,3.5847,3.7039,3.8008,3.6844,3.7308,3.8583,0.0,3.7406,3.8034,3.8515,3.8707,3.8645,3.8225,3.8773,3.9543,3.9376,3.9583,3.9877,3.972,3.9799,3.9956,4.0149,4.0979,4.1884,4.225,4.2214,4.1969,0.0,0.0,0.0,0.0,0.0,0.0,0.0,0.0,0.0,0.0,0.0,0.0,0.0,0.0,0.0,3.8982,3.9958,4.0762,4.1075,4.0804,4.0474,4.0038,4.0381,4.1106,4.2177,0.0,0.0,4.4947,4.4346,4.4106,4.4308,4.3758,4.3631,4.3881,4.3631,4.3497,4.3497,4.3497,4.3497,4.3497,4.3497,4.3828,4.447,4.548,4.5902,4.6067,4.7682,4.8306,4.8306,4.8306,4.8306,4.8306,3.1594,3.3372,0.0,3.5349,0.0,0.0,3.6669,3.6854,0.0,3.8156,3.9278,0.0,3.9643,3.9795,3.9817,3.948,3.9633,0.0,3.96,0.0,0.0,3.5673,3.4015,3.3136,3.3136,3.185,0.0,3.3846,0.0,0.0,3.2848,3.2239,3.2337,3.3048,3.3618,3.425,3.5038,3.6588,3.7272,3.7252,3.6081,3.6295,0.0,3.6417,3.6577,3.7327,3.7859,3.805,3.8016,3.7861,3.8339,3.9028,3.9081,3.9373,3.9715,3.9653,3.9669,3.9818,4.0193,4.0654,4.1196,4.1768,4.1984,4.1975,4.1649,4.2194,4.2708,0.0,0.0,0.0,0.0,0.0,0.0,0.0,0.0,0.0,0.0,0.0,0.0,0.0,3.9405,3.9937,4.0047,3.9955,3.9753,3.9405,3.984,4.0634,0.0,0.0,0.0,4.4594,4.4233,4.4046,4.4125,4.3712,4.3597,4.3772,4.3597,4.3497,4.3497,4.3497,4.3497,4.3497,4.3497,4.3754,4.4232,4.5039,4.5571,4.6012,4.7297,4.7792,4.7792,4.7792,4.8012,4.8306,3.3097,3.4948,0.0,0.0,0.0,0.0,0.0,3.7609,0.0,3.8025,0.0,3.9749,3.9206,3.9753,4.0189,4.0087,0.0,4.0614,4.1508,4.072,3.8948,3.6045,3.5723,3.5622,3.5622,3.2713,3.163,0.0,0.0,0.0,3.2696,3.1664,3.2015,3.3512,3.3897,3.4688,3.5852,3.7844,3.7488,3.564,3.6017,3.6022,3.5844,3.6492,3.67,3.6703,3.6893,3.7058,3.723,3.7471,3.763,3.7934,3.8672,3.8906,3.9027,3.9634,3.9749,3.9859,4.0573,4.0497,4.0336,4.0874,4.149,4.176,4.1126,4.2283,4.3296,4.2598,4.3002,4.3461,0.0,0.0,0.0,0.0,0.0,0.0,0.0,0.0,0.0,0.0,0.0,0.0,3.8781,3.9515,3.9717,3.8927,3.9698,4.0603,0.0,0.0,0.0,4.3871,4.4002,4.3999,4.3812,0.0,4.3569,4.3729,4.3569,4.3497,4.3497,4.3497,4.3497,4.3497,4.3497,4.3552,4.3718,4.4525,4.5333,4.6122,4.6728,4.7021,4.7113,4.7113,4.7627,4.8306,3.5914,3.7142,0.0,0.0,0.0,3.9337,3.9282,3.9157,3.899,3.8827,4.0339,4.1038,4.0001,4.0404,4.0595,4.0155,4.0476,0.0,0.0,0.0,0.0,3.7584,3.6299,3.5622,3.5622,3.2713,3.0108,0.0,0.0,0.0,0.0,0.0,3.1681,3.2593,3.3257,3.4661,3.6601,3.8073,0.0,3.5829,3.8327,3.8193,3.6535,3.6893,3.6811,3.6388,3.6037,3.644,3.7135,3.6768,3.6925,3.739,3.776,3.8166,3.8681,3.9565,3.9794,3.983,4.018,4.048,4.092,4.149,4.208,4.26,4.2941,4.3265,4.3442,4.3314,4.3387,4.3296,4.2635,0.0,0.0,0.0,0.0,0.0,0.0,0.0,0.0,0.0,0.0,3.957,3.8781,4.0029,4.0561,3.9753,4.1038,4.1802,0.0,0.0,0.0,0.0,4.4124,0.0,0.0,0.0,4.3977,4.4878,4.3959,4.3497,4.3497,4.3497,4.3497,4.3497,4.3497,4.3883,4.4562,4.5351,4.6159,4.6856,4.6305,4.6526,4.7113,4.7113,4.7627,4.8306,3.7532,0.0,0.0,0.0,0.0,0.0,0.0,4.039,4.0438,3.918,3.9975,4.0418,3.9597,4.007,4.0391,4.0138,4.0358,4.0391,4.0138,4.0417,4.0141,3.9122,3.684,3.5622,3.5622,3.2713,3.048,2.9025,0.0,0.0,0.0,0.0,0.0,3.2347,3.3362,3.5053,0.0,0.0,0.0,3.7056,3.7551,3.712,3.6136,3.6294,3.6207,3.5941,3.5694,3.5924,3.6357,3.6374,3.658,3.6834,3.6915,3.7683,3.8552,3.8763,3.9367,3.987,3.9611,3.9997,4.0443,4.0377,4.1314,4.2284,4.2562,4.3069,4.3497,4.3497,4.3167,4.2635,4.1827,4.1735,0.0,0.0,0.0,0.0,0.0,0.0,4.0818,0.0,0.0,0.0,0.0,0.0,0.0,0.0,0.0,0.0,0.0,0.0,0.0,0.0,0.0,0.0,0.0,0.0,0.0,4.4313,4.3747,4.3497,4.3497,4.3497,4.3497,4.3516,4.3938,4.4342,4.48,4.603,4.6507,4.6489,4.6526,4.6764,4.7113,4.7113,4.7627,4.8306,3.8668,3.9385,0.0,0.0,4.0682,0.0,4.0382,4.1402,4.1528,3.948,3.9665,3.9817,3.9278,3.9767,4.007,4.007,4.007,4.007,4.007,4.007,3.9969,3.9632,3.7466,3.6028,3.5622,3.2713,3.119,0.0,0.0,0.0,0.0,0.0,0.0,0.0,0.0,0.0,0.0,0.0,3.6943,3.7638,3.6433,3.5791,3.5639,3.5808,3.5757,3.5622,3.5622,3.5622,3.565,3.6097,3.6224,3.6224,3.6224,3.7016,3.7944,3.7912,3.8717,3.9546,3.9292,3.9648,3.9985,3.954,4.0579,4.1835,4.1937,4.2772,4.3497,4.3497,4.3002,4.2304,4.1515,4.2396,0.0,0.0,0.0,0.0,0.0,0.0,0.0,0.0,0.0,0.0,3.9735,0.0,0.0,0.0,0.0,0.0,4.0194,0.0,0.0,0.0,0.0,4.3655,4.3736,0.0,4.3589,4.3754,4.3571,4.3497,4.3497,4.3497,4.3497,4.3534,4.4176,4.4654,4.5076,4.6526,4.6746,4.6214,4.6874,4.7113,4.7113,4.7113,4.7627,4.8306,0.0,0.0,0.0,0.0,0.0,0.0,4.2148,4.2193,4.1732,4.0206,4.0629,4.0798,4.0054,4.0054,4.007,4.007,4.007,4.007,4.007,4.007,3.948,3.8137,3.8215,3.7475,3.5656,3.2713,3.119,0.0,0.0,0.0,0.0,0.0,0.0,0.0,0.0,0.0,0.0,3.5728,3.5745,3.5915,3.6661,3.6412,3.569,3.64,3.6231,3.5622,3.5622,3.5622,3.5622,3.565,3.565,3.565,3.565,3.5751,3.6141,3.7499,3.8007,3.8379,3.9631,4.002,4.0187,4.0617,4.1261,4.1937,4.248,4.3087,4.3497,4.3497,4.3424,4.313,4.2341,4.2304,4.2396,0.0,0.0,0.0,0.0,0.0,4.2708,4.1185,0.0,0.0,3.8964,3.8946,0.0,0.0,4.0873,0.0,0.0,0.0,0.0,4.124,0.0,4.4156,4.458,4.3864,4.3864,4.458,4.3846,4.3497,4.3497,4.3497,4.3497,4.3497,4.3571,4.4433,4.5865,4.6746,4.7076,4.7021,4.7095,4.7113,4.7113,4.7113,4.7627,4.8306,0.0,0.0,0.0,0.0,0.0,0.0,0.0,4.3074,4.2957,4.1036,4.0629,4.0425,4.0155,4.007,4.007,4.007,4.007,4.007,4.007,4.007,3.9834,3.9244,3.8546,3.7657,3.6518,3.4201,3.2408,0.0,0.0,0.0,0.0,0.0,0.0,0.0,0.0,3.5199,3.5588,3.5131,3.5199,3.5656,3.6028,3.5943,3.5656,3.596,3.5893,3.5622,3.5622,3.5622,3.5622,3.5622,3.5622,3.5622,3.5622,3.6248,3.711,3.7736,3.8531,3.9242,3.9394,3.9749,4.0069,3.9822,4.0774,4.1853,4.2121,4.2865,4.3497,4.3497,4.3497,4.3112,4.1827,4.2378,4.2855,0.0,0.0,0.0,0.0,0.0,0.0,4.124,0.0,4.0139,3.9478,3.9423,0.0,0.0,0.0,0.0,0.0,0.0,0.0,4.1846,0.0,4.3778,4.3975,4.3644,4.3644,4.3975,4.3644,4.3497,4.3497,4.3497,4.403,4.4966,4.5461,4.6305,4.737,4.77,4.7829,4.7829,4.7829,4.7829,4.7829,4.7829,4.8031,4.8306,4.0781,0.0,4.0882,0.0,4.2669,4.2981,4.2981,4.3673,4.3605,4.1971,4.0765,4.007,4.007,4.007,4.007,4.007,4.007,4.007,4.007,4.007,3.9986,3.9649,3.8662,0.0,3.6671,3.5047,3.3525,3.2171,3.3583,0.0,0.0,0.0,0.0,0.0,3.4827,3.5115,3.5588,3.5047,3.5131,3.5622,3.5622,3.5622,3.5622,3.5622,3.5622,3.5622,3.5622,3.5622,3.5622,3.5622,3.5774,3.5926,3.569,3.6671,3.7905,3.7905,3.8785,3.9698,3.9394,3.9681,3.9952,3.9445,4.0556,4.181,4.181,4.2678,4.3497,4.3497,4.3497,4.3075,4.1717,4.2561,4.3222,4.2433,0.0,0.0,0.0,4.28,0.0,4.1203,4.0396,3.9808,3.957,3.9551,0.0,0.0,0.0,0.0,0.0,0.0,0.0,0.0,0.0,0.0,0.0,4.3497,4.3497,4.3497,4.3497,4.3497,4.3497,4.3736,4.4599,4.5938,4.6764,4.7443,4.7976,4.8214,4.8306,4.8306,4.8306,4.8306,4.8306,4.8306,4.8306,4.8306,4.0087,4.0932,4.1715,4.2234,4.3569,4.4553,4.4553,4.3731,4.3117,4.3095,4.1341,4.007,4.007,4.007,4.007,4.007,4.007,4.007,4.007,4.007,3.9649,0.0,0.0,3.7644,3.5673,3.4699,3.4293,3.4455,0.0,0.0,3.2364,0.0,3.4218,3.5605,3.5605,3.5605,3.5622,3.5605,3.5605,3.5622,3.5622,3.5622,3.5622,3.5622,3.5622,3.5622,3.5622,3.5622,3.5622,3.5622,3.6129,3.6637,3.5859,3.6671,3.7905,3.7905,3.843,3.9157,3.9868,4.007,4.007,4.007,4.0938,4.181,4.181,4.2678,4.3497,4.3497,4.3497,4.324,4.2433,4.2947,4.3222,4.2433,0.0,0.0,0.0,0.0,0.0,4.1203,4.0396,3.9588,3.8799,3.8707,0.0,0.0,0.0,0.0,0.0,0.0,0.0,4.1148,4.2671,0.0,4.3497,4.3497,4.3497,4.3497,4.3497,4.3497,4.3516,4.4323,4.5131,4.5938,4.6764,4.7131,4.7205,4.7976,4.8306,4.8306,4.8306,4.8306,4.8306,4.8306,4.8306,4.8306,4.1001,4.1648,4.2447,4.3647,4.4277,4.4587,4.4587,4.4347,4.3617,4.2269,4.2102,4.1612,4.0273,4.007,4.007,0.0,4.007,4.007,0.0,4.007,3.9969,3.9632,3.9614,3.8681,3.6671,3.569,3.4844,3.4296,0.0,0.0,0.0,3.5351,3.5402,3.4878,3.5402,3.5977,3.6598,3.6451,3.6886,3.756,3.6768,3.6417,3.6349,3.5825,3.5622,3.5622,3.5622,3.5622,3.5622,3.5622,3.6129,3.6738,3.6485,3.7449,3.865,3.865,3.9157,3.9783,4.002,4.007,4.007,4.007,4.0625,4.1296,4.1725,4.2678,4.3497,4.3497,4.3497,4.3406,4.3167,4.3314,4.3406,4.3149,4.3314,0.0,0.0,0.0,4.1185,4.0377,3.957,3.8982,3.8726,3.9203,0.0,0.0,0.0,0.0,0.0,0.0,0.0,0.0,4.3222,0.0,4.3497,4.3497,4.3773,4.4323,4.4323,4.4617,4.5149,4.5975,4.6489,4.6764,4.759,4.7921,4.7957,4.8196,4.8306,4.8306,4.8306,4.8306,4.8306,4.8306,4.8306,4.8306,4.1614,4.1648,4.2159,4.4219,4.4587,4.4587,4.4587,4.4587,4.4147,4.2871,4.2306,4.1477,4.0256,4.007,0.0,4.007,4.007,4.007,4.007,4.007,4.007,4.007,3.9732,3.8937,3.7686,3.6291,0.0,3.5179,3.4577,3.4583,3.5199,3.569,3.5723,3.5351,3.5537,3.618,3.711,3.6874,3.7259,3.7963,3.7123,3.6603,3.6282,3.5808,3.5622,3.5622,3.5622,3.5622,3.5622,3.5622,3.6332,3.7195,3.7195,3.821,3.9343,3.9073,3.9512,4.007,4.007,4.007,4.007,4.007,4.048,4.1133,4.1937,4.2828,4.3497,4.3497,4.3497,4.3497,4.3497,4.3497,4.3497,4.3497,4.3497,4.3222,4.2415,0.0,0.0,0.0,0.0,0.0,0.0,3.9882,4.0561,0.0,0.0,0.0,0.0,0.0,0.0,4.3057,4.3332,0.0,4.3956,4.3956,4.4342,4.5149,4.5149,4.5571,4.6379,4.6874,4.7278,4.759,4.8086,4.8306,4.8306,4.8306,4.8306,4.8306,4.8306,4.8306,4.8306,4.8306,4.8306,4.8306,4.1999,4.1271,4.1271,0.0,4.4587,0.0,4.4587,4.4587,4.4502,4.4299,4.1999,4.0307,4.0104,4.007,4.007,4.007,0.0,0.0,0.0,4.007,4.007,4.007,3.9191,3.87,3.87,3.6885,3.6194,3.6705,3.5294,3.4556,3.4573,3.4573,3.5368,3.6755,3.6028,3.6224,3.7141,3.6945,3.6988,3.7136,3.6903,3.6349,3.569,3.5639,3.5622,3.5622,3.5622,3.5656,3.569,3.569,3.6688,3.7922,3.7973,3.892,3.9884,3.9242,3.9546,4.007,4.007,4.007,4.007,4.007,4.048,4.1223,4.2382,4.305,4.3463,4.3479,4.3497,4.3497,4.3497,4.3497,4.3497,4.3497,4.3442,4.313,4.2323,0.0,0.0,0.0,0.0,0.0,0.0,4.0708,4.1185,0.0,0.0,0.0,0.0,0.0,4.324,4.2488,4.3185,4.3975,4.4782,4.4782,4.5186,4.5975,4.603,4.6471,4.7205,4.7205,4.7609,4.8306,4.8306,4.8306,4.8306,4.8306,4.8306,4.8306,4.8306,4.8306,4.8306,4.8306,4.8306,4.8306,0.0,0.0,4.3741,4.4451,4.4587,4.4587,4.4587,4.4587,4.3741,4.1441,4.2523,4.2642,4.0324,4.007,4.007,4.007,4.007,4.007,4.007,4.007,4.007,4.007,3.9851,3.9732,3.9732,3.9287,3.7997,3.5893,3.5518,3.5331,3.5351,3.5351,3.5859,3.6772,3.6586,3.6975,3.7706,3.7669,3.7669,3.7635,3.7026,3.6671,3.6434,3.5842,3.5622,3.5622,3.5622,3.5994,3.6502,3.6502,3.7127,3.8007,3.8565,3.8971,3.9326,3.9715,3.9935,4.007,4.007,4.007,4.007,4.007,4.048,4.1087,4.1835,4.2462,4.3014,4.341,4.3497,4.3497,4.3497,4.3497,4.3497,4.3497,4.2983,4.2304,4.1515,4.124,0.0,0.0,4.0451,4.0836,4.0836,4.1552,4.2029,0.0,0.0,0.0,0.0,4.3975,4.4342,4.414,4.4323,4.48,4.5608,4.5626,4.603,4.6838,4.7443,4.7829,4.8031,4.8031,4.8122,4.8306,4.8306,4.8306,4.8306,4.8306,4.8306,4.8306,4.8306,4.8306,4.8306,4.8306,4.8306,4.8306,4.1076,4.3064,4.4587,4.4587,4.4587,4.4587,4.4587,4.4587,4.3995,4.2354,4.3555,4.3436,4.0409,4.007,4.007,4.007,4.007,4.007,4.007,4.007,4.007,4.007,4.007,4.007,4.007,4.0102,3.8628,3.5605,3.5599,3.561,3.5622,3.5622,3.6028,3.6755,3.6417,3.6874,3.7872,3.7152,3.705,3.7347,3.6941,3.6772,3.6738,3.6315,3.6366,3.6671,3.6671,3.6941,3.7297,3.7297,3.7567,3.8041,3.8768,3.8988,3.914,3.9868,4.007,4.007,4.007,4.007,4.007,4.007,4.048,4.0995,4.1313,4.208,4.2788,4.305,4.3339,4.3497,4.3497,4.3497,4.3497,4.3497,4.313,4.2561,4.1772,4.1662,0.0,4.0543,4.1167,4.1662,4.1662,4.2378,4.2837,4.2837,4.324,0.0,4.403,4.447,4.4709,4.4709,4.5057,4.5645,4.6452,4.6819,4.7223,4.7664,4.8104,4.8306,4.8306,4.8306,4.8306,4.8306,4.8306,4.8306,4.8306,4.8306,4.8306,4.8306,4.8306,4.8306,4.8306,4.8306,4.8306,4.8306,3.9949,4.2505,4.4587,4.4587,4.4587,4.4587,4.4587,4.4587,4.4587,4.4587,4.4181,4.2929,4.0358,4.007,4.007,4.007,4.007,4.007,4.007,4.007,4.007,4.007,4.007,3.9969,3.9749,3.9816,3.8481,3.5614,3.5599,3.5622,3.5622,3.5622,3.6028,3.6755,3.6113,3.6535,3.7669,3.6397,3.6127,3.6603,3.6603,3.6603,3.6603,3.6603,3.7009,3.7567,3.7567,3.7702,3.7905,3.7905,3.8058,3.8345,3.8954,3.9157,3.9276,3.9901,4.007,4.007,4.007,4.007,4.007,4.007,4.0449,4.0827,4.0856,4.1707,4.248,4.2655,4.305,4.341,4.3497,4.3497,4.3497,4.3497,4.3387,4.3075,4.2396,0.0,4.2047,4.1368,4.1992,4.2488,4.2488,4.3094,4.3534,4.3663,4.3681,4.403,4.4837,4.5002,4.5076,4.5076,4.5847,4.6709,4.7664,4.8343,4.8691,4.8691,4.8545,4.8508,4.8489,4.8361,4.8306,4.8306,4.8306,4.8306,4.8306,4.8306,4.8306,4.8306,4.8306,4.8306,4.8306,4.8159,4.8214,4.8288,3.9512,4.2275,4.4587,4.4587,4.4587,4.4587,4.4587,4.4587,4.4587,4.4587,4.2354,4.0595,4.0121,4.007,4.007,4.007,4.007,4.007,4.007,4.007,4.007,4.007,4.007,3.9512,3.8278,3.8618,3.775,3.5611,3.5594,3.5622,3.5622,3.5622,3.6028,3.6772,3.6835,3.6903,3.6958,3.692,3.6434,3.5808,3.5808,3.5808,3.5808,3.5808,3.5876,3.5977,3.5977,3.6806,3.7905,3.7905,3.8717,3.9766,3.9868,3.9918,3.9935,4.0054,4.007,4.007,4.007,4.007,4.007,4.007,4.0171,4.0319,4.078,4.1041,4.149,4.248,4.2788,4.2976,4.341,4.3497,4.3497,4.3497,4.2928,4.2433,4.2323,0.0,4.2249,4.2139,4.2818,4.3296,4.3296,4.3424,4.3773,4.447,4.4525,4.4856,4.5663,4.6379,4.6746,4.6746,4.7517,4.8673,5.0215,5.0362,5.0417,5.0398,4.9719,4.9389,4.9352,4.8636,4.8306,4.8306,4.8306,4.8306,4.8306,4.8306,4.8306,4.8306,4.8306,4.8306,4.8233,4.7553,4.7737,4.8214,4.1804,4.3486,4.4587,4.4587,4.4587,4.4587,4.4587,4.4587,4.4587,4.4587,4.3369,4.2506,4.2506,4.2506,4.1847,4.0223,4.007,4.007,4.007,4.007,4.007,4.007,4.007,3.9005,3.6721,3.7403,3.7068,3.5576,3.6033,3.6028,3.5622,3.6045,3.6214,3.6163,3.6231,3.6214,3.6163,3.6231,3.6011,3.5622,3.5622,3.5876,3.6282,3.6705,3.7094,3.7483,3.7872,3.8227,3.8548,3.8937,3.9005,3.9039,3.9834,3.9817,3.958,3.9969,4.007,4.007,4.007,4.007,4.007,4.007,4.007,4.0154,4.0417,4.0703,4.1041,4.1621,4.2262,4.2788,4.3014,4.3304,4.3497,4.3497,4.3185,0.0,0.0,4.2947,4.2947,4.2947,4.3259,4.3663,4.4103,4.4158,4.4488,4.5296,4.5351,4.57,4.6507,4.6911,4.7517,4.8416,4.8802,4.937,5.0141,5.0582,5.0802,5.0802,5.0417,5.0013,4.9572,4.9169,4.8746,4.8306,4.8306,4.8306,4.8306,4.8306,4.8049,4.7664,4.7664,4.7664,4.7572,4.6764,4.7241,4.8196,4.4064,4.4587,4.4807,4.5483,4.5602,4.5602,4.5602,4.5602,4.5365,4.4671,4.4587,4.4587,4.4587,4.3944,4.2608,4.0273,4.007,4.007,4.007,4.007,4.007,4.007,4.007,3.9005,3.6705,3.6941,3.6844,3.6283,3.6624,3.6569,3.6163,3.6586,3.6468,3.5876,3.5695,3.5712,3.5876,3.569,3.5825,3.6113,3.5757,3.6197,3.7094,3.7483,3.8108,3.8819,3.9377,3.9326,3.9089,3.9631,3.9191,3.8616,3.9732,3.9698,3.936,3.9918,4.007,4.007,4.007,4.007,4.007,4.007,4.0206,4.0341,4.0341,4.0673,4.106,4.1358,4.2157,4.2843,4.3177,4.3543,4.3773,4.3773,0.0,0.0,0.0,4.3644,4.3773,4.3773,4.3938,4.4287,4.4929,4.4984,4.5314,4.6122,4.6177,4.6617,4.7645,4.7498,4.8067,4.9536,4.9939,5.0233,5.0435,5.1041,5.1371,5.1353,5.0986,5.0472,4.9848,4.9462,4.893,4.8306,4.8306,4.8306,4.8306,4.8306,4.7957,4.7388,4.7388,4.7388,4.7297,4.6489,4.7076,4.8196,4.457,4.4587,4.5449,4.8206,4.868,4.868,4.868,4.868,4.7682,4.4942,4.4587,4.4587,4.4587,4.2083,4.0324,4.0104,4.007,4.007,4.007,4.007,4.007,4.007,4.007,3.9969,3.9749,3.8007,3.7513,3.8387,3.731,3.711,3.7736,3.7077,3.6755,3.6671,3.5929,3.598,3.6637,3.5926,3.6434,3.7618,3.6197,3.6502,3.7753,3.711,3.733,3.799,3.8041,3.8464,3.9005,3.9056,3.9445,3.9935,4.0054,4.0037,4.0003,4.0054,4.007,4.007,4.007,4.007,4.007,4.007,4.0595,4.1119,4.1119,4.1171,4.1546,4.2783,4.3026,4.3344,4.4574,4.4727,4.4617,4.4617,0.0,0.0,4.3497,4.414,4.4617,4.4617,4.5278,4.5755,4.581,4.581,4.6159,4.6966,4.7021,4.7719,4.9315,4.8655,4.8636,4.9554,5.1041,5.2179,5.2931,5.3004,5.3023,5.3023,5.1518,5.0765,5.0655,4.9095,4.8361,4.8306,4.8306,4.8306,4.8306,4.8306,4.8269,4.8214,4.8214,4.8214,4.8122,4.7315,4.7572,4.8196,4.4179,4.4587,4.5517,4.8494,4.7479,4.6887,4.8714,4.7445,4.5855,4.4722,4.4587,4.4587,4.4587,4.188,4.007,4.007,4.007,4.007,4.007,4.007,4.007,4.007,4.007,4.007,4.007,3.9326,3.8817,3.8574,3.8292,3.8058,3.7905,3.8075,3.7722,3.6936,3.6011,3.6142,3.705,3.7976,3.8197,3.7855,3.728,3.7381,3.7922,3.8091,3.8328,3.8633,3.9089,3.914,3.9056,3.9512,3.9546,3.9478,3.9935,4.007,4.007,4.007,4.007,4.007,4.007,4.007,4.0189,4.0663,4.0984,4.1322,4.1779,4.188,4.2001,4.2517,4.2901,4.329,4.3803,4.3711,4.3714,4.4217,0.0,4.3922,4.4356,4.504,4.5443,4.5443,4.5718,4.6104,4.6617,4.6654,4.6985,4.7792,4.8343,4.893,4.9554,5.0215,5.0747,5.1059,5.216,5.2656,5.2454,5.2968,5.3206,5.3206,5.2582,5.1775,5.0784,5.0141,4.9279,4.8306,4.8306,4.8306,4.8306,4.8306,4.8012,4.7572,4.7572,4.7572,4.748,4.6654,4.7186,4.8196,4.3931,4.3739,4.3591,4.5619,4.4998,4.4591,4.5799,4.4982,4.4311,4.4558,4.4587,4.4587,4.4587,4.2726,4.1102,4.0155,4.007,4.007,4.007,3.9209,3.9102,4.007,4.007,4.007,4.007,4.007,3.9748,3.9052,3.902,3.8853,3.8599,3.887,3.85,3.7545,3.7163,3.7129,3.7477,3.9344,3.9532,3.8548,3.8091,3.8176,3.8616,3.8886,3.914,3.9394,3.9901,3.9749,3.9411,3.9918,3.9749,3.9411,3.9918,4.007,4.007,4.007,4.007,4.007,4.007,4.007,4.0206,4.073,4.1204,4.1627,4.188,4.2117,4.2354,4.2591,4.3117,4.3675,4.3867,4.3757,4.3801,4.4286,4.4282,4.4407,4.4949,4.5729,4.6287,4.6287,4.6507,4.6874,4.7425,4.7737,4.8122,4.8673,4.9499,4.9976,4.9976,5.1499,5.2252,5.1995,5.2784,5.2821,5.1995,5.2803,5.3206,5.3206,5.2692,5.1885,5.0784,5.0251,4.9389,4.8306,4.8306,4.8306,4.8306,4.8306,4.7976,4.7498,4.7498,4.7498,4.7425,4.6856,4.7352,4.8233,4.3931,4.1804,3.9424,3.9424,4.1579,4.2417,3.9828,4.1624,4.3611,4.4507,4.4587,4.457,4.457,4.457,4.3369,4.0375,4.0121,4.0155,4.007,3.7219,3.689,3.9969,4.007,4.007,4.007,4.007,4.007,4.007,3.936,3.9377,4.0054,3.9343,3.8837,3.8636,3.9627,3.9306,3.8001,3.9467,4.0112,3.9952,3.8514,3.8785,4.0003,3.9276,3.9445,4.007,4.007,4.007,4.007,4.007,4.007,4.007,4.007,4.007,4.007,4.007,4.007,4.007,4.007,4.0087,4.0104,4.0104,4.1204,4.21,4.139,4.1779,4.2523,4.3267,4.394,4.4644,4.5373,4.5316,4.5198,4.5198,4.5086,4.498,4.4998,4.6221,4.7094,4.7131,4.7847,4.8324,4.8324,4.9095,4.9591,4.9591,5.0343,5.082,5.082,5.2344,5.2839,5.2013,5.2784,5.2821,5.2013,5.2803,5.3206,5.317,5.1573,5.0802,5.0729,4.9077,4.8324,4.8306,4.8306,4.8306,4.8306,4.8306,4.8306,4.8306,4.8306,4.8306,4.8306,4.8306,4.8306,4.8306,4.4273,4.1804,3.9424,3.9424,4.0068,4.0322,3.9544,4.0083,4.1566,4.4239,4.4587,4.368,4.1229,4.0961,4.1582,4.312,4.3234,4.2337,4.0223,3.7219,3.689,3.9969,4.007,4.007,4.007,4.007,4.007,4.007,3.9868,3.9868,4.0054,3.9343,3.9225,3.9665,3.9982,3.9865,3.9479,3.99,4.0086,4.0037,3.9597,3.9698,4.0054,3.9834,3.9884,4.007,4.007,4.007,4.007,4.007,4.007,4.007,4.007,4.007,4.007,4.007,4.007,4.007,4.007,4.0849,4.1627,4.1627,4.1965,4.2371,4.2692,4.3352,4.3809,4.3487,4.399,4.4596,4.4818,4.4365,4.4094,4.4713,4.5014,4.5392,4.5899,4.7656,4.8618,4.8012,4.9205,4.9829,4.926,4.9958,5.0435,5.0435,5.1187,5.1885,5.2454,5.2949,5.3096,5.2858,5.3078,5.3096,5.2839,5.2527,5.2068,5.1518,5.1041,5.0508,4.9921,4.9426,4.8875,4.8306,4.8306,4.8306,4.8306,4.8306,4.8306,4.8306,4.8306,4.8306,4.8306,4.8306,4.8306,4.8306,4.2462,4.0842,3.9424,3.9424,3.9424,3.9424,3.9424,3.9424,4.013,4.2252,4.2504,4.1739,3.961,3.9424,4.0774,4.431,4.3487,4.1536,3.8472,3.6538,3.6305,3.8189,3.8302,3.887,4.007,4.007,4.007,4.007,4.007,4.007,4.007,3.9631,3.9378,3.9244,3.9816,3.9445,3.8405,3.9614,3.9868,3.9563,3.9935,4.007,4.007,4.007,4.007,4.007,4.007,4.007,4.007,4.007,4.007,4.007,4.007,4.007,4.007,4.007,4.007,4.007,4.007,4.073,4.1559,4.2134,4.2523,4.2625,4.2202,4.3149,4.3893,4.3132,4.3826,4.4587,4.4587,4.4198,4.4028,4.4502,4.5248,4.5882,4.636,4.8236,4.926,4.8398,4.9499,5.0123,4.9627,5.0325,5.1059,5.1701,5.1903,5.2344,5.317,5.3206,5.3206,5.3206,5.3206,5.3059,5.2729,5.1922,5.1444,5.1261,5.0949,5.038,4.9572,4.9224,4.8802,4.8306,4.8306,4.8306,4.8306,4.8306,4.8306,4.8306,4.8306,4.8306,4.8306,4.8306,4.8306,4.8306,3.9424,3.9424,3.9424,3.9424,3.9424,3.9424,3.9424,3.9424,3.9424,3.9424,3.9424,3.9424,3.9424,3.9424,4.0706,4.3873,4.1637,3.8816,3.5668,3.5504,3.5504,3.5504,3.5504,3.6829,3.9627,3.9969,4.007,4.007,4.007,4.007,4.007,4.0053,3.9328,3.812,3.9396,3.8472,3.6174,3.8857,3.9462,3.8788,3.9665,4.002,4.007,4.007,4.007,4.007,4.007,4.007,4.007,4.007,4.007,4.007,4.007,4.007,4.007,4.007,4.007,4.0087,4.0155,4.0223,4.0595,4.1948,4.2912,4.2963,4.0865,4.2016,4.3301,4.254,4.3555,4.4587,4.4587,4.4587,4.4587,4.4587,4.5597,4.6383,4.6383,4.8236,4.9297,4.8508,4.9242,4.9774,4.9701,5.0435,5.1555,5.3096,5.2527,5.2435,5.317,5.3206,5.3206,5.3206,5.3206,5.2858,5.2105,5.1371,5.1316,5.1867,5.1004,5.0233,4.9554,4.8691,4.8306,4.8306,4.8306,4.8306,4.8306,4.8306,4.8306,4.8306,4.8306,4.8306,4.8306,4.8306,4.8306,4.8306,3.9424,3.9424,3.9424,3.9424,3.9424,3.9424,3.9424,3.9424,3.9424,3.9424,3.9424,3.9424,3.9424,3.9424,3.9666,4.0447,4.0246,3.8816,3.5668,3.5504,3.5504,3.5504,3.5504,3.5782,3.6477,3.887,4.007,4.007,4.007,4.007,4.007,3.9494,3.936,3.9598,3.9108,3.9006,3.9126,3.8974,3.9243,3.9749,3.9377,3.9563,4.007,4.007,4.007,4.007,4.007,4.007,4.007,4.007,4.007,4.007,4.007,4.007,4.007,4.007,4.007,4.0206,4.0798,4.1373,4.188,4.2202,4.3318,4.4045,4.2946,4.3538,4.4113,4.3335,4.3927,4.4587,4.4587,4.4587,4.4587,4.4587,4.5597,4.6383,4.6383,4.8236,4.9517,4.9334,5.0582,5.1224,5.06,5.1261,5.2142,5.3133,5.3041,5.3023,5.3206,5.3206,5.3206,5.3206,5.3206,5.3133,5.2949,5.2784,5.2142,5.1041,4.9554,4.9114,4.9554,4.8691,4.8306,4.8306,4.8306,4.8306,4.8306,4.8306,4.8306,4.8306,4.8306,4.8306,4.8306,4.8306,4.8306,4.8306,3.9424,3.9424,3.9424,3.9424,3.9424,3.9424,3.9424,3.9424,3.9424,3.9424,3.9424,3.9424,3.9424,3.9424,3.9424,3.9424,3.8513,3.7219,3.5619,3.5504,3.5504,3.5504,3.6935,3.7674,3.7674,3.9262,4.007,4.007,4.007,4.007,4.007,3.9714,3.9731,4.0054,3.9546,3.9596,4.0051,3.9157,3.8871,3.9039,3.9005,3.9225,3.9597,3.9952,4.007,4.007,4.007,4.007,4.007,4.007,4.007,4.007,4.007,4.007,4.007,4.007,4.007,4.024,4.1001,4.1474,4.1931,4.2658,4.3436,4.3826,4.3064,4.3758,4.435,4.3589,4.4045,4.4587,4.4587,4.4587,4.4587,4.4587,4.5372,4.6046,4.6383,4.8307,4.951,4.9019,5.0765,5.183,5.1408,5.1738,5.2325,5.3151,5.2839,5.2803,5.3188,5.3206,5.3206,5.3206,5.3206,5.3206,5.3206,5.2821,5.2399,5.194,5.0288,4.9315,4.8948,4.8508,4.8306,4.8306,4.8306,4.8306,4.8343,4.8746,4.8673,4.8343,4.8765,4.8673,4.8306,4.8306,4.8563,4.8912,3.9424,3.9424,3.9424,3.9424,3.9424,3.9424,3.9424,3.9424,3.9424,3.9424,3.9424,3.9424,3.9424,3.9424,3.9424,3.9424,3.7434,3.6178,3.6178,3.5759,3.5733,3.6243,3.8761,4.007,4.007,4.007,4.007,4.007,4.007,4.007,4.007,4.007,4.007,4.007,4.007,4.0103,4.0082,3.9323,3.8633,3.8094,3.8749,3.9071,3.9242,3.9851,4.007,4.007,4.007,4.007,4.007,4.007,4.007,4.007,4.007,4.007,4.007,4.007,4.007,4.0273,4.1153,4.139,4.1745,4.3234,4.3623,4.3453,4.2828,4.3656,4.4401,4.3741,4.413,4.4587,4.4587,4.4688,4.4773,4.4773,4.538,4.6064,4.6724,4.8522,4.9554,4.898,5.0747,5.205,5.2179,5.2068,5.2325,5.3151,5.2582,5.2509,5.317,5.3206,5.3206,5.3206,5.3206,5.3206,5.3206,5.2546,5.2472,5.2986,5.1527,5.0171,4.893,4.8655,4.8469,4.8315,4.8187,4.8206,4.837,4.8839,4.8828,4.8581,4.9053,4.8852,4.8324,4.8471,4.8967,4.9591,3.9424,3.9424,3.9424,3.9424,3.9424,3.9424,3.9424,3.9424,3.9424,3.9424,3.9424,3.9424,3.9424,3.9424,3.9424,3.9424,3.9095,3.8886,3.8886,3.6761,3.6707,3.9332,3.9901,4.007,4.007,4.007,4.007,4.007,4.007,4.007,4.007,4.007,4.007,4.007,4.007,4.0121,4.0036,3.934,3.8821,3.8555,3.8891,3.9367,3.9935,4.0037,4.007,4.007,4.007,4.007,4.007,4.007,4.007,4.007,4.007,4.007,4.007,4.007,4.007,4.0375,4.1779,4.2151,4.2506,4.4028,4.4418,4.4401,4.4299,4.4434,4.4553,4.4451,4.4502,4.4587,4.4587,4.5111,4.5551,4.5551,4.6614,4.7665,4.8349,4.9173,5.017,5.1385,5.1793,5.227,5.2968,5.2417,5.2325,5.3151,5.3115,5.3096,5.3206,5.3206,5.3206,5.3206,5.3206,5.3206,5.3206,5.3096,5.2747,5.2142,5.1282,5.1108,5.1444,5.005,4.9113,4.8525,4.782,4.7928,4.8482,4.7303,4.7847,4.9294,4.8156,4.7947,4.8398,4.9132,4.9481,4.9591,3.9424,3.9424,3.9424,3.9424,3.9424,3.9424,3.9424,3.9424,3.9424,3.9424,3.9424,3.8856,3.7389,3.8542,3.9424,3.9424,3.9424,3.9424,3.9424,3.8332,3.7638,3.7519,3.9156,4.007,4.007,4.007,4.007,4.007,4.007,4.007,4.007,4.007,4.007,4.007,4.007,4.007,4.007,3.975,3.9243,3.8619,3.874,3.8773,3.8887,3.975,4.007,4.007,4.007,4.007,4.007,4.007,4.007,4.007,4.007,4.007,4.007,4.007,4.0375,4.0933,4.1999,4.2591,4.32,4.4299,4.4587,4.4587,4.4587,4.4908,4.5213,4.5213,4.5213,4.5331,4.5737,4.5754,4.5838,4.6244,4.6822,4.743,4.8067,4.8817,4.9937,5.181,5.2005,5.2307,5.3133,5.2894,5.2821,5.3188,5.3206,5.3206,5.3206,5.3206,5.3206,5.3206,5.3206,5.3206,5.3206,5.2769,5.2417,5.2072,5.1335,5.1138,5.1298,5.0162,4.9245,4.8576,4.8215,4.7805,4.7337,4.721,4.738,4.7795,4.7644,4.7651,4.7793,4.7825,4.8573,4.9646]},{"header":{"parameterUnit":"m.s-1","parameterCategory":1,"la1":30.6,"la2":28.766,"lo1":-90.7593,"lo2":-88.6598,"dy":0.0162,"dx":0.0183,"nx":116,"ny":114,"refTime":"2023-11-04T18:00:00:Z","depth":0,"parameterNumber":3,"parameterNumberName":"V-component_of_WINDS"},"data":[0.0,0.0,0.0,0.0,0.0,0.0,0.0,0.0,0.0,0.0,0.0,0.0,0.0,0.0,0.0,0.0,0.0,0.0,0.0,0.0,0.0,0.0,0.0,0.0,0.0,0.0,0.0,0.0,0.0,0.0,0.0,0.0,0.0,0.0,0.0,0.0,0.0,0.0,0.0,0.0,0.0,0.0,0.0,0.0,0.0,0.0,0.0,0.0,0.0,0.0,0.0,0.0,0.0,0.0,0.0,0.0,0.0,0.0,0.0,0.0,0.0,0.0,0.0,0.0,0.0,0.0,0.0,0.0,0.0,0.0,0.0,0.0,0.0,0.0,0.0,0.0,0.0,0.0,0.0,0.0,0.0,0.0,0.0,0.0,0.0,0.0,0.0,0.0,0.0,0.0,0.0,0.0,0.0,0.0,0.0,0.0,0.0,0.0,0.0,0.0,0.0,0.0,0.0,0.0,0.0,0.0,0.0,0.0,0.0,0.0,0.0,0.0,0.0,0.0,0.0,0.0,0.0,0.0,0.0,0.0,0.0,0.0,0.0,0.0,0.0,0.0,0.0,0.0,0.0,0.0,0.0,0.0,0.0,0.0,0.0,0.0,0.0,0.0,0.0,0.0,0.0,0.0,0.0,0.0,0.0,0.0,0.0,0.0,0.0,0.0,0.0,0.0,0.0,0.0,0.0,0.0,0.0,0.0,0.0,0.0,0.0,0.0,0.0,0.0,0.0,0.0,0.0,0.0,0.0,0.0,0.0,0.0,0.0,0.0,0.0,0.0,0.0,0.0,0.0,0.0,0.0,0.0,0.0,0.0,0.0,0.0,0.0,0.0,0.0,0.0,0.0,0.0,0.0,0.0,0.0,0.0,0.0,0.0,0.0,0.0,0.0,0.0,0.0,0.0,0.0,0.0,0.0,0.0,0.0,0.0,0.0,0.0,0.0,0.0,0.0,0.0,0.0,0.0,0.0,0.0,0.0,0.0,0.0,0.0,0.0,0.0,0.0,0.0,0.0,0.0,0.0,0.0,0.0,0.0,0.0,0.0,0.0,0.0,0.0,0.0,0.0,0.0,0.0,0.0,0.0,0.0,0.0,0.0,0.0,0.0,0.0,0.0,0.0,0.0,0.0,0.0,0.0,0.0,0.0,0.0,0.0,0.0,0.0,0.0,0.0,0.0,0.0,0.0,0.0,0.0,0.0,0.0,0.0,0.0,0.0,0.0,0.0,0.0,0.0,0.0,0.0,0.0,0.0,0.0,0.0,0.0,0.0,0.0,0.0,0.0,0.0,0.0,0.0,0.0,0.0,0.0,0.0,0.0,0.0,0.0,0.0,0.0,0.0,0.0,0.0,0.0,0.0,0.0,0.0,0.0,0.0,0.0,0.0,0.0,0.0,0.0,0.0,0.0,0.0,0.0,0.0,0.0,0.0,0.0,0.0,0.0,0.0,0.0,0.0,0.0,0.0,0.0,0.0,0.0,0.0,0.0,0.0,0.0,0.0,0.0,0.0,0.0,0.0,0.0,0.0,0.0,0.0,0.0,0.0,0.0,0.0,0.0,0.0,0.0,0.0,0.0,0.0,0.0,0.0,0.0,0.0,0.0,0.0,0.0,0.0,0.0,0.0,0.0,0.0,0.0,0.0,0.0,0.0,0.0,0.0,0.0,0.0,0.0,0.0,0.0,0.0,0.0,0.0,0.0,0.0,0.0,0.0,0.0,0.0,0.0,0.0,0.0,0.0,0.0,0.0,0.0,0.0,0.0,0.0,0.0,0.0,0.0,0.0,0.0,0.0,0.0,0.0,0.0,0.0,0.0,0.0,0.0,0.0,0.0,0.0,0.0,0.0,0.0,0.0,0.0,0.0,0.0,0.0,0.0,0.0,0.0,0.0,0.0,0.0,0.0,0.0,0.0,0.0,0.0,0.0,0.0,0.0,0.0,0.0,0.0,0.0,0.0,0.0,0.0,0.0,0.0,0.0,0.0,0.0,0.0,0.0,0.0,0.0,0.0,0.0,0.0,0.0,0.0,0.0,0.0,0.0,0.0,0.0,0.0,0.0,0.0,0.0,0.0,0.0,0.0,0.0,0.0,0.0,0.0,0.0,0.0,0.0,0.0,0.0,0.0,0.0,0.0,0.0,0.0,0.0,0.0,0.0,0.0,0.0,0.0,0.0,0.0,0.0,0.0,0.0,0.0,0.0,0.0,0.0,0.0,0.0,0.0,0.0,0.0,0.0,0.0,0.0,0.0,0.0,0.0,0.0,0.0,0.0,0.0,0.0,0.0,0.0,0.0,0.0,0.0,0.0,0.0,0.0,0.0,0.0,0.0,0.0,0.0,0.0,0.0,0.0,0.0,0.0,0.0,0.0,0.0,0.0,0.0,0.0,0.0,0.0,0.0,0.0,0.0,0.0,0.0,0.0,0.0,0.0,0.0,0.0,0.0,0.0,0.0,0.0,0.0,0.0,0.0,0.0,0.0,0.0,0.0,0.0,0.0,0.0,0.0,0.0,0.0,0.0,0.0,0.0,0.0,0.0,0.0,0.0,0.0,0.0,0.0,0.0,0.0,0.0,0.0,0.0,0.0,0.0,0.0,0.0,0.0,0.0,0.0,0.0,0.0,0.0,0.0,0.0,0.0,0.0,0.0,0.0,0.0,0.0,0.0,0.0,0.0,0.0,0.0,0.0,0.0,0.0,0.0,0.0,0.0,0.0,0.0,0.0,0.0,0.0,0.0,0.0,0.0,0.0,0.0,0.0,0.0,0.0,0.0,0.0,0.0,0.0,0.0,0.0,0.0,0.0,0.0,0.0,0.0,0.0,0.0,0.0,0.0,0.0,0.0,0.0,0.0,0.0,0.0,0.0,0.0,0.0,0.0,0.0,0.0,0.0,0.0,0.0,0.0,0.0,0.0,0.0,0.0,0.0,0.0,0.0,0.0,0.0,0.0,0.0,0.0,0.0,0.0,0.0,0.0,0.0,0.0,0.0,0.0,0.0,0.0,0.0,0.0,0.0,0.0,0.0,0.0,0.0,0.0,0.0,0.0,0.0,0.0,0.0,0.0,0.0,0.0,0.0,0.0,0.0,0.0,0.0,0.0,0.0,0.0,0.0,0.0,0.0,0.0,0.0,0.0,0.0,0.0,0.0,0.0,0.0,0.0,0.0,0.0,0.0,0.0,0.0,0.0,0.0,0.0,0.0,0.0,0.0,0.0,0.0,0.0,0.0,0.0,0.0,0.0,0.0,0.0,0.0,0.0,0.0,0.0,0.0,0.0,0.0,0.0,0.0,0.0,0.0,0.0,0.0,0.0,0.0,0.0,0.0,0.0,0.0,0.0,0.0,0.0,0.0,0.0,0.0,0.0,0.0,0.0,0.0,0.0,0.0,0.0,0.0,0.0,0.0,0.0,0.0,0.0,0.0,0.0,0.0,0.0,0.0,0.0,0.0,0.0,0.0,0.0,0.0,0.0,0.0,0.0,0.0,0.0,0.0,0.0,0.0,0.0,0.0,0.0,0.0,0.0,0.0,0.0,0.0,0.0,0.0,0.0,0.0,0.0,0.0,0.0,0.0,0.0,0.0,0.0,0.0,0.0,0.0,0.0,0.0,0.0,0.0,0.0,0.0,0.0,0.0,0.0,0.0,0.0,0.0,0.0,0.0,0.0,0.0,0.0,0.0,0.0,0.0,0.0,0.0,0.0,0.0,0.0,0.0,0.0,0.0,0.0,0.0,0.0,0.0,0.0,0.0,0.0,0.0,0.0,0.0,0.0,0.0,0.0,0.0,0.0,0.0,0.0,0.0,0.0,0.0,0.0,0.0,0.0,0.0,0.0,0.0,0.0,0.0,0.0,0.0,0.0,0.0,0.0,0.0,0.0,0.0,0.0,0.0,0.0,0.0,0.0,0.0,0.0,0.0,0.0,0.0,0.0,0.0,0.0,0.0,0.0,0.0,0.0,0.0,0.0,0.0,0.0,0.0,0.0,0.0,0.0,0.0,0.0,0.0,0.0,0.0,0.0,0.0,0.0,0.0,0.0,0.0,0.0,0.0,0.0,0.0,0.0,0.0,0.0,0.0,0.0,0.0,0.0,0.0,0.0,0.0,0.0,0.0,0.0,0.0,0.0,0.0,0.0,0.0,0.0,0.0,0.0,0.0,0.0,0.0,0.0,0.0,0.0,0.0,0.0,0.0,0.0,0.0,0.0,0.0,0.0,0.0,0.0,0.0,0.0,0.0,0.0,0.0,0.0,0.0,0.0,0.0,0.0,0.0,0.0,0.0,0.0,0.0,0.0,0.0,0.0,0.0,0.0,0.0,0.0,0.0,0.0,0.0,0.0,0.0,0.0,0.0,0.0,0.0,0.0,0.0,0.0,0.0,0.0,0.0,0.0,0.0,0.0,0.0,0.0,0.0,0.0,0.0,0.0,0.0,0.0,0.0,0.0,0.0,0.0,0.0,0.0,0.0,0.0,0.0,0.0,0.0,0.0,0.0,0.0,0.0,0.0,0.0,0.0,0.0,0.0,0.0,0.0,0.0,0.0,0.0,0.0,0.0,0.0,0.0,0.0,0.0,0.0,0.0,0.0,0.0,0.0,0.0,0.0,0.0,0.0,0.0,0.0,0.0,0.0,0.0,0.0,0.0,0.0,0.0,0.0,0.0,0.0,0.0,0.0,0.0,0.0,0.0,0.0,0.0,0.0,0.0,0.0,0.0,0.0,0.0,0.0,0.0,0.0,0.0,0.0,0.0,0.0,0.0,0.0,0.0,0.0,0.0,0.0,0.0,0.0,0.0,0.0,0.0,0.0,0.0,0.0,0.0,0.0,0.0,0.0,0.0,0.0,0.0,0.0,0.0,0.0,0.0,0.0,0.0,0.0,0.0,0.0,0.0,0.0,0.0,0.0,0.0,0.0,0.0,0.0,0.0,0.0,0.0,0.0,0.0,0.0,0.0,0.0,0.0,0.0,0.0,0.0,0.0,0.0,0.0,0.0,0.0,0.0,0.0,0.0,0.0,0.0,0.0,0.0,0.0,0.0,0.0,0.0,0.0,0.0,0.0,0.0,0.0,0.0,0.0,0.0,0.0,0.0,0.0,0.0,0.0,0.0,0.0,0.0,0.0,0.0,0.0,0.0,0.0,0.0,0.0,0.0,0.0,0.0,0.0,0.0,0.0,0.0,0.0,0.0,0.0,0.0,0.0,0.0,0.0,0.0,0.0,0.0,0.0,0.0,0.0,0.0,0.0,0.0,0.0,0.0,0.0,0.0,0.0,0.0,0.0,0.0,0.0,0.0,0.0,0.0,0.0,0.0,0.0,0.0,0.0,0.0,0.0,0.0,0.0,0.0,0.0,0.0,0.0,0.0,0.0,0.0,0.0,0.0,0.0,0.0,0.0,0.0,0.0,0.0,0.0,0.0,0.0,0.0,0.0,0.0,0.0,0.0,0.0,0.0,0.0,0.0,0.0,0.0,0.0,0.0,0.0,0.0,0.0,0.0,0.0,0.0,0.0,0.0,0.0,0.0,0.0,0.0,0.0,0.0,0.0,0.0,0.0,0.0,0.0,0.0,0.0,0.0,0.0,0.0,0.0,0.0,0.0,0.0,0.0,0.0,0.0,0.0,0.0,0.0,0.0,0.0,0.0,0.0,0.0,0.0,0.0,0.0,0.0,0.0,0.0,0.0,0.0,0.0,0.0,0.0,0.0,0.0,0.0,0.0,0.0,0.0,0.0,0.0,0.0,0.0,0.0,0.0,0.0,0.0,0.0,0.0,0.0,0.0,0.0,0.0,0.0,0.0,0.0,0.0,0.0,0.0,0.0,0.0,0.0,0.0,0.0,0.0,0.0,0.0,0.0,0.0,0.0,0.0,0.0,0.0,0.0,0.0,0.0,0.0,0.0,0.0,0.0,0.0,0.0,0.0,0.0,0.0,0.0,0.0,0.0,0.0,0.0,0.0,0.0,0.0,0.0,0.0,0.0,0.0,0.0,0.0,0.0,0.0,0.0,0.0,0.0,0.0,0.0,0.0,0.0,0.0,0.0,0.0,0.0,0.0,0.0,0.0,0.0,0.0,0.0,0.0,0.0,0.0,0.0,0.0,0.0,0.0,0.292,0.0,0.0,0.0,0.0,0.0,0.0,0.0,0.0,0.0,0.0,0.0,0.0,0.0,0.0,0.0,0.0,0.0,0.0,0.0,0.0,0.0,0.0,0.0,0.0,0.0,0.0,0.0,0.0,0.0,0.0,0.0,0.0,0.0,0.0,0.0,0.0,0.0,0.0,0.0,-0.3615,-0.3595,-0.3576,-0.1774,-0.0589,0.0,0.0,0.0,0.0,0.0,0.0,0.0,0.0,0.0,0.0,0.0,0.0,0.0,0.0,0.0,0.0,0.0,0.0,0.0,0.0,0.0,0.0,0.0,0.0,0.0,0.0,0.0,0.0,0.0,0.0,0.0,0.0,0.0,0.0,0.0,0.0,0.0,0.0,0.0,0.0,0.0,0.0,0.0,0.0,0.0,0.0,0.0,0.0,0.0,0.0,0.0,0.0,0.0,0.0,0.0,0.0,0.0,0.0,0.0,0.0,0.0,0.0,0.0,0.0,0.0,0.0,0.0,0.0,0.0,0.0,0.0,0.0,0.3747,0.0,0.0,0.0,0.0,0.0,0.0,0.0,0.0,0.0,0.0,0.0,0.0,0.0,0.0,0.0,0.0,0.0,0.0,0.0,0.0,0.0,0.0,0.0,0.0,0.0,0.0,0.0,0.0,0.0,0.0,0.0,0.0,0.0,0.0,0.0,0.0,0.0,-0.3578,-0.3601,-0.3577,-0.3553,-0.1148,0.0,0.0,0.0,0.0,0.0,0.0,0.0,0.0,0.0,0.0,0.0,0.0,0.0,0.0,0.0,0.0,0.0,0.0,0.0,0.0,0.0,0.0,0.0,0.0,0.0,0.0,0.0,0.0,0.0,0.0,0.0,0.0,0.0,0.0,0.0,0.0,0.0,0.0,0.0,0.0,0.0,0.0,0.0,0.0,0.0,0.0,0.0,0.0,0.0,0.0,0.0,0.0,0.0,0.0,0.0,0.0,0.0,0.0,0.0,0.0,0.0,0.0,0.0,0.0,0.0,0.0,0.2549,0.3854,0.5164,0.5074,0.4924,0.4724,0.4606,0.4524,0.4477,0.0,0.0,0.0,0.0,0.0,0.0,0.0,0.0,0.0,0.0,0.0,0.0,0.0,0.0,0.0,0.0,0.0,0.0,0.0,0.0,0.0,0.0,0.0,0.0,0.0,0.0,0.0,0.0,0.0,0.0,0.0,0.0,0.0,0.0,-0.3568,-0.3592,-0.3609,-0.3609,-0.3605,-0.3553,-0.1146,0.0,0.0,0.0,0.0,0.0,0.0,0.0,0.0,0.0,0.0,0.0,0.0,0.0,0.0,0.0,0.0,0.0,0.0,0.0,0.0,0.0,0.0,0.0,0.0,0.0,0.0,0.0,0.0,0.0,0.0,0.0,0.0,0.0,0.0,0.0,0.0,0.0,0.0,0.0,0.0,0.0,0.0,0.0,0.0,0.0,0.0,-0.3503,-0.0912,0.0,0.0,0.0,0.0,0.0,0.0,0.0,0.0,0.0,0.0,0.0,0.0,0.0,0.2061,0.2111,0.2241,0.3147,0.4716,0.4781,0.4982,0.5378,0.5047,0.4911,0.4887,0.487,0.0,0.4519,0.4519,0.0,0.0,0.0,0.0,0.0,0.0,0.0,0.0,0.0,0.0,0.0,0.0,0.0,0.0,0.0,0.0,0.0,0.0,0.0,0.0,0.0,0.0,0.0,0.0,0.0,0.0,0.0,0.0,0.0,0.0,0.0,0.0,-0.3697,-0.3658,-0.2851,-0.1334,0.0195,0.0497,-0.0302,0.0755,0.1233,0.1218,0.0353,0.0,0.0,0.0,0.0,0.0,0.0,0.0,0.0,0.0,0.0,0.0,0.0,0.0,0.0,0.0,0.0,0.0,0.0,0.0,0.0,0.0,0.0,0.0,0.0,0.0,0.0,0.0,0.0,0.0,0.0,0.0,0.0,0.0,0.0,0.0,0.0,0.0,0.0,0.0,0.0,0.0,0.0,-0.2978,-0.1481,-0.0156,0.0,0.0,0.0,0.0,0.0,0.0,0.0,0.0,0.0,0.0,0.0,0.3925,0.4244,0.4433,0.4427,0.4432,0.4863,0.5758,0.5477,0.5446,0.5655,0.5447,0.5325,0.5169,0.5169,0.4996,0.4711,0.4626,0.468,0.4809,0.0,0.0,0.0,0.0,0.477,0.4819,0.0,0.0,0.0,0.0,0.0,0.0,0.0,0.0,0.0,0.0,0.0,0.0,0.0,0.0,0.0,-0.2683,0.0,0.0,0.0,0.0,0.0,0.0,0.0,-0.3687,-0.3745,-0.2968,-0.1912,-0.0611,0.284,0.3924,0.2803,0.2803,0.279,0.2743,0.1626,0.0726,0.0,0.0,0.1321,0.3241,0.0,0.0,0.0,0.0,0.0,0.0,0.0,0.0,0.0,0.0,0.0,0.0,0.0,0.0,0.0,0.0,0.0,0.0,0.0,0.0,0.0,0.0,0.0,0.0,0.0,0.0,0.0,0.0,0.0,0.0,0.0,0.0,0.0,0.0,0.0,0.0,0.0,-0.2493,-0.087,-0.0105,0.0,0.0,0.0,0.0,0.0,0.0,0.0,0.0,0.5155,0.5385,0.529,0.5053,0.5467,0.5785,0.587,0.5801,0.5866,0.6069,0.5758,0.5722,0.5861,0.582,0.5681,0.5474,0.5474,0.5348,0.5125,0.4857,0.484,0.4962,0.4847,0.4897,0.5033,0.5033,0.5033,0.5033,0.0,0.0,0.0,0.0,0.0,0.0,0.0,0.0,0.0,0.0,0.0,0.0,0.0,0.0,-0.2686,-0.2696,-0.1089,-0.0047,0.0,0.0,-0.3561,-0.3598,-0.3773,-0.3799,-0.3614,-0.1129,-0.097,-0.342,0.1912,0.4473,0.4392,0.4392,0.4396,0.4402,0.4284,0.2685,0.0,0.0,0.0103,0.0478,0.3202,0.0,0.0,0.0,0.0,0.0,0.0,0.0,0.0,0.0,0.0,0.0,0.0,0.0,0.0,0.0,0.0,0.0,0.0,0.0,0.0,0.0,0.0,0.0,0.0,0.0,0.0,0.0,0.0,0.0,0.0,0.0,0.0,0.0,0.0,0.0,0.0,0.0,0.0,-0.0357,0.0,0.0,0.0,0.0,0.0,0.4845,0.5155,0.5096,0.5111,0.5314,0.5392,0.5404,0.5559,0.5705,0.5986,0.585,0.5932,0.63,0.5932,0.5871,0.6013,0.5867,0.5793,0.5779,0.5779,0.5772,0.5711,0.5142,0.4992,0.5121,0.5111,0.5203,0.5404,0.5404,0.5404,0.5404,0.0,0.0,0.0,0.0,0.0,0.0,0.0,0.0,0.0,0.0,0.0,0.0,0.0,-0.1456,-0.0976,-0.0958,-0.0376,-0.0333,-0.1124,0.0,-0.254,-0.2699,-0.3354,-0.2868,-0.1069,-0.0264,0.071,0.1809,0.375,0.4706,0.4704,0.4704,0.4116,0.3067,0.407,0.3882,0.2791,0.0815,0.0,0.0106,0.1171,0.2108,0.0,0.0,0.0,0.0,0.0,0.0,0.0,0.0,0.0,0.0,0.0,0.0,0.0,0.0,0.0,0.0,0.0,0.0,0.0,0.0,0.0,0.0,0.0,0.0,0.0,0.0,0.0,0.0,0.0,0.0,0.0,0.0,0.0,0.0,0.0,0.0,0.0,-0.304,-0.1154,0.0,0.0,0.2102,0.4037,0.5325,0.5544,0.5598,0.5481,0.5704,0.5765,0.5783,0.5942,0.6115,0.6312,0.6359,0.6386,0.6393,0.6285,0.6261,0.6312,0.6257,0.6183,0.6101,0.6193,0.6125,0.5932,0.5722,0.5606,0.5552,0.5464,0.5515,0.5644,0.5644,0.5705,0.5779,0.0,0.0,0.0,0.0,0.0,0.0,0.0,0.0,0.0,0.0,0.0,-0.1317,-0.0366,-0.0088,0.0,0.0,-0.0725,-0.1544,-0.2352,0.0,-0.2733,-0.2753,-0.2479,-0.1938,-0.1263,0.0616,0.2709,0.4981,0.4911,0.4911,0.4974,0.3762,0.2803,0.2268,0.3841,0.4508,0.4326,0.127,0.0,0.0,0.0,0.1209,0.2792,0.0,0.0,0.0,0.0,0.0,0.0,0.0,0.0,0.0,0.0,0.0,0.0,0.0,0.0,0.0,0.0,0.0,0.0,0.0,0.0,0.0,0.0,0.0,0.0,0.0,0.0,0.0,0.0,0.0,0.0,0.0,0.0,0.0,0.0,0.0,-0.2951,-0.3004,-0.1189,0.0,0.0,0.3464,0.5642,0.5572,0.5708,0.5881,0.5804,0.5965,0.6089,0.6173,0.638,0.6532,0.6624,0.6725,0.6725,0.6624,0.6573,0.6549,0.6549,0.6549,0.6498,0.6413,0.6508,0.6437,0.6254,0.6254,0.6196,0.6081,0.5833,0.5796,0.5891,0.5989,0.6091,0.6173,0.0,0.0,0.0,0.0,0.0,0.0,0.0,0.0,0.0,0.0,-0.0803,0.1547,0.4204,0.1912,0.0095,0.0,-0.2232,-0.3605,-0.3649,-0.4148,-0.4329,-0.3924,-0.1224,-0.1096,-0.4133,0.1697,0.4988,0.5432,0.5211,0.5207,0.5355,0.1789,0.0926,0.2291,0.3799,0.4439,0.4187,0.1241,0.0,0.0,0.0,0.0,0.0,0.0,0.0,0.0,0.0,0.0,0.0,0.0,0.0,0.0,0.0,0.0,0.0,0.0,0.0,0.0,0.0,0.0,0.0,0.0,0.0,0.0,0.0,0.0,0.0,0.0,0.0,0.0,0.0,0.0,0.0,0.0,0.0,0.0,0.154,0.0586,0.0135,0.0,0.0,0.0069,0.0196,0.3872,0.6131,0.5833,0.5906,0.6047,0.6027,0.6196,0.6346,0.6488,0.6783,0.6946,0.6949,0.6949,0.6946,0.6932,0.6783,0.6712,0.6709,0.6709,0.6709,0.6709,0.6712,0.6712,0.6709,0.6709,0.6709,0.6664,0.6224,0.6051,0.6084,0.6373,0.6478,0.6502,0.0,0.0,0.0,0.0,0.0,0.0,0.0,0.0,0.0,0.0,0.0838,0.3652,0.4434,0.3736,0.2399,0.0199,-0.2618,-0.425,-0.4255,0.0,-0.408,-0.3984,-0.121,0.0977,0.2287,0.4088,0.5126,0.539,0.5202,0.5264,0.5564,0.4575,0.3645,0.2838,0.3316,0.2669,0.1183,0.0341,0.0,0.0,0.0,0.0,0.0,0.0,0.0,0.0,0.0,0.0,0.0,0.0,0.0,0.0,0.0,0.0,0.0,0.0,0.0,0.0,0.0,0.0,0.0,0.0,0.0,0.0,0.0,0.0,0.0,0.0,0.0,0.0,0.0,0.0,0.0,0.0,0.0,0.5967,0.495,0.485,0.3616,0.0375,0.0,0.1234,0.4283,0.4435,0.4858,0.6103,0.6252,0.6349,0.6346,0.66,0.681,0.6953,0.7146,0.7302,0.7414,0.7417,0.7302,0.7082,0.7041,0.6966,0.6865,0.6865,0.6865,0.6871,0.6973,0.6959,0.6865,0.6865,0.6865,0.6844,0.6607,0.6515,0.6525,0.6607,0.6637,0.6661,0.0,0.0,0.0,0.0,0.0,0.0,0.0,0.0,0.0,0.0,0.2049,0.375,0.4311,0.4332,0.3622,0.2021,-0.1465,-0.3533,-0.3519,-0.3893,-0.3516,-0.2211,-0.1205,0.1125,0.5032,0.5178,0.5301,0.5535,0.543,0.5508,0.5758,0.5814,0.5358,0.4406,0.4416,0.3747,0.255,0.0731,0.0,0.0,0.0,0.0,0.0187,0.1699,0.3214,0.4516,0.4508,0.3919,0.3188,0.3188,0.0,0.0,0.0,0.0,0.0,0.0,0.0,0.0,0.0,0.0,0.0,0.0,0.0,0.0,0.0,0.0,0.0,0.0,0.0,0.0,0.0,0.0,0.0,0.0,0.6547,0.6481,0.6618,0.6697,0.5767,0.3127,0.2036,0.2444,0.4959,0.5058,0.5348,0.6405,0.6582,0.6692,0.6749,0.6983,0.718,0.7326,0.7478,0.757,0.76,0.7658,0.757,0.7333,0.7333,0.7288,0.721,0.721,0.721,0.0,0.7227,0.719,0.7115,0.7115,0.7115,0.0,0.0,0.0,0.0,0.0,0.6939,0.6905,0.0,0.0,0.0,0.0,0.0,0.0,0.0,0.0,0.0,0.0,0.0,0.284,0.4034,0.4103,0.4073,0.4214,0.0454,-0.2098,-0.2413,-0.3416,-0.2815,-0.0292,-0.0886,0.0731,0.5054,0.5345,0.5569,0.5727,0.5772,0.5844,0.5878,0.6037,0.6127,0.6359,0.6315,0.617,0.572,0.2167,0.046,0.0,0.0,0.0,0.0337,0.358,0.4693,0.4593,0.4565,0.4531,0.4521,0.4541,0.0,0.0,0.0,0.0,0.0,0.0,0.0,0.0,0.0,0.0,0.0,0.0,0.0,0.0,0.0,0.0,0.0,0.0,0.0,0.0,0.0,0.0,0.0,0.0,0.6845,0.6754,0.7047,0.6901,0.676,0.685,0.5183,0.4046,0.4041,0.5799,0.6927,0.6852,0.6936,0.7058,0.7187,0.0,0.0,0.0,0.0,0.7777,0.7651,0.7773,0.7767,0.7624,0.7624,0.7614,0.76,0.76,0.76,0.7594,0.7455,0.7397,0.7397,0.7397,0.7397,0.737,0.7109,0.6993,0.701,0.7292,0.7299,0.7187,0.0,0.0,0.0,0.0,0.0,0.0,0.0,0.0,0.0,0.3279,0.3612,0.3736,0.3959,0.407,0.3746,0.2727,0.0752,-0.1468,-0.391,-0.3111,-0.2898,-0.3536,0.1446,0.402,0.3524,0.4954,0.5793,0.5949,0.5973,0.6108,0.6342,0.6424,0.651,0.6658,0.66,0.5457,0.381,0.4717,0.3136,0.0,0.0,0.0,0.0069,0.0806,0.281,0.5188,0.4904,0.474,0.4674,0.4746,0.4632,0.4402,0.3828,0.1947,0.0,0.0,0.0,0.0,0.0,0.0,0.0,0.0,0.0,0.0,0.0,0.0,0.0,0.0,0.0,0.0,0.0,0.0,0.0,0.6445,0.6883,0.704,0.7104,0.721,0.719,0.7078,0.6813,0.6642,0.6693,0.7174,0.7468,0.7303,0.7366,0.7482,0.7509,0.7648,0.774,0.777,0.7916,0.798,0.7953,0.798,0.7919,0.777,0.0,0.0,0.76,0.76,0.76,0.7597,0.7567,0.7556,0.7556,0.7556,0.7556,0.755,0.7492,0.7394,0.7309,0.7489,0.7458,0.735,0.0,0.0,0.0,0.0,0.0,0.0,0.0,0.0,0.0,0.0,0.362,0.4065,0.4032,0.406,0.3891,0.3409,-0.0099,-0.289,-0.4379,-0.3786,-0.3045,-0.2279,0.3063,0.5609,0.4544,0.5522,0.6074,0.6146,0.6217,0.6366,0.6586,0.6586,0.6668,0.6817,0.6826,0.5583,0.3427,0.453,0.4433,0.3469,0.2233,0.1827,0.1682,0.043,0.2338,0.5522,0.537,0.5118,0.4925,0.4947,0.4837,0.4659,0.4556,0.3445,0.1948,0.0,0.0,0.0,0.0,0.0,0.0,0.0,0.0,0.0,0.0,0.0,0.0,0.0,0.0,0.5906,0.0,0.0,0.5607,0.6766,0.7083,0.7149,0.7424,0.7543,0.757,0.7413,0.747,0.7483,0.7509,0.7567,0.7577,0.7492,0.7624,0.7706,0.7706,0.7845,0.7926,0.7926,0.7997,0.8038,0.8038,0.8038,0.8001,0.7926,0.7926,0.7889,0.7821,0.7821,0.7821,0.7818,0.774,0.7706,0.7706,0.7706,0.7706,0.7712,0.779,0.7682,0.7502,0.7651,0.7611,0.7506,0.0,0.0,0.0,0.0,0.0,0.0,0.0,0.0,0.0,0.0,0.348,0.4143,0.4143,0.3868,0.3745,0.0,-0.1209,-0.4492,-0.4482,-0.449,-0.314,-0.013,0.365,0.5807,0.6145,0.6293,0.636,0.6346,0.6488,0.6637,0.6787,0.6817,0.6912,0.7065,0.7111,0.6125,0.435,0.3913,0.5079,0.7008,0.5137,0.435,0.404,0.2083,0.3224,0.5799,0.5773,0.5466,0.5142,0.5182,0.4998,0.4642,0.3865,0.3639,0.317,0.0742,0.0,0.0,0.0,0.0,0.0,0.0,0.0,0.0,0.0,0.0742,0.2187,0.5199,0.6435,0.6884,0.6404,0.6579,0.6947,0.7275,0.7238,0.7397,0.776,0.7838,0.7814,0.7699,0.7685,0.7685,0.7685,0.7685,0.7685,0.7685,0.779,0.7855,0.7855,0.7974,0.8038,0.8038,0.8069,0.8069,0.8038,0.8069,0.8069,0.8038,0.8038,0.8038,0.8038,0.8038,0.8038,0.8031,0.7909,0.7855,0.7855,0.7855,0.7855,0.7868,0.7991,0.7892,0.7699,0.7814,0.7767,0.7662,0.0,0.0,0.0,0.0,0.0,0.0,0.0,0.0,0.0,0.0,0.0,0.0,0.0,0.0,0.0,0.2102,-0.1954,-0.4478,-0.4526,-0.4482,-0.3184,-0.0134,0.2227,0.4465,0.656,0.6523,0.6498,0.6651,0.6803,0.6949,0.7095,0.7231,0.7377,0.7526,0.746,0.7289,0.7111,0.4911,0.539,0.7496,0.723,0.6982,0.664,0.6408,0.6281,0.6228,0.5894,0.5614,0.5368,0.5384,0.4971,0.4079,0.1384,0.0493,0.0412,0.0117,0.0,0.0,0.0,0.0,0.0,0.0,0.0,0.0,0.0,0.327,0.5827,0.4239,0.5384,0.6583,0.6367,0.6647,0.6915,0.7092,0.7465,0.7753,0.7804,0.7929,0.8007,0.7991,0.7991,0.7991,0.7991,0.7991,0.7991,0.7991,0.8004,0.8014,0.8014,0.8031,0.8038,0.8038,0.8174,0.8177,0.8041,0.8177,0.8177,0.8038,0.8038,0.8038,0.8038,0.8038,0.8038,0.8038,0.8021,0.8014,0.8014,0.8014,0.8014,0.8014,0.8031,0.8021,0.7991,0.8007,0.7919,0.7811,0.0,0.0,0.0,0.0,0.0,0.0,0.0,0.0,0.0,0.0,0.0,0.0,0.0,0.0,0.0864,0.074,-0.0862,-0.2621,-0.4367,-0.2876,-0.0197,0.3518,0.3293,0.4232,0.6576,0.6537,0.659,0.6834,0.698,0.7129,0.7278,0.7431,0.7539,0.7604,0.7594,0.764,0.765,0.6664,0.6768,0.7647,0.7495,0.7444,0.7248,0.7119,0.6774,0.6297,0.615,0.5876,0.0,0.584,0.5546,0.4451,0.1039,0.0,0.0,0.0,0.0,0.0,0.0,0.0,0.0,0.0,0.0,0.0,0.0,0.3678,0.6907,0.6064,0.6522,0.7058,0.6963,0.7132,0.7363,0.0,0.7689,0.7841,0.7933,0.7997,0.8038,0.8038,0.8038,0.8075,0.8167,0.8248,0.8296,0.8296,0.8296,0.8296,0.8296,0.8218,0.8174,0.8174,0.815,0.8147,0.8174,0.8147,0.815,0.8174,0.8082,0.8038,0.8038,0.8038,0.8038,0.8038,0.8038,0.8038,0.8038,0.8038,0.8038,0.8038,0.8038,0.8038,0.8038,0.8038,0.7997,0.7953,0.0,0.0,0.0,0.0,0.0,0.0,0.0,0.0,0.0,0.0,0.0,0.0,0.0,0.0,0.0,0.0,0.0,-0.0553,-0.1933,0.0187,0.265,0.5338,0.4418,0.473,0.664,0.6627,0.6681,0.6987,0.7132,0.7282,0.7438,0.7587,0.7682,0.7726,0.7828,0.7784,0.7798,0.7882,0.7784,0.7774,0.76,0.7444,0.7413,0.731,0.6903,0.6395,0.6306,0.604,0.574,0.5981,0.5088,0.3476,0.0839,0.0,0.0,0.0,0.0,0.0,0.0,0.0,0.0,0.0,0.0,0.0389,0.1882,0.4849,0.7273,0.7539,0.7559,0.7467,0.7488,0.7556,0.7692,0.7794,0.7845,0.7913,0.8024,0.8038,0.8038,0.8038,0.8075,0.8163,0.8316,0.8387,0.8438,0.8479,0.8482,0.8482,0.8482,0.8384,0.833,0.833,0.8262,0.8258,0.833,0.8218,0.8197,0.8269,0.8113,0.8038,0.8038,0.8038,0.8038,0.8038,0.8038,0.8038,0.8038,0.8038,0.8038,0.8038,0.8038,0.8038,0.8038,0.8038,0.8038,0.8038,0.0,0.0,0.0,0.0,0.0,0.0,0.0,0.0,0.0,0.0,0.0,0.0,0.0,0.0,0.0,0.0,0.0,0.1192,0.4013,0.484,0.465,0.3275,0.4924,0.618,0.6788,0.6702,0.6837,0.7132,0.7288,0.7444,0.7597,0.774,0.7882,0.8028,0.8031,0.8031,0.8035,0.8031,0.8031,0.8021,0.7862,0.7628,0.7413,0.7573,0.7243,0.6689,0.6373,0.5885,0.542,0.5424,0.3095,0.0119,0.0061,0.0,0.0,0.0,0.0,0.0,0.0,0.0,0.0,0.0,0.0,0.1343,0.656,0.7698,0.7633,0.7647,0.767,0.7584,0.759,0.7709,0.7804,0.7811,0.7936,0.8035,0.8038,0.8038,0.8038,0.8038,0.8174,0.8319,0.0,0.8357,0.8333,0.8472,0.8482,0.8482,0.8482,0.8479,0.8476,0.8476,0.8615,0.8621,0.8476,0.8472,0.8404,0.8269,0.8113,0.8038,0.8038,0.8038,0.8038,0.8038,0.8038,0.8038,0.8038,0.8038,0.8038,0.8038,0.8038,0.8038,0.8038,0.8038,0.8038,0.8038,0.0,0.0,0.0,0.0,0.0,0.0,0.0,0.0,0.0,0.0,0.0,0.0,0.0,0.0,0.0,0.0,0.1838,0.3421,0.4432,0.4833,0.4935,0.4622,0.5541,0.6162,0.6489,0.6603,0.68,0.7,0.7248,0.7451,0.7604,0.7743,0.7892,0.8038,0.8038,0.8038,0.8031,0.7929,0.7889,0.7855,0.7506,0.7305,0.7149,0.7082,0.6663,0.6135,0.0,0.3665,0.1831,0.1818,0.1034,0.0,0.0,0.0,0.0,0.0,0.0,0.0,0.0,0.0,0.0,0.0,0.2695,0.5818,0.7592,0.7869,0.7747,0.7844,0.7646,0.7478,0.758,0.7638,0.7672,0.7672,0.7879,0.8038,0.8038,0.8038,0.8038,0.8038,0.8085,0.0,0.0,0.0,0.0,0.8774,0.8784,0.8784,0.8784,0.8689,0.8632,0.8632,0.8652,0.8652,0.8632,0.8601,0.8577,0.856,0.8309,0.814,0.8038,0.8038,0.8038,0.8038,0.8038,0.8038,0.8038,0.8038,0.8038,0.8038,0.8038,0.8038,0.8038,0.8038,0.8038,0.8038,0.0,0.0,0.0,0.0,0.0,0.0,0.0,0.0,0.0,0.0,0.0,0.0,0.0,0.0,0.0,0.0,0.0,0.4495,0.4525,0.4753,0.4945,0.5209,0.5538,0.5813,0.6017,0.6207,0.6403,0.6607,0.6905,0.7129,0.7282,0.7478,0.7624,0.7719,0.7777,0.7804,0.7807,0.7801,0.7631,0.7453,0.734,0.7114,0.694,0.69,0.6527,0.0,0.4897,0.3237,0.1461,0.0343,0.0,0.0,0.0,0.0,0.0,0.0,0.0,0.0,0.0,0.0,0.0477,0.2366,0.5411,0.8033,0.7998,0.7855,0.7866,0.7904,0.7715,0.7465,0.7509,0.7519,0.7519,0.7519,0.7678,0.7838,0.7943,0.7916,0.794,0.8102,0.8123,0.8238,0.0,0.0,0.0,0.8927,0.8988,0.8991,0.8944,0.8893,0.8845,0.8794,0.8764,0.876,0.8791,0.8706,0.8652,0.8625,0.8435,0.8265,0.8123,0.8123,0.8092,0.8038,0.8038,0.8038,0.8038,0.8038,0.8038,0.8038,0.8038,0.8038,0.8038,0.8038,0.8038,0.8038,0.0,0.0,0.0,0.0,0.0,0.0,0.0,0.0,0.0,0.0,0.0,0.0,0.0,0.0,0.0,0.0,0.0,0.0,0.448,0.468,0.4828,0.4901,0.505,0.5267,0.5559,0.5583,0.5728,0.6006,0.6305,0.6529,0.6685,0.697,0.7105,0.7112,0.7261,0.7339,0.7356,0.7427,0.7155,0.6744,0.7256,0.7108,0.6465,0.6927,0.6736,0.6136,0.4773,0.4385,0.4116,0.1267,0.0173,0.0,0.0,0.0,0.0,0.0,0.0,0.0074,0.0311,0.0325,0.161,0.6675,0.7982,0.7956,0.7983,0.8024,0.7984,0.7831,0.7675,0.7519,0.7373,0.7356,0.7363,0.737,0.739,0.7506,0.7794,0.7719,0.7797,0.0,0.0,0.0,0.0,0.0,0.0,0.895,0.0,0.9089,0.8967,0.9076,0.9083,0.8954,0.8944,0.894,0.894,0.8794,0.8645,0.8492,0.8492,0.8414,0.8272,0.8272,0.8184,0.8038,0.8038,0.8038,0.8038,0.8038,0.8038,0.8038,0.8038,0.8038,0.8038,0.8038,0.8038,0.8038,0.0,0.0,0.0,0.0,0.0,0.0,0.0,0.0,0.0,0.0,0.0,0.0,0.0,0.0,0.0,0.0,0.0,0.0,0.448,0.4616,0.4711,0.4748,0.4992,0.5169,0.5247,0.5474,0.5627,0.5701,0.6,0.622,0.6376,0.6559,0.6644,0.6644,0.7033,0.7062,0.6881,0.5505,0.4816,0.4849,0.6113,0.5715,0.4494,0.5982,0.6451,0.5859,0.2413,0.2863,0.5037,0.4275,0.2254,0.0,0.0,0.0,0.0,0.0,0.0,0.078,0.4327,0.5263,0.5601,0.6961,0.7634,0.7969,0.8004,0.8039,0.7928,0.7587,0.736,0.7179,0.7051,0.7129,0.7238,0.7353,0.7651,0.0,0.8126,0.8123,0.0,0.856,0.0,0.8713,0.9011,0.9039,0.0,0.0,0.91,0.9072,0.9259,0.9093,0.9025,0.9096,0.8994,0.894,0.894,0.8899,0.8804,0.8652,0.8652,0.852,0.8272,0.8272,0.8184,0.8038,0.8038,0.8038,0.8038,0.8038,0.8038,0.8038,0.8038,0.8038,0.8038,0.8038,0.8038,0.8038,0.0,0.0,0.0,0.0,0.0,0.0,0.0,0.0,0.0,0.0,0.0,0.0,0.0,0.0,0.0,0.0,0.0,0.0,0.0,0.4548,0.4589,0.4589,0.4748,0.4836,0.4836,0.5074,0.5196,0.5196,0.5491,0.5677,0.5769,0.5915,0.6064,0.6148,0.6457,0.6579,0.6497,0.5264,0.4172,0.0,0.0,0.3416,0.3233,0.3455,0.4529,0.5614,0.3249,0.3236,0.4531,0.5264,0.4185,0.2234,0.056,0.0722,0.1339,0.0308,0.1504,0.3678,0.6337,0.7248,0.7514,0.7506,0.7726,0.7955,0.7963,0.7942,0.7681,0.7353,0.7105,0.6997,0.6841,0.7,0.717,0.7255,0.7594,0.7923,0.814,0.8228,0.8404,0.8767,0.8866,0.0,0.9228,0.9252,0.9317,0.0,0.9327,0.9276,0.9374,0.9286,0.9511,1.0274,0.9482,0.9001,0.894,0.894,0.8896,0.8811,0.8811,0.8689,0.8462,0.8394,0.8282,0.8136,0.0,0.8038,0.8038,0.8038,0.8038,0.8038,0.8038,0.8038,0.8038,0.8038,0.8726,0.9702,0.0,0.0,0.0,0.0,0.0,0.0,0.0,0.0,0.0,0.0,0.0,0.0,0.0,0.0,0.0,0.0,0.0,0.0,0.0,0.0,0.0,0.4519,0.4519,0.4519,0.4519,0.4592,0.466,0.466,0.4938,0.5074,0.5077,0.523,0.5432,0.5563,0.5564,0.5641,0.573,0.5209,0.4043,0.2377,0.1127,0.1308,0.2247,0.0,0.0,0.5373,0.5416,0.4515,0.3617,0.5196,0.5797,0.5303,0.1931,0.213,0.3238,0.1448,0.3888,0.7077,0.7126,0.7583,0.8029,0.7988,0.7962,0.7917,0.7966,0.7678,0.7372,0.708,0.6915,0.6865,0.6753,0.6956,0.7153,0.7193,0.7441,0.7736,0.8055,0.8231,0.8496,0.8944,0.9127,0.9273,0.9425,0.9439,0.9496,0.9629,0.9639,0.9581,0.9445,0.953,1.0189,1.1371,0.995,0.9066,0.894,0.894,0.894,0.894,0.894,0.8859,0.8706,0.8554,0.8404,0.8262,0.8106,0.0,0.8038,0.8038,0.8137,0.8333,0.8333,0.8237,0.8038,0.8038,0.9895,1.2334,0.0,0.0,0.0,0.0,0.0,0.0,0.0,0.0,0.0,0.0,0.0,0.0,0.0,0.0,0.0,0.0,0.0,0.0,0.0,0.0,0.0,0.0,0.4519,0.4519,0.4519,0.4543,0.456,0.456,0.468,0.4765,0.4769,0.4925,0.4931,0.4813,0.3743,0.3144,0.2837,0.1528,0.218,0.4054,0.3848,0.243,0.0748,0.0,0.0,0.0,0.5403,0.5202,0.511,0.5701,0.6243,0.6388,0.5511,0.4475,0.3886,0.5407,0.6424,0.707,0.7121,0.7571,0.7987,0.7959,0.7593,0.7381,0.7859,0.7245,0.6589,0.6754,0.6739,0.6686,0.6871,0.7027,0.7224,0.7478,0.7662,0.7923,0.8347,0.8537,0.8801,0.9249,0.9439,0.9588,0.973,0.9744,0.0,0.0,0.9785,0.9774,0.9744,0.954,0.9554,0.9676,0.9245,0.8964,0.894,0.894,0.894,0.894,0.894,0.8859,0.8706,0.8554,0.8404,0.8262,0.8106,0.0,0.8038,0.8038,0.8821,1.0186,1.0186,0.9308,0.8038,0.8038,1.1063,1.5051,0.0,0.0,0.0,0.0,0.0,0.0,0.0,0.0,0.0,0.0,0.359,0.3583,0.0,0.0,0.0,0.0,0.0,0.0,0.0,0.0,0.0,0.0,0.0,0.0,0.4519,0.4594,0.4597,0.4519,0.0,0.465,0.4572,0.4646,0.4646,0.4582,0.3945,0.3545,0.3372,0.2637,0.3154,0.4502,0.448,0.3633,0.0,0.0,0.0,0.0,0.0,0.543,0.5511,0.5724,0.611,0.6454,0.6452,0.5882,0.5463,0.6766,0.7107,0.7115,0.7109,0.7573,0.8016,0.7962,0.7475,0.6987,0.7407,0.6993,0.6465,0.6491,0.6558,0.6722,0.6797,0.7058,0.7309,0.7458,0.7668,0.7943,0.8319,0.8635,0.8967,0.9337,0.9581,0.9747,0.9815,0.9822,0.9822,0.9822,0.9822,0.9822,0.9822,1.0317,1.0574,1.0402,1.1015,1.1207,1.1214,1.1214,1.1214,1.1214,1.1214,1.1167,1.1069,1.0877,1.0689,1.051,1.0322,0.0,0.9998,0.9998,1.0485,1.1258,1.1258,1.0774,1.019,1.1546,1.3686,1.5832,0.0,0.0,0.0,0.0,0.0,0.0,0.0,0.3727,0.3935,0.4118,0.424,0.43,0.4474,0.4522,0.0,0.0,0.0,0.0,0.0,0.0,0.0,0.0,0.0,0.0,0.0,0.0,0.0,0.4519,0.4582,0.0,0.0,0.0,0.0,0.0,0.4477,0.448,0.4487,0.448,0.4477,0.0,0.0,0.4684,0.0,0.0,0.0,0.0,0.0,0.5447,0.5545,0.5579,0.5827,0.6222,0.6386,0.6596,0.6732,0.6898,0.7034,0.706,0.7135,0.7527,0.7987,0.7981,0.7305,0.6773,0.6929,0.6828,0.6588,0.6379,0.6515,0.6712,0.6742,0.7065,0.7333,0.7366,0.7594,0.7882,0.8225,0.8655,0.9049,0.9347,0.9642,0.9822,0.9822,0.9822,0.0,0.9822,1.0058,0.0,1.0301,1.1177,1.1828,1.2059,1.3024,1.3472,1.3335,1.329,1.3264,1.3264,1.3264,1.3264,1.3259,1.3133,1.2799,1.2582,1.247,0.0,0.0,1.1945,1.2042,1.2139,1.2139,1.2431,1.3011,1.5051,1.5832,1.5832,0.0,0.0,0.0,0.0,0.0,0.0,0.0,0.3819,0.4005,0.4019,0.4267,0.4498,0.4501,0.4512,0.0,0.0,0.0,0.0,0.0,0.0,0.0,0.0,0.0,0.0,0.0,0.0,0.0,0.4519,0.4532,0.0,0.0,0.0,0.0,0.0,0.0,0.4519,0.4522,0.4519,0.0,0.0,0.0,0.0,0.0,0.0,0.0,0.0,0.0,0.5439,0.5403,0.5542,0.5689,0.5821,0.5971,0.6409,0.6756,0.6676,0.6868,0.7111,0.7106,0.7527,0.8041,0.8044,0.7365,0.6614,0.6412,0.6464,0.6539,0.6589,0.6668,0.6742,0.6881,0.7048,0.7207,0.735,0.7509,0.777,0.8208,0.8655,0.9049,0.9347,0.9642,0.9822,0.9822,0.9822,0.9822,0.9822,0.0,0.0,1.1976,1.1641,1.2325,1.4114,1.3623,1.3381,1.3668,1.3366,1.3264,1.3264,1.3264,1.3264,1.3259,1.3133,1.2799,1.2582,1.247,0.0,0.0,1.1945,1.2334,1.3102,1.3102,1.4076,1.5439,1.573,1.5832,1.5832,0.0,0.0,0.0,0.0,0.0,0.0,0.0,0.3751,0.3917,0.3916,0.4153,0.4368,0.4463,0.4522,0.4519,0.0,0.0,0.0,0.0,0.0,0.0,0.0,0.0,0.0,0.0,0.0,0.4563,0.4599,0.4599,0.0,0.0,0.0,0.0,0.0,0.0,0.4519,0.4519,0.4519,0.0,0.0,0.0,0.0,0.0,0.0,0.0,0.0,0.0,0.0,0.5435,0.5433,0.5515,0.5513,0.5617,0.6046,0.6483,0.6414,0.6781,0.7118,0.7057,0.7286,0.7498,0.7886,0.7228,0.6452,0.66,0.6384,0.6242,0.6393,0.6541,0.661,0.6763,0.6912,0.7092,0.7333,0.7421,0.7621,0.8069,0.8364,0.8713,0.9188,0.9429,0.9625,0.0,0.0,1.0179,1.114,0.0,0.0,1.495,1.3957,1.4078,1.5654,1.5371,1.5572,1.6266,1.6157,1.6024,1.5855,1.5855,1.5855,1.5849,1.5846,1.5652,1.5384,1.5123,0.0,0.0,1.4045,1.398,1.368,1.4465,1.5146,1.5832,1.5832,1.5832,1.5832,0.0,0.0,0.0,0.0,0.0,0.0,0.3581,0.37,0.3849,0.391,0.411,0.4257,0.4457,0.4525,0.4522,0.4519,0.0,0.0,0.0,0.0,0.0,0.0,0.0,0.0,0.0,0.0,0.0,0.4691,0.4632,0.471,0.0,0.0,0.4673,0.4507,0.0,0.0,0.0,0.0,0.0,0.0,0.0,0.0,0.0,0.0,0.0,0.0,0.0,0.0,0.0,0.0,0.0,0.5428,0.5393,0.5672,0.6023,0.6069,0.6572,0.7173,0.7315,0.734,0.7423,0.7928,0.7208,0.6474,0.6521,0.6265,0.6074,0.623,0.6373,0.6519,0.6671,0.6824,0.7027,0.7322,0.7411,0.758,0.7984,0.8211,0.8506,0.8967,0.0,0.9367,0.0,1.0127,1.102,1.2093,0.0,0.0,1.6844,1.638,1.6417,1.7292,1.7049,1.7359,1.8183,1.809,1.7889,1.7582,1.7582,1.7582,1.7582,1.7582,1.7408,1.7088,1.682,0.0,0.0,1.5325,1.5242,1.4561,1.5439,1.5832,1.5832,1.5832,1.5832,1.5832,0.0,0.0,0.0,0.0,0.0,0.0,0.0,0.37,0.3846,0.3999,0.4113,0.4261,0.4501,0.4473,0.4473,0.4519,0.0,0.0,0.0,0.0,0.0,0.0,0.0,0.0,0.0,0.0,0.0,0.0,0.4571,0.4588,0.4793,0.4857,0.4773,0.451,0.0,0.0,0.0,0.0,0.0,0.0,0.0,0.0,0.0,0.0,0.0,0.0,0.0,0.0,0.0,0.0,0.0,0.0,0.0,0.5396,0.5434,0.5437,0.6234,0.7257,0.7866,0.8026,0.8037,0.8018,0.7333,0.6537,0.5966,0.5871,0.6074,0.623,0.6373,0.6519,0.6671,0.6824,0.7027,0.7322,0.7499,0.7699,0.7997,0.8296,0.8537,0.0,0.8852,0.9059,0.9357,1.1063,1.2213,0.0,0.0,0.0,1.6968,1.8525,1.9366,1.9359,1.851,1.819,1.8484,1.8196,1.7889,1.7582,1.7582,1.7582,1.7582,1.7582,1.7368,0.0,0.0,0.0,0.0,1.5051,1.5825,1.5825,1.5825,1.5832,1.5832,1.5832,1.5832,1.5832,0.0,0.0,0.0,0.0,0.0,0.0,0.0,0.3765,0.3835,0.3942,0.4075,0.4264,0.4457,0.4477,0.4473,0.4519,0.0,0.0,0.0,0.0,0.0,0.0,0.0,0.0,0.0,0.0,0.0,0.0,0.0,0.0,0.4998,0.5156,0.5143,0.4903,0.4617,0.4488,0.0,0.0,0.0,0.0,0.0,0.0,0.0,0.0,0.0,0.0,0.0,0.0,0.0,0.0,0.0,0.0,0.0,0.0,0.0,0.5994,0.6232,0.6706,0.7246,0.7392,0.7356,0.7366,0.681,0.6292,0.6347,0.6192,0.6074,0.623,0.6373,0.6519,0.6671,0.6824,0.7058,0.7461,0.7567,0.7702,0.7997,0.8296,0.8577,0.8835,0.9266,0.9578,0.0,0.0,1.2693,0.0,0.0,0.0,1.8525,1.8935,1.9158,1.9359,1.9098,1.8798,1.8497,1.8397,1.809,1.7582,1.7582,1.7582,1.7582,1.7582,1.7515,0.0,0.0,0.0,0.0,1.5645,1.5248,1.4561,1.5439,1.5832,1.5832,1.5832,1.5832,1.5832,0.0,0.0,0.0,0.0,0.0,0.0,0.0,0.3754,0.3832,0.393,0.4069,0.4264,0.4457,0.4477,0.4473,0.4519,0.0,0.0,0.0,0.0,0.0,0.0,0.0,0.0,0.0,0.0,0.0,0.0,0.0,0.0,0.0,0.0,0.0,0.4979,0.4697,0.4574,0.0,0.0,0.0,0.0,0.0,0.0,0.5428,0.0,0.0,0.0,0.0,0.0,0.0,0.0,0.0,0.0,0.0,0.0,0.0,0.0,0.6329,0.6381,0.6709,0.6797,0.6812,0.6815,0.6398,0.6083,0.6427,0.623,0.6074,0.623,0.6332,0.6458,0.6661,0.7238,0.7676,0.7619,0.8113,0.8353,0.8182,0.8333,0.0,0.8903,0.0,0.0,0.0,1.2132,0.0,0.0,0.0,0.0,1.9366,1.9192,1.9172,1.9359,1.9259,1.9025,1.8657,1.8651,1.837,1.7816,1.7816,1.7736,1.7582,1.7582,1.7582,0.0,0.0,0.0,0.0,1.5932,1.5045,1.407,1.5337,1.5832,1.5832,1.5832,1.5832,1.5832,0.0,0.0,0.0,0.0,0.0,0.0,0.0,0.0,0.0,0.0,0.4127,0.4274,0.4505,0.4473,0.4473,0.0,0.0,0.0,0.0,0.0,0.0,0.0,0.0,0.0,0.0,0.0,0.0,0.2044,0.3457,0.4358,0.4735,0.0,0.0,0.0,0.4779,0.0,0.0,0.0,0.0,0.0,0.0,0.0,0.0,0.0,0.0,0.0,0.0,0.0,0.0,0.0,0.0,0.0,0.0,0.0,0.0,0.0,0.0,0.0,0.0,0.6341,0.6291,0.6297,0.6179,0.6061,0.6304,0.617,0.0,0.623,0.6278,0.6376,0.6651,0.7907,0.8628,0.7709,0.8839,0.9445,0.0,0.8404,0.0,0.0,0.9346,0.0,1.1672,1.3639,0.0,0.0,0.0,0.0,1.9366,1.9366,1.9366,1.9366,1.9098,1.8945,1.8925,1.8905,1.8657,1.819,1.8163,1.7949,1.7582,1.7582,1.7569,0.0,0.0,0.0,0.0,1.5852,1.5166,1.4166,1.5337,1.5832,1.5832,1.5832,1.5832,1.5832,0.0,0.0,0.0,0.0,0.0,0.0,0.0,0.0,0.0,0.0,0.0,0.4436,0.4515,0.4473,0.0,0.0,0.0,0.0,0.0,0.0,0.0,0.0,0.0,0.0,0.0,0.0,0.0,0.0508,0.0904,0.1894,0.3436,0.4157,0.0,0.0,0.0,0.0,0.0,0.0,0.0,0.0,0.0,0.0,0.0,0.0,0.0,0.0,0.5428,0.5428,0.0,0.0,0.0,0.0,0.0,0.0,0.0,0.0,0.6325,0.6369,0.6517,0.0,0.6493,0.6479,0.6443,0.6388,0.0,0.6335,0.6217,0.6254,0.6441,0.6617,0.6688,0.7928,0.8609,0.7729,0.8644,0.9068,0.8148,0.852,0.0,0.9242,1.0586,1.1622,1.1808,1.4569,0.0,0.0,0.0,1.9366,1.9366,1.9366,1.9366,1.9366,1.9299,1.9152,1.8925,1.8704,1.8417,1.8083,1.7842,1.7675,1.7582,1.7582,1.7415,0.0,0.0,0.0,1.5845,1.6072,1.5833,1.5343,1.5635,1.5832,1.5832,1.5832,1.5832,1.5832,0.0,0.0,0.0,0.0,0.0,0.0,0.0,0.0,0.0,0.0,0.0,0.0,0.0,0.0,0.0,0.0,0.0,0.0,0.0,0.0,0.0,0.0,0.0,0.0,0.0,0.0,0.0,0.0,0.0,0.1579,0.0,0.0,0.0,0.0,0.0,0.0,0.0,0.0,0.0,0.0,0.5603,0.0,0.0,0.0,0.0,0.0,0.5428,0.5428,0.0,0.5428,0.5428,0.5386,0.0,0.0,0.0,0.0,0.6298,0.6355,0.6513,0.6479,0.6451,0.6566,0.6485,0.6376,0.6376,0.6315,0.6278,0.6342,0.6485,0.6637,0.678,0.808,0.8931,0.8567,0.9579,0.0,0.0,0.0,0.9625,0.9452,1.0918,1.2303,0.0,0.0,0.0,0.0,0.0,1.9366,1.9366,1.9366,1.9366,1.9366,1.9366,1.9292,1.9125,1.8971,1.8631,1.8116,1.7949,1.7769,1.7582,1.7582,1.7368,0.0,0.0,0.0,1.5852,1.6199,1.6139,1.5832,1.5832,1.5832,1.5832,1.5832,1.5832,1.5832,0.0,0.0,0.0,0.0,0.0,0.0,0.0,0.0,0.0,0.0,0.0,0.0,0.0,0.0,0.0,0.0,0.0,0.0,0.0,0.0,0.0,0.0,0.0,0.0,0.0,0.0,0.0,0.0,0.0,0.0,0.0,0.0,0.4565,0.0,0.0,0.0,0.0,0.0,0.0,0.0,0.5855,0.0,0.0,0.0,0.0,0.0,0.0,0.0,0.0,0.5428,0.5428,0.5382,0.5375,0.0,0.0,0.0,0.0,0.0,0.6359,0.6369,0.64,0.6524,0.6462,0.6291,0.6291,0.6278,0.6302,0.6441,0.6491,0.66,0.6905,0.8412,0.0,0.0,0.0,0.0,1.0615,1.0967,1.0949,0.9907,1.1512,0.0,0.0,0.0,0.0,0.0,0.0,1.9366,1.9366,1.9366,1.9366,1.9366,1.9366,1.9366,1.9366,1.9279,1.8898,1.8243,1.815,1.7896,1.7515,1.7515,1.7288,1.6887,0.0,0.0,1.5858,1.6233,1.6166,1.5832,1.5832,1.5832,1.5832,1.5832,1.5832,1.5832,0.0,0.0,0.0,0.0,0.0,0.0,0.0,0.0,0.0,0.0,0.0,0.0,0.0,0.0,0.0,0.0,0.0,0.0,0.0,0.0,0.0,0.0,0.0,0.0,0.0,0.0,0.0,0.0,0.0,0.0,0.4141,0.4376,0.4565,0.4697,0.0,0.0,0.0,0.0,0.0,0.0,0.5456,0.0,0.0,0.0,0.0,0.0,0.0,0.0,0.0,0.5428,0.5428,0.5432,0.5389,0.0,0.0,0.0,0.0,0.0,0.6534,0.6524,0.6527,0.6384,0.6374,0.6441,0.6441,0.6346,0.6302,0.6441,0.6576,0.6756,0.7051,0.9101,1.0176,0.0,0.0,1.1063,0.0,0.0,1.3336,1.1676,0.0,0.0,0.0,0.0,0.0,0.0,0.0,1.9366,1.9366,1.9366,1.9366,1.9366,1.9366,1.9366,1.9366,1.8871,1.8564,1.8437,1.7923,1.7515,1.7215,1.7215,1.6914,1.64,0.0,1.64,1.5852,1.6166,1.6112,1.5832,1.5832,1.5832,1.5832,1.5832,1.5832,1.5832,0.0,0.0,0.0,0.0,0.0,0.0,0.0,0.0,0.0,0.0,0.0,0.0,0.0,0.0,0.0,0.0,0.0,0.0,0.0,0.0,0.0,0.0,0.0,0.0,0.0,0.0,0.0,0.0,0.0,0.4504,0.4487,0.4487,0.4606,0.4816,0.0,0.0,0.0,0.0,0.0,0.0,0.0,0.0,0.0,0.0,0.0,0.0,0.0,0.0,0.0,0.0,0.5428,0.5428,0.5428,0.0,0.0,0.0,0.0,0.0,0.6433,0.6454,0.6438,0.6356,0.6413,0.6454,0.6376,0.6308,0.6325,0.6549,0.6651,0.6817,0.7197,0.0,0.9503,1.0367,0.0,1.419,1.3681,1.47,1.4477,0.0,0.0,0.0,0.0,0.0,0.0,0.0,0.0,0.0,1.9366,1.9366,1.9366,1.9366,1.9366,1.9366,1.9366,1.8945,1.8644,1.849,1.821,1.7749,1.7148,1.7148,1.6827,1.6286,0.0,1.6373,1.5852,1.6152,1.6099,1.5832,1.5832,1.5832,1.5832,1.5832,1.5832,1.5832,0.0,0.0,0.0,0.0,0.0,0.0,0.0,0.0,0.0,0.0,0.0,0.0,0.0,0.0,0.0,0.0,0.0,0.0,0.0,0.0,0.0,0.0,0.0,0.0,0.0,0.0,0.2178,0.4494,0.4501,0.4501,0.4494,0.4518,0.4609,0.0,0.0,0.0,0.0,0.0,0.0,0.0,0.0,0.0,0.0,0.0,0.0,0.0,0.0,0.0,0.0,0.0,0.0,0.0,0.0,0.0,0.0,0.5438,0.5772,0.6212,0.625,0.6322,0.6302,0.6271,0.6342,0.6403,0.6329,0.6339,0.6447,0.6742,0.6834,0.6983,0.7397,0.7628,0.0,1.2761,1.5122,1.6299,1.5874,1.6429,1.6026,0.0,0.0,0.0,0.0,0.0,0.0,0.0,0.0,0.0,1.9366,1.9366,1.9366,1.9366,1.9299,1.9299,1.9366,1.9005,1.8711,1.849,1.8424,1.7956,1.7148,1.7148,1.6827,1.6286,1.6506,1.6306,1.5845,1.6072,1.6039,1.5832,1.5832,1.5832,1.5832,1.5832,1.5832,1.5832,0.0,0.0,0.0,0.0,0.0,0.0,0.0,0.0,0.0,0.0,0.0,0.0,0.0,0.0,0.0,0.0,0.0,0.0,0.0,0.0,0.0,0.0,0.0,0.0,0.0,0.273,0.4307,0.448,0.448,0.448,0.4484,0.4498,0.4582,0.4799,0.0,0.0,0.5428,0.5428,0.5428,0.0,0.0,0.0,0.0,0.0,0.0,0.0,0.0,0.0,0.0,0.0,0.0,0.0,0.0,0.0,0.5406,0.5549,0.5698,0.585,0.5993,0.6237,0.6424,0.6295,0.6345,0.6308,0.643,0.6566,0.6753,0.7048,0.7221,0.7417,0.7723,0.8021,0.9745,1.4308,1.4578,1.4706,1.62,0.0,0.0,0.0,0.0,0.0,0.0,0.0,0.0,0.0,0.0,0.0,1.9366,1.9366,1.9366,1.9366,1.9098,1.9085,1.9366,1.8804,1.851,1.849,1.821,1.7756,1.7148,1.7148,1.6827,1.6273,1.6293,1.6126,1.5832,1.5852,1.5845,1.5832,1.5832,1.5832,1.5832,1.5832,1.5832,1.5832,0.0,0.0,0.0,0.0,0.0,0.0,0.0,0.0,0.0,0.0,0.0,0.0,0.0,0.0,0.0,0.0,0.0,0.0,0.0,0.0,0.0,0.0,0.0,0.3959,0.2834,0.3907,0.4477,0.4525,0.4862,0.4919,0.4683,0.4834,0.0,0.0,0.0,0.0,0.5428,0.5428,0.5428,0.5428,0.0,0.0,0.0,0.0,0.0,0.0,0.0,0.0,0.0,0.0,0.5428,0.5446,0.5474,0.544,0.5459,0.5545,0.5691,0.5813,0.5871,0.6173,0.6437,0.6295,0.6396,0.6549,0.6603,0.6732,0.6898,0.7099,0.7261,0.7461,0.7756,0.0,1.272,1.4028,1.5614,1.7154,1.8167,1.9332,0.0,0.0,0.0,0.0,0.0,0.0,0.0,0.0,0.0,0.0,1.9366,1.9366,1.9279,1.9098,1.8985,1.8891,1.8824,1.8597,1.8397,1.8217,1.8103,1.7729,1.7148,1.7148,1.6827,1.6273,1.6273,1.6106,1.5832,1.5832,1.5832,1.5852,1.6099,1.6046,1.5852,1.6039,1.6106,1.6106,0.0,0.0,0.0,0.0,0.0,0.0,0.0,0.0,0.0,0.0,0.0,0.0,0.0,0.0,0.0,0.0,0.0,0.0,0.0,0.0,0.0,0.0,0.0,0.4519,0.4519,0.4525,0.4525,0.4519,0.498,0.5151,0.49,0.0,0.0,0.0,0.0,0.5281,0.5425,0.5377,0.5377,0.5404,0.5404,0.5858,0.0,0.0,0.0,0.0,0.0,0.0,0.0,0.0,0.5428,0.5446,0.5484,0.5447,0.5459,0.5545,0.5691,0.58,0.58,0.6095,0.6383,0.6285,0.6519,0.6797,0.6892,0.6993,0.7122,0.7312,0.7841,0.8389,0.8991,0.0,0.0,0.0,1.638,1.8327,1.9292,0.0,0.0,0.0,0.0,0.0,0.0,0.0,0.0,0.0,0.0,0.0,0.0,1.9366,1.9232,1.8931,1.8831,1.8691,1.8497,1.8303,1.815,1.805,1.7949,1.7682,1.7281,1.7194,1.6881,1.64,1.6313,1.6159,1.5965,1.5865,1.5832,1.5852,1.6126,1.6219,1.6192,1.6152,1.6246,1.642,0.0,0.0,0.0,0.0,0.0,0.0,0.0,0.0,0.0,0.0,0.0,0.0,0.0,0.0,0.0,0.0,0.0,0.0,0.0,0.0,0.0,0.0,0.0,0.4519,0.4519,0.4522,0.4522,0.4519,0.4794,0.4956,0.5114,0.513,0.0,0.0,0.0,0.5417,0.5415,0.5396,0.5392,0.5425,0.5425,0.547,0.5575,0.0,0.0,0.0,0.0,0.0,0.0,0.0,0.5432,0.5432,0.5432,0.5432,0.5463,0.5549,0.5691,0.5803,0.5803,0.6027,0.6342,0.6342,0.66,0.7007,0.7305,0.7373,0.7458,0.775,0.8999,1.0391,1.1658,1.2481,0.0,1.5281,1.618,1.7359,1.9203,0.0,0.0,0.0,0.0,0.0,0.0,0.0,0.0,0.0,0.0,0.0,0.0,1.9366,1.9225,1.8925,1.8637,1.8484,1.8484,1.7883,1.7736,1.8036,1.7729,1.7582,1.7569,1.7281,1.6987,1.6693,1.6406,1.6279,1.6253,1.5952,1.5838,1.5845,1.5845,1.6313,1.6901,1.6126,1.6206,1.674,0.0,0.0,0.0,0.0,0.0,0.0,0.0,0.0,0.0,0.0,0.0,0.0,0.0,0.0,0.0,0.0,0.0,0.0,0.0,0.0,0.0,0.0,0.0,0.0,0.0,0.0,0.4549,0.4737,0.4838,0.4989,0.0,0.0,0.0,0.5071,0.0,0.5325,0.5203,0.5332,0.538,0.5613,0.8042,0.8351,0.7475,0.0,0.0,0.0,0.0,0.0,0.0,0.0,0.0,0.0,0.5671,0.5671,0.5681,0.5725,0.5844,0.5962,0.5962,0.6179,0.641,0.641,0.6746,0.7129,0.7326,0.7455,0.7587,0.7773,0.8999,1.0134,1.0762,1.2792,0.0,1.5742,1.706,1.832,0.0,0.0,0.0,0.0,0.0,0.0,0.0,0.0,0.0,0.0,0.0,0.0,0.0,1.9165,1.8925,1.8631,1.8337,1.8076,1.7856,1.7675,1.7629,1.7716,1.7622,1.7582,1.7582,1.7495,1.7295,1.7014,1.6927,1.6693,1.6339,1.5979,1.6313,1.7061,1.7061,1.6947,1.678,1.6687,1.6807,1.7014,0.0,0.0,0.0,0.0,0.0,0.0,0.0,0.0,0.0,0.0,0.5202,0.4481,0.0,0.0,0.0,0.0,0.0,0.0,0.0,0.0,0.0,0.0,0.0,0.0,0.0,0.4676,0.4716,0.0,0.0,0.0,0.0,0.0,0.5311,0.5223,0.0,0.525,0.5223,0.5325,0.5429,0.5672,0.8433,0.8527,0.7163,0.0,0.0,0.0,0.0,0.0,0.0,0.0,0.0,0.0,0.58,0.58,0.5813,0.5874,0.5959,0.603,0.603,0.6244,0.6485,0.6549,0.6898,0.7288,0.7499,0.7665,0.7907,0.8637,0.9929,1.1155,1.1861,1.4213,0.0,1.6736,1.7819,0.0,0.0,0.0,0.0,0.0,0.0,0.0,0.0,0.0,0.0,0.0,0.0,0.0,0.0,1.9018,1.8738,1.833,1.8143,1.7896,1.7589,1.7582,1.7582,1.7582,1.7582,1.7582,1.7582,1.7462,1.7315,1.725,1.7108,1.6874,1.6533,1.6526,1.6941,1.7582,1.7582,1.7368,1.7041,1.6927,1.7068,1.7315,0.0,0.0,0.0,0.0,0.0,0.0,0.0,0.0,0.0,0.0,0.6287,0.4481,0.0,0.0,0.0,0.0,0.0,0.0,0.0,0.0,0.0,0.0,0.0,0.0,0.0,0.0,0.0,0.0,0.0,0.0,0.0,0.0,0.5488,0.5533,0.0,0.5284,0.5592,0.5467,0.5471,0.569,0.7293,0.6974,0.586,0.7629,0.0,0.0,0.0,0.0,0.0,0.0,0.0,0.0,0.5827,0.583,0.5867,0.5993,0.604,0.6054,0.6067,0.6342,0.6676,0.6695,0.7166,0.7667,0.7767,0.8038,0.8567,0.9903,0.0,1.2703,1.423,1.6147,1.7576,1.8003,1.8524,0.0,0.0,0.0,0.0,0.0,0.0,0.0,0.0,0.0,0.0,0.0,0.0,0.0,0.0,1.8871,1.8597,1.8063,1.8016,1.7869,1.7589,1.7582,1.7582,1.7582,1.7582,1.7582,1.7575,1.7308,1.7188,1.7188,1.7088,1.6947,1.6827,1.7361,1.7582,1.7582,1.7582,1.7582,1.7515,1.6981,1.7121,1.7582,0.0,0.0,0.0,0.0,0.0,0.0,0.0,0.0,0.0,0.0,0.0,0.0,0.0,0.0,0.0,0.0,0.0,0.0,0.0,0.0,0.0,0.0,0.0,0.0,0.0,0.0,0.0,0.0,0.0,0.0,0.0,0.0,0.0,0.6667,0.573,0.6032,0.7138,0.5917,0.5778,0.6445,0.7051,0.7321,0.7666,0.982,1.0801,0.0,0.0,0.0,0.0,0.0,0.0,0.0,0.602,0.6064,0.6146,0.6057,0.6115,0.6237,0.6346,0.713,0.7688,0.7118,0.8197,0.9088,0.8143,0.8799,0.9715,1.0139,1.0702,1.1973,1.4533,1.5533,1.6442,1.8077,0.0,0.0,0.0,0.0,0.0,0.0,0.0,0.0,0.0,0.0,0.0,0.0,0.0,0.0,1.8925,1.8484,1.8176,1.805,1.7809,1.7649,1.7582,1.7582,1.7582,0.0,1.7582,1.7582,1.7582,1.7515,1.7488,1.7488,1.7468,1.7435,1.7402,1.7528,1.7582,1.7582,1.7582,1.7582,1.7569,1.7442,1.7475,1.7582,0.0,0.0,0.0,0.0,0.0,0.0,0.0,0.0,0.0,0.0,0.0,0.0,0.0,0.0,0.0,0.0,0.0,0.0,0.0,0.0,0.0,0.0,0.0,0.0,0.0,0.0,0.0,0.0,0.0,0.0,0.5428,0.5954,0.6559,0.7058,0.6367,0.6473,0.7149,0.5909,0.5881,0.6719,0.7316,0.7847,0.8592,1.0334,1.0811,1.0448,0.9525,0.0,0.0,0.0,0.0,0.0,0.0,0.0,0.693,0.6315,0.6196,0.6278,0.6349,0.7342,0.8418,0.8983,0.9039,0.8909,0.9,0.9084,0.9538,1.1015,1.147,1.22,1.3995,1.534,1.6704,1.8067,0.0,0.0,0.0,0.0,0.0,0.0,0.0,0.0,0.0,0.0,0.0,0.0,0.0,1.8798,1.8517,1.8217,1.7976,1.7829,1.7669,1.7582,1.7582,1.7582,1.7582,1.7582,1.7582,1.7582,1.7582,1.7582,1.7582,1.7582,1.7582,1.7582,1.7582,1.7582,1.7582,1.7582,1.7582,1.7582,1.7582,1.7582,1.7582,1.7582,0.0,0.0,0.0,0.0,0.0,0.0,0.0,0.0,0.0,0.0,0.0,0.0,0.0,0.0,0.0,0.0,0.0,0.0,0.0,0.0,0.0,0.0,0.0,0.0,0.0,0.0,0.0,0.0,0.0,0.538,0.5428,0.6576,0.7261,0.755,0.7053,0.6992,0.7251,0.626,0.6338,0.7242,0.7962,0.8474,0.8913,1.0161,1.0619,1.0394,0.9036,0.8986,0.9542,0.9098,0.0,0.0,0.0,0.0,0.7588,0.6784,0.6412,0.6345,0.6291,0.7427,0.895,1.0765,1.007,0.9114,0.9509,0.923,0.9544,1.1568,1.2209,1.272,1.3742,1.5712,1.7348,1.7949,1.805,0.0,0.0,0.0,0.0,0.0,0.0,0.0,0.0,0.0,0.0,0.0,0.0,1.8557,1.807,1.7996,1.7849,1.7589,1.7582,1.7582,1.7582,1.7582,1.7582,1.7582,1.7582,1.7582,1.7582,1.7582,1.7582,1.7582,1.7582,1.7582,1.7582,1.7582,1.7582,1.7582,1.7582,1.7582,1.7582,1.7582,1.7582,1.7582,0.0,0.0,0.0,0.0,0.0,0.0,0.0,0.0,0.0,0.0,0.4491,0.4512,0.0,0.0,0.0,0.0,0.0,0.0,0.0,0.0,0.0,0.0,0.0,0.0,0.0,0.0,0.0,0.0,0.5409,0.5371,0.5425,0.6587,0.7933,0.9285,0.7979,0.8229,0.9562,0.8201,0.8156,0.8947,0.9075,0.8994,0.8913,1.0161,1.0571,1.0632,1.066,1.005,0.9223,0.9592,0.9173,0.0,0.0,0.0,0.741,0.758,0.6945,0.6288,0.641,0.777,0.9429,1.0418,1.1926,1.2226,0.9015,0.992,1.126,0.0,1.1609,1.3356,1.6188,1.6962,1.7348,1.7949,1.805,0.0,0.0,0.0,0.0,0.0,0.0,0.0,0.0,0.0,0.0,0.0,1.831,1.813,1.805,1.7789,1.7622,1.7582,1.7582,1.7582,1.7582,1.7582,1.7582,1.7582,1.7582,1.7582,1.7582,1.7582,1.7582,1.7582,1.7582,1.7582,1.7582,1.7582,1.7582,1.7582,1.7582,1.7582,1.7582,1.7582,1.7582,1.7582,0.0,0.0,0.0,0.0,0.0,0.0,0.0,0.0,0.0,0.0,0.0,0.4519,0.0,0.0,0.0,0.0,0.0,0.0,0.0,0.0,0.0,0.0,0.0,0.0,0.0,0.0,0.0,0.0,0.5216,0.5794,0.6604,0.7269,0.7856,0.8234,0.868,0.9454,1.0253,0.8709,0.8484,0.9274,0.9274,0.9524,0.9894,0.0,0.0,0.0,0.0,0.0,1.043,1.0516,1.0312,0.9968,0.958,0.0,0.0,0.0,0.8058,0.7921,0.8709,0.8954,0.9407,1.1304,1.1714,1.1303,1.036,1.1068,1.197,1.2253,1.2849,1.3879,1.5663,1.662,1.7288,1.7716,1.7789,0.0,0.0,0.0,0.0,0.0,0.0,0.0,0.0,0.0,0.0,0.0,1.8123,1.7969,1.7796,1.7655,1.7582,1.7582,1.7582,1.7582,1.7582,1.7422,1.7341,1.7341,1.7502,1.7582,1.7582,1.7582,1.7582,1.7582,1.7582,1.7582,1.7582,1.7582,1.7582,1.7582,1.7582,1.7582,1.7582,1.7582,1.7582,1.7582,0.0,0.0,0.0,0.0,0.0,0.0,0.0,0.0,0.0,0.0,0.0,0.0,0.0,0.0,0.0,0.0,0.0,0.0,0.0,0.0,0.0,0.0,0.0,0.0,0.0,0.0,0.0,0.558,0.5365,0.588,0.6954,0.7706,0.797,0.8027,0.9418,1.0192,1.0351,0.9186,0.9069,0.9658,0.9658,1.0047,1.0624,0.0,0.0,0.0,0.0,0.0,0.0,0.0,1.1089,1.1081,1.0387,0.9988,0.0,0.0,0.0,0.8822,0.9536,0.9558,0.9705,1.1305,1.1523,1.1272,1.1342,1.1905,1.2716,0.0,1.3925,1.4246,1.5149,1.6253,1.7108,1.7321,1.7422,1.7442,0.0,0.0,0.0,0.0,0.0,0.0,0.0,0.0,0.0,0.0,1.7816,1.7716,1.7482,1.7402,1.7361,1.7361,1.7435,1.7435,1.7361,1.7221,1.7188,1.7261,1.7475,1.7582,1.7582,1.7582,1.7582,1.7582,1.7582,1.7582,1.7582,1.7582,1.7582,1.7582,1.7582,1.7582,1.7582,1.7582,1.7582,1.7582,0.0,0.0,0.0,0.0,0.0,0.0,0.0,0.0,0.0,0.0,0.0,0.0,0.0,0.0,0.0,0.648,0.0,0.0,0.0,0.0,0.0,0.0,0.0,0.0,0.0,0.0,0.9144,0.8563,0.6142,0.5106,0.552,0.7235,0.8833,1.0425,1.0203,1.008,1.0032,1.0309,1.0491,1.0561,1.0561,1.0561,1.0624,0.0,0.0,0.0,0.0,0.0,0.0,0.0,0.0,0.0,1.0863,1.0267,0.9614,0.0,0.0,0.0,0.688,0.8903,1.0977,0.9479,1.217,1.4167,1.0677,0.0,1.3782,1.3872,1.4066,1.4648,1.6006,1.654,1.6734,1.6747,1.6987,1.7074,0.0,0.0,0.0,0.0,0.0,0.0,0.0,0.0,0.0,0.0,1.7194,1.7188,1.7174,1.6907,1.6747,1.6747,1.7021,1.7041,1.6754,1.7014,1.7288,1.7562,1.7575,1.7582,1.7582,1.7582,1.7582,1.7582,1.7582,1.7582,1.7582,1.7582,1.7582,1.7582,1.7582,1.7582,1.7582,1.7582,1.7582,1.7582,0.0,0.0,0.0,0.0,0.0,0.0,0.0,0.0,0.0,0.0,0.0,0.0,0.0,0.6588,0.6588,0.6588,0.702,0.0,0.0,0.0,0.0,0.0,0.0,0.0,0.0,0.9576,0.922,0.8429,0.7976,0.7677,0.7461,0.819,0.8832,0.943,0.8989,0.9337,1.0401,1.0514,1.0624,1.0624,0.0,0.0,0.0,0.0,0.0,0.0,0.0,0.0,0.0,0.0,0.0,0.0,0.0,0.0,0.0,1.0974,1.0938,1.0795,1.0247,1.0704,1.1161,1.066,1.219,1.3266,1.1348,1.2991,1.4641,1.4034,1.4635,1.539,1.589,1.638,1.6707,1.6707,1.6794,1.6827,1.672,0.0,0.0,0.0,0.0,0.0,0.0,0.0,0.0,0.0,0.0,1.6947,1.7141,1.6867,1.6707,1.6707,1.6807,1.6814,1.6707,1.7001,1.7201,1.7308,1.7495,1.7582,1.7582,1.7582,1.7582,1.7582,1.7582,1.7582,1.7582,1.7582,1.7582,1.7582,1.7582,1.7582,1.7582,1.7582,1.7582,1.7582,0.0,0.0,0.0,0.0,0.0,0.0,0.0,0.0,0.0,0.0,0.0,0.0,0.0,0.0,0.7343,0.7343,0.7777,0.8049,0.8049,0.8533,0.0,0.0,0.0,0.0,0.0,0.0,0.9349,0.8701,0.9057,0.9003,0.8681,0.8576,0.8672,0.8914,0.827,0.8942,1.0624,1.0624,0.0,1.0624,0.0,0.0,1.1149,0.0,0.0,0.0,0.0,0.0,0.0,0.0,0.0,0.0,0.0,0.0,0.0,0.0,0.0,1.2046,1.2269,1.1945,1.1576,1.145,1.2289,1.2885,1.166,1.3466,1.5073,1.401,1.4886,1.5832,1.5832,1.6146,1.6413,1.6413,1.6493,1.6526,1.6426,0.0,0.0,0.0,0.0,0.0,0.0,0.0,0.0,0.0,0.0,0.0,1.6847,1.6573,1.646,1.656,1.6466,1.6506,1.67,1.6807,1.6941,1.7101,1.7328,1.7348,1.7201,1.7462,1.7475,1.7295,1.7395,1.7495,1.7582,1.7582,1.7582,1.7569,1.7435,1.7468,1.7569,1.7475,1.7502,1.7582,0.0,0.0,0.0,0.0,0.0,0.0,0.0,0.0,0.0,0.0,0.0,0.0,0.0,0.0,0.0,0.8804,0.8804,0.8804,0.8804,0.8804,0.0,0.0,0.0,0.0,0.0,0.0,0.0,0.0,0.0,0.0,0.0,0.8302,0.8484,0.9268,0.8431,0.8942,1.0624,0.0,1.0586,1.062,0.0,1.1323,1.2218,0.0,0.0,0.0,1.1848,1.169,0.0,1.1784,0.0,0.0,0.0,0.0,0.0,0.0,0.0,0.0,0.0,0.0,0.0,1.1445,1.2702,1.354,1.1602,1.3302,1.5094,1.3882,1.4854,1.5812,1.5812,1.5818,1.5832,1.5832,1.6072,1.6159,1.5872,1.6079,0.0,0.0,0.0,0.0,0.0,0.0,0.0,0.0,1.6266,1.6259,1.6273,1.5992,1.5965,1.6253,1.5979,1.6106,1.6687,1.6413,1.6513,1.6987,1.7088,1.6887,1.6446,1.7208,1.7248,1.672,1.7014,1.7295,1.7555,1.7555,1.7562,1.7528,1.7154,1.7241,1.7549,1.7268,1.7341,1.7582,0.0,0.0,0.0,0.0,0.0,0.0,0.0,0.0,0.0,0.0,0.0,0.0,0.0,0.0,0.0,0.8804,0.8804,0.8804,0.8804,0.8804,0.8804,0.8804,0.9292,0.0,0.0,0.0,0.0,0.0,0.0,0.0,0.0,0.0,0.0,0.0,0.8681,0.8942,1.0575,1.0632,0.0,1.0639,1.1525,1.2051,0.0,0.0,0.0,0.0,0.0,1.1872,1.2071,0.0,1.2071,1.1864,0.0,0.0,0.0,0.0,0.0,0.0,1.219,0.0,0.0,0.0,0.0,0.0,1.2447,1.3471,1.4513,1.3698,1.4596,1.5518,1.5518,1.5691,1.5832,1.5832,1.5899,1.5925,1.5838,1.5899,0.0,0.0,0.0,0.0,0.0,0.0,0.0,0.0,1.6072,1.6046,1.6259,1.5992,1.5865,1.5945,1.5872,1.6012,1.6386,1.6313,1.6446,1.6787,1.6814,1.676,1.6633,1.6847,1.686,1.6707,1.6794,1.6874,1.6947,1.6947,1.7074,1.7255,1.7154,1.7301,1.7569,1.7495,1.7515,1.7582,0.0,0.0,0.0,0.0,0.0,0.0,0.0,0.0,0.0,0.0,0.0,0.0,0.0,0.0,0.0,0.8804,0.8804,0.8804,0.8804,0.8918,0.8985,0.8985,0.9552,0.9866,0.0,0.0,0.0,0.0,0.0,0.0,0.0,0.0,0.0,0.0,0.0,0.0,1.0606,0.0,0.0,0.0,1.204,0.0,0.0,1.2324,1.222,0.0,0.0,0.0,1.2315,1.2315,1.2317,0.0,0.0,0.0,0.0,0.0,0.0,0.0,0.0,0.0,0.0,1.2808,0.0,0.0,1.2373,1.3372,1.4219,1.3147,1.4204,1.5251,1.5378,1.5531,1.5691,1.5812,1.5832,1.5832,1.5832,1.5832,1.5892,0.0,0.0,0.0,0.0,1.5932,1.5899,1.6072,1.5925,1.5905,1.6079,1.5925,1.5832,1.5832,1.5832,1.5912,1.6086,1.6086,1.6172,1.6339,1.6466,1.646,1.6346,1.6593,1.6573,1.6346,1.6466,1.6453,1.6339,1.6339,1.6587,1.6967,1.6967,1.7141,1.7402,1.7402,1.7475,1.7582,0.0,0.0,0.0,0.0,0.0,0.0,0.0,0.0,0.0,0.0,0.0,0.0,0.0,0.0,0.0,0.0,0.8851,0.8851,0.8851,0.9132,0.0,0.0,0.982,1.0114,1.0114,0.0,0.0,0.0,0.0,0.0,0.0,0.0,0.0,0.0,0.0,0.0,0.0,0.0,0.0,1.2289,1.2283,1.2325,0.0,0.0,1.2443,1.2324,1.2322,1.2313,1.2273,1.2363,1.2339,0.0,0.0,0.0,0.0,0.0,1.1476,0.0,0.0,0.0,0.0,0.0,1.32,0.0,1.2109,1.3155,1.4182,1.2893,1.3894,1.509,1.5351,1.5424,1.5531,1.5785,1.5832,1.5832,1.5832,1.5832,1.5832,0.0,0.0,0.0,1.5832,1.5832,1.5832,1.5832,1.5832,1.5832,1.5832,1.5832,1.5832,1.5832,1.5832,1.5832,1.5832,1.5832,1.5832,1.5832,1.6092,1.6086,1.5845,1.6373,1.6319,1.5845,1.6112,1.6072,1.5832,1.5832,1.6159,1.666,1.6693,1.6887,1.7154,1.7188,1.7361,1.7582,0.0,0.0,0.0,0.0,0.0,0.0,0.0,0.0,0.0,0.0,0.0,0.0,0.0,0.0,0.0,0.0,0.9103,0.9103,0.9103,0.0,0.0,0.9599,0.9933,1.0114,1.0114,1.0408,0.0,0.0,0.0,0.0,0.0,0.0,0.0,0.0,0.0,0.0,0.0,0.0,0.0,1.2289,1.227,0.0,1.2387,1.3369,1.3117,1.2315,1.227,1.2277,1.2406,1.2857,1.2731,1.2257,0.0,0.0,0.0,1.2107,0.0,0.0,0.0,0.0,0.0,0.0,0.0,0.0,1.3612,1.4051,1.4482,1.4477,1.4973,1.5331,1.5384,1.5585,1.5765,1.5818,1.5832,1.5832,1.5832,1.5832,1.5832,1.5832,0.0,0.0,1.5832,1.5832,1.5832,1.5832,1.5832,1.5832,1.5832,1.5832,1.5832,1.5832,1.5832,1.5832,1.5832,1.5832,1.5832,1.5832,1.5885,1.5885,1.5832,1.5952,1.5939,1.5832,1.5892,1.5885,1.5832,1.5832,1.6039,1.638,1.6613,1.6887,1.7181,1.7415,1.7535,1.7582,0.0,0.0,0.0,0.0,0.0,0.0,0.0,0.0,0.0,0.0,0.0,0.0,0.0,0.0,0.0,0.0,0.0,0.0,0.0,0.0,0.0,0.99,1.018,1.0341,1.0341,1.0481,0.0,0.0,0.0,0.0,0.0,0.0,0.0,0.0,0.0,0.0,0.0,0.0,1.2319,1.2263,1.2325,0.0,1.2464,1.3615,1.3355,1.2342,1.3006,1.2784,1.2435,1.3373,1.342,0.0,1.3201,1.3086,1.288,0.0,1.2709,1.2572,0.0,0.0,0.0,1.3013,0.0,0.0,0.0,1.3988,1.4349,1.4496,1.4643,1.483,1.5124,1.5297,1.5444,1.5591,1.5732,1.5832,1.5832,1.5832,1.5832,1.5832,0.0,0.0,1.5832,1.5832,1.5832,1.5832,1.5832,1.5832,1.5832,1.5832,1.5832,1.5832,1.5832,1.5832,1.5832,1.5832,1.5832,1.5832,1.5832,1.5832,1.5832,1.5832,1.5832,1.5832,1.5832,1.5832,1.5832,1.5832,1.5919,1.6092,1.6533,1.68,1.6981,1.7422,1.7582,1.7582,0.8968,0.0,0.0,0.0,0.0,0.0,0.0,0.0,0.0,0.0,0.0,0.0,0.0,0.0,0.0,0.0,0.0,0.0,0.0,0.0,0.0,0.0,1.0552,1.0598,1.0537,1.0598,1.0624,0.0,0.0,0.0,0.0,0.0,0.0,0.0,0.0,1.0882,1.143,0.0,0.0,1.2304,0.0,1.2273,1.2374,1.3411,1.3147,1.2415,1.3528,1.3313,1.2622,1.3729,1.407,1.4076,1.4104,1.3798,0.0,0.0,0.0,0.0,0.0,0.0,0.0,0.0,0.0,1.3961,0.0,0.0,0.0,1.4255,1.4302,1.4482,1.4957,0.0,0.0,0.0,0.0,0.0,0.0,1.5792,0.0,1.5832,1.5832,0.0,1.5832,1.5832,1.573,1.5439,1.5635,1.554,1.5051,1.554,1.573,1.5439,1.5635,1.5832,1.5832,1.5832,1.5832,1.5832,1.5832,1.5832,1.5832,1.5832,1.5832,1.5832,1.5832,1.5865,1.5912,1.5912,1.5945,1.6046,1.652,1.6707,1.6774,1.7368,1.7582,1.7582,0.9626,0.9615,0.0,0.0,0.0,0.0,0.0,0.0,0.0,0.0,0.0,0.0,0.0,0.0,0.0,0.0,0.0,0.0,1.2034,0.0,0.0,0.0,1.1024,1.0441,1.0174,1.0428,1.0624,1.0624,0.0,0.0,0.0,0.0,0.0,0.0,1.0624,1.0882,1.143,0.0,1.2322,0.0,1.2266,1.2285,0.0,1.2444,1.2454,1.2403,1.3059,1.3176,1.3186,0.0,1.4144,1.4104,0.0,1.3789,1.3532,1.3608,0.0,0.0,0.0,0.0,0.0,0.0,1.4035,0.0,0.0,0.0,1.4863,1.4863,0.0,1.5271,1.5337,0.0,0.0,0.0,0.0,0.0,1.5444,1.5665,1.5832,1.5832,1.5832,0.0,0.0,1.5832,1.5337,1.4166,1.5146,1.4758,1.2431,1.4567,1.5242,1.4166,1.5242,1.5832,1.5832,1.5832,1.5832,1.5832,1.5832,1.5832,1.5832,1.5832,1.5832,1.5832,1.5832,1.5979,1.6219,1.6219,1.6373,1.6613,1.668,1.6707,1.6774,1.7368,1.7582,1.7582,0.9702,0.9971,0.0,0.0,0.0,0.0,0.0,0.0,0.0,0.0,0.0,0.0,0.0,0.0,0.0,0.0,0.0,1.3134,0.0,0.0,0.0,0.0,0.0,0.0,1.1437,1.0898,1.0624,1.0624,1.0624,0.0,0.0,0.0,0.0,0.0,1.0887,0.0,1.1934,0.0,1.2325,0.0,0.0,0.0,0.0,1.2589,1.2739,1.336,1.3372,1.3569,1.3797,0.0,1.4099,0.0,0.0,0.0,0.0,1.3868,0.0,0.0,0.0,0.0,0.0,0.0,0.0,0.0,1.4088,0.0,1.4703,0.0,0.0,0.0,0.0,0.0,0.0,0.0,1.5211,0.0,0.0,0.0,1.5645,0.0,0.0,0.0,0.0,0.0,0.0,0.0,1.4848,1.4172,1.3108,1.4076,1.4459,1.3878,1.514,1.5832,1.5832,1.5832,1.5832,1.5832,1.5832,1.5832,1.5832,1.5832,1.5832,1.5832,1.5832,1.5999,1.6259,1.6086,1.6286,1.6707,1.6707,1.6814,1.7014,1.7428,1.7695,1.7822,0.9923,1.0241,1.0416,1.0212,0.0,0.0,0.0,0.0,0.0,0.0,0.0,0.0,1.2569,1.2843,0.0,0.0,1.432,1.4702,0.0,0.0,1.3675,0.0,0.0,0.0,0.0,0.0,1.1016,1.0926,0.0,0.0,0.0,0.0,0.0,0.0,0.0,1.1546,1.2209,0.0,1.2329,1.2542,1.3039,1.3498,1.3761,1.3053,1.3317,1.4092,1.3692,1.3761,1.3933,1.4052,1.4088,0.0,1.4088,0.0,0.0,0.0,0.0,0.0,1.4716,0.0,0.0,0.0,0.0,0.0,0.0,0.0,0.0,0.0,0.0,0.0,0.0,0.0,0.0,0.0,0.0,1.5277,0.0,1.5277,0.0,0.0,0.0,0.0,0.0,0.0,0.0,1.4747,1.4226,1.3454,1.2325,1.3256,1.368,1.3392,1.4949,1.5832,1.5832,1.5832,1.5832,1.5832,1.5832,1.5832,1.5832,1.5832,1.5832,1.5832,1.5832,1.5999,1.6259,1.6126,1.6373,1.6834,1.6914,1.7074,1.7295,1.7502,1.7722,1.7883,1.0541,1.0314,1.0207,1.0551,1.0611,0.0,0.0,0.0,0.0,0.0,0.0,0.0,0.0,0.0,0.0,0.0,0.0,1.5961,1.5815,0.0,1.3701,0.0,0.0,1.2763,0.0,0.0,0.0,1.1772,0.0,0.0,0.0,0.0,0.0,0.0,1.1289,1.1583,1.1962,1.2178,1.2538,1.2913,1.3101,1.3239,1.3253,0.0,1.4093,1.4064,1.3736,0.0,0.0,1.3955,1.4088,0.0,0.0,0.0,0.0,0.0,0.0,0.0,0.0,0.0,0.0,1.495,0.0,0.0,0.0,0.0,1.495,0.0,0.0,0.0,0.0,0.0,0.0,0.0,0.0,0.0,0.0,0.0,0.0,0.0,0.0,0.0,0.0,0.0,1.3391,1.1921,1.316,1.2123,0.8208,1.1717,1.3295,1.2042,1.4465,1.5832,1.5832,1.5832,1.5832,1.5832,1.5832,1.5832,1.5832,1.5832,1.5832,1.5832,1.5832,1.5999,1.6293,1.6567,1.6854,1.7161,1.7442,1.7562,1.7569,1.7582,1.7589,1.7595,1.1406,1.0843,1.0441,1.0604,1.0722,0.0,0.0,1.1733,0.0,0.0,1.4333,0.0,0.0,1.7523,1.7186,0.0,0.0,1.6583,1.6222,1.4673,0.0,0.0,0.0,1.4586,0.0,0.0,0.0,0.0,0.0,0.0,0.0,0.0,0.0,0.0,0.0,1.1991,0.0,0.0,0.0,0.0,0.0,1.4049,1.4407,0.0,0.0,1.4083,1.3998,1.3921,0.0,1.4041,1.4255,1.4329,1.4162,1.4704,1.5425,1.5324,1.6182,0.0,0.0,0.0,1.6299,1.542,0.0,0.0,0.0,0.0,0.0,0.0,0.0,0.0,0.0,0.0,0.0,0.0,0.0,0.0,0.0,0.0,1.471,1.4803,0.0,0.0,0.0,0.0,0.0,1.4167,1.2949,1.1619,1.0364,1.1672,1.2268,1.1945,1.4465,1.5832,1.5832,1.5832,1.5832,1.5832,1.5832,1.5832,1.5832,1.5832,1.5832,1.5832,1.5832,1.5999,1.6279,1.638,1.6707,1.7161,1.7255,1.7415,1.7582,1.7582,1.7716,1.7889,1.2037,1.1425,1.0835,1.0735,1.1455,0.0,0.0,0.0,0.0,0.0,1.5819,0.0,2.1292,0.0,1.9231,0.0,1.8714,1.8147,1.7343,1.6012,0.0,1.6265,1.5633,0.0,0.0,0.0,0.0,0.0,0.0,1.287,1.3255,1.2825,1.2408,0.0,0.0,1.2755,1.2849,1.3331,1.4076,0.0,0.0,1.4853,0.0,0.0,1.4153,1.4277,0.0,1.4088,1.4088,1.4088,1.4249,1.4336,1.4282,1.4794,1.5439,1.5955,1.6939,1.766,1.6994,1.7445,0.0,1.6401,1.5715,0.0,1.5151,0.0,0.0,0.0,0.0,0.0,0.0,0.0,0.0,0.0,0.0,0.0,0.0,1.4489,0.0,1.4509,1.4572,1.4948,0.0,1.4968,1.4641,1.4533,1.2877,1.1523,0.0,0.0,1.1707,1.1843,1.398,1.5337,1.5832,1.5832,1.5832,1.5832,1.5832,1.5832,1.5832,1.5832,1.5832,1.5832,1.5832,1.5939,1.6132,1.6339,1.6653,1.7014,1.7221,1.7415,1.7582,1.7582,1.7709,1.7883,1.25,1.1921,1.1383,0.0,1.2556,0.0,0.0,0.0,1.5561,0.0,1.7274,2.1184,2.2945,2.2139,2.1262,2.0791,2.0946,2.0469,1.9131,1.8247,0.0,0.0,1.5875,1.592,1.7122,0.0,0.0,0.0,0.0,0.0,1.4034,1.4266,1.3684,1.2532,1.3717,0.0,1.2932,1.3812,1.4408,1.4765,1.5245,1.55,1.551,1.4562,1.4429,1.4733,1.4271,1.4088,1.4088,1.4173,1.4179,1.4155,1.4515,1.4421,1.4569,1.6322,1.6946,1.7029,1.7341,1.8395,1.9133,1.7621,0.0,0.0,0.0,0.0,1.5317,0.0,0.0,0.0,0.0,0.0,0.0,0.0,0.0,0.0,0.0,0.0,1.4188,1.4469,1.3888,1.3835,1.4894,1.4068,1.3341,1.2933,1.2944,1.1903,0.0,0.0,1.1607,1.1843,1.3199,1.4459,1.5635,1.573,1.5737,1.573,1.5737,1.5832,1.5832,1.5832,1.5832,1.5832,1.5832,1.5838,1.5892,1.6466,1.6707,1.6767,1.7355,1.7582,1.7582,1.7582,1.7582,1.7582,1.2802,1.2354,1.2051,0.0,1.2179,1.2997,0.0,0.0,0.0,0.0,1.9039,2.0598,2.2843,2.2853,2.2621,2.2482,2.0391,0.0,0.0,0.0,0.0,1.9525,1.8132,1.7444,1.7793,1.793,1.823,1.8749,0.0,0.0,1.6364,1.5379,1.4771,1.4466,1.5097,1.4821,1.3899,1.4665,1.4684,1.44,1.6116,1.6029,1.4811,0.0,1.5494,1.556,1.4496,1.4088,1.4257,1.5347,1.5078,1.4588,1.5412,1.5792,1.6213,1.7581,1.8771,1.9704,1.9799,1.9656,1.9198,1.7934,1.6735,1.5796,0.0,0.0,0.0,0.0,0.0,0.0,0.0,0.0,0.0,0.0,0.0,0.0,0.0,0.0,0.0,1.4188,1.4248,1.4435,1.495,1.455,1.4134,1.408,1.3316,1.2176,1.0711,0.0,0.0,1.048,1.2716,1.359,1.2915,1.4854,1.5343,1.4364,1.5343,1.5832,1.5832,1.5832,1.5832,1.5832,1.5832,1.5952,1.6186,1.6553,1.6707,1.6767,1.7355,1.7582,1.7582,1.7582,1.7582,1.7582,1.3984,1.323,0.0,1.2866,0.0,0.0,1.5283,1.7185,0.0,2.0181,2.0775,0.0,1.9982,2.1832,2.3104,2.314,2.1519,0.0,2.0834,0.0,0.0,2.0596,1.9639,1.9131,1.9131,1.8389,0.0,1.9541,0.0,0.0,1.7928,1.6872,1.6034,1.5411,1.6215,1.579,1.4424,1.5625,1.6013,1.5812,1.7403,1.7409,0.0,1.6405,1.6477,1.6522,1.5779,1.547,1.5553,1.5876,1.5587,1.5177,1.5889,1.6309,1.6858,1.8807,2.0104,2.0839,2.0923,2.1051,2.0764,1.9588,1.8255,1.7172,1.7039,1.6303,1.5545,0.0,0.0,0.0,0.0,0.0,0.0,0.0,0.0,0.0,0.0,0.0,0.0,0.0,1.4342,1.4536,1.4576,1.4543,1.4469,1.4342,1.3815,1.3105,0.0,0.0,0.0,1.1741,1.3102,1.3782,1.3596,1.5051,1.5439,1.4752,1.5439,1.5832,1.5832,1.5832,1.5832,1.5832,1.5832,1.5925,1.6099,1.6393,1.6587,1.6747,1.7215,1.7395,1.7395,1.7395,1.7475,1.7582,1.5258,1.4386,0.0,0.0,0.0,0.0,0.0,1.8547,0.0,2.0218,0.0,2.0802,1.7149,2.0584,2.3086,2.3144,0.0,2.2167,2.0133,2.1765,2.2148,2.081,2.0625,2.0566,2.0566,1.8887,1.8262,0.0,0.0,0.0,1.8877,1.8281,1.7292,1.6074,1.7365,1.6918,1.5311,1.6849,1.7581,1.7769,1.8749,1.8952,1.8659,1.7897,1.7603,1.7506,1.7696,1.7577,1.7163,1.639,1.607,1.6004,1.6415,1.6514,1.7071,1.9869,2.0802,2.0971,2.1459,2.2217,2.2589,2.1391,2.0124,1.9141,1.8742,1.7191,1.5758,1.5504,1.5651,1.5818,0.0,0.0,0.0,0.0,0.0,0.0,0.0,0.0,0.0,0.0,0.0,0.0,1.4115,1.4382,1.4456,1.4168,1.4449,1.4179,0.0,0.0,0.0,1.3622,1.3663,1.419,1.53,0.0,1.575,1.5593,1.575,1.5832,1.5832,1.5832,1.5832,1.5832,1.5832,1.5852,1.5912,1.6206,1.65,1.6787,1.7007,1.7114,1.7148,1.7148,1.7335,1.7582,1.4237,1.567,0.0,0.0,0.0,1.772,1.4785,1.632,1.7872,1.7899,1.7435,1.8271,2.1493,2.2627,2.3084,2.3067,2.3134,0.0,0.0,0.0,0.0,2.1699,2.0957,2.0566,2.0566,1.8887,1.7383,0.0,0.0,0.0,0.0,0.0,1.8016,1.8067,1.872,1.8722,1.8249,1.8262,0.0,1.7475,1.8901,1.8731,1.7721,1.8798,1.8959,1.8841,1.9668,1.8868,1.7415,1.8132,1.7811,1.7237,1.8417,1.8204,1.7935,2.0051,2.0716,2.1067,2.2387,2.2208,2.1302,2.0124,1.8956,1.7755,1.6591,1.6069,1.5812,1.5765,1.5792,1.5758,1.5518,0.0,0.0,0.0,0.0,0.0,0.0,0.0,0.0,0.0,0.0,1.4402,1.4115,1.4569,1.4763,1.4469,1.4937,1.4598,0.0,0.0,0.0,0.0,1.2133,0.0,0.0,0.0,1.5358,1.4582,1.5351,1.5832,1.5832,1.5832,1.5832,1.5832,1.5832,1.5972,1.6219,1.6506,1.68,1.7054,1.6854,1.6934,1.7148,1.7148,1.7335,1.7582,1.7302,0.0,0.0,0.0,0.0,0.0,0.0,1.7562,2.0272,2.0287,1.9931,2.0483,2.2861,2.3135,2.3086,2.3057,2.3066,2.3086,2.3057,2.2403,2.2136,2.2473,2.1269,2.0566,2.0566,1.8887,1.7598,1.6758,0.0,0.0,0.0,0.0,0.0,1.8582,1.8493,1.8736,0.0,0.0,0.0,1.8475,1.9652,1.9633,1.9113,1.9809,1.9967,1.9923,2.0401,1.9913,1.9027,1.9036,1.8638,1.8264,1.9012,1.9097,1.9326,2.0828,2.1597,2.21,2.264,2.2514,2.2073,2.1244,1.9816,1.8495,1.7848,1.6749,1.5832,1.5832,1.5712,1.5518,1.5224,1.519,0.0,0.0,0.0,0.0,0.0,0.0,1.4856,0.0,0.0,0.0,0.0,0.0,0.0,0.0,0.0,0.0,0.0,0.0,0.0,0.0,0.0,0.0,0.0,0.0,0.0,1.5042,1.5599,1.5832,1.5832,1.5832,1.5832,1.5838,1.5992,1.6139,1.6306,1.6754,1.6927,1.6921,1.6934,1.7021,1.7148,1.7148,1.7335,1.7582,2.0129,1.9316,0.0,0.0,1.854,0.0,1.6934,2.0305,2.3138,2.314,2.3132,2.3104,2.3137,2.3075,2.3135,2.3135,2.3135,2.3135,2.3135,2.3135,2.3076,2.3113,2.1631,2.0801,2.0566,1.8887,1.8008,0.0,0.0,0.0,0.0,0.0,0.0,0.0,0.0,0.0,0.0,0.0,1.9129,1.9697,2.0404,2.0664,2.0576,2.0674,2.0644,2.0566,2.0566,2.0566,2.0479,1.9599,1.9362,1.9362,1.9362,1.9786,2.0495,2.1559,2.2353,2.2832,2.2685,2.2891,2.2969,2.2371,2.0899,1.9397,1.9222,1.739,1.5832,1.5832,1.5651,1.5398,1.511,1.5431,0.0,0.0,0.0,0.0,0.0,0.0,0.0,0.0,0.0,0.0,1.4462,0.0,0.0,0.0,0.0,0.0,1.4629,0.0,0.0,0.0,0.0,1.5566,1.5919,0.0,1.5865,1.5925,1.5858,1.5832,1.5832,1.5832,1.5832,1.5845,1.6079,1.6253,1.6406,1.6934,1.7014,1.682,1.7061,1.7148,1.7148,1.7148,1.7335,1.7582,0.0,0.0,0.0,0.0,0.0,0.0,2.4457,2.375,2.3133,2.3096,2.3104,2.3082,2.3125,2.3125,2.3135,2.3135,2.3135,2.3135,2.3135,2.3135,2.314,2.3142,2.2286,2.1419,2.0586,1.8887,1.8008,0.0,0.0,0.0,0.0,0.0,0.0,0.0,0.0,0.0,0.0,2.042,2.043,2.0527,2.0953,2.0917,2.0605,2.1016,2.0918,2.0566,2.0566,2.0566,2.0566,2.0479,2.0479,2.0479,2.0479,2.0537,2.0761,2.165,2.1943,2.2158,2.2881,2.3105,2.2853,2.171,2.0459,1.9222,1.8141,1.6756,1.5832,1.5832,1.5805,1.5698,1.5411,1.5398,1.5431,0.0,0.0,0.0,0.0,0.0,1.5545,1.499,0.0,0.0,1.4182,1.4175,0.0,0.0,1.4877,0.0,0.0,0.0,0.0,1.501,0.0,1.4774,1.6226,1.5965,1.5965,1.6226,1.5959,1.5832,1.5832,1.5832,1.5832,1.5832,1.5858,1.6172,1.6693,1.7014,1.7134,1.7114,1.7141,1.7148,1.7148,1.7148,1.7335,1.7582,0.0,0.0,0.0,0.0,0.0,0.0,0.0,2.512,2.4304,2.3217,2.3104,2.3105,2.3067,2.3135,2.3135,2.3135,2.3135,2.3135,2.3135,2.3135,2.3114,2.3117,2.2142,2.1414,2.1084,1.9746,1.8711,0.0,0.0,0.0,0.0,0.0,0.0,0.0,0.0,2.0322,2.0547,2.0283,2.0322,2.0586,2.0801,2.0752,2.0586,2.0762,2.0723,2.0566,2.0566,2.0566,2.0566,2.0566,2.0566,2.0566,2.0566,2.0928,2.1426,2.1787,2.2246,2.2656,2.2744,2.2949,2.2902,2.2187,2.0775,1.9405,1.8864,1.721,1.5832,1.5832,1.5832,1.5691,1.5224,1.5424,1.5598,0.0,0.0,0.0,0.0,0.0,0.0,1.501,0.0,1.4609,1.4369,1.4349,0.0,0.0,0.0,0.0,0.0,0.0,0.0,1.5231,0.0,1.5395,1.6005,1.5885,1.5885,1.6005,1.5885,1.5832,1.5832,1.5832,1.6025,1.6366,1.6547,1.6854,1.7241,1.7361,1.7408,1.7408,1.7408,1.7408,1.7408,1.7408,1.7482,1.7582,2.3073,0.0,2.3603,0.0,2.4884,2.5698,2.5698,2.5215,2.4545,2.3626,2.3299,2.3135,2.3135,2.3135,2.3135,2.3135,2.3135,2.3135,2.3135,2.3135,2.3086,2.3122,2.2097,0.0,2.1172,2.0234,1.9355,1.8574,1.9683,0.0,0.0,0.0,0.0,0.0,2.0107,2.0273,2.0547,2.0234,2.0283,2.0566,2.0566,2.0566,2.0566,2.0566,2.0566,2.0566,2.0566,2.0566,2.0566,2.0566,2.0654,2.0742,2.0605,2.1172,2.1885,2.1885,2.2393,2.292,2.2744,2.291,2.3066,2.2773,2.1112,1.9497,1.9497,1.7569,1.5832,1.5832,1.5832,1.5678,1.5184,1.5491,1.5732,1.5444,0.0,0.0,0.0,1.5578,0.0,1.4997,1.4703,1.4489,1.4402,1.4396,0.0,0.0,0.0,0.0,0.0,0.0,0.0,0.0,0.0,0.0,0.0,1.5832,1.5832,1.5832,1.5832,1.5832,1.5832,1.5919,1.6233,1.672,1.7021,1.7268,1.7462,1.7549,1.7582,1.7582,1.7582,1.7582,1.7582,1.7582,1.7582,1.7582,2.3144,2.3751,2.4695,2.5502,2.5664,2.5723,2.5723,2.424,2.3411,2.4258,2.3628,2.3135,2.3135,2.3135,2.3135,2.3135,2.3135,2.3135,2.3135,2.3135,2.3122,0.0,0.0,2.1516,2.0596,2.0134,1.9899,1.9893,0.0,0.0,1.8592,0.0,1.9756,2.0557,2.0557,2.0557,2.0566,2.0557,2.0557,2.0566,2.0566,2.0566,2.0566,2.0566,2.0566,2.0566,2.0566,2.0566,2.0566,2.0566,2.0859,2.1152,2.0703,2.1172,2.1885,2.1885,2.2187,2.2607,2.3018,2.3135,2.3135,2.3135,2.1311,1.9497,1.9497,1.7569,1.5832,1.5832,1.5832,1.5738,1.5444,1.5631,1.5732,1.5444,0.0,0.0,0.0,0.0,0.0,1.4997,1.4703,1.4409,1.4122,1.4088,0.0,0.0,0.0,0.0,0.0,0.0,0.0,1.4977,1.5531,0.0,1.5832,1.5832,1.5832,1.5832,1.5832,1.5832,1.5838,1.6132,1.6426,1.672,1.7021,1.7154,1.7181,1.7462,1.7582,1.7582,1.7582,1.7582,1.7582,1.7582,1.7582,1.7582,2.3079,2.3324,2.4015,2.5454,2.5692,2.5742,2.5742,2.5218,2.4803,2.4404,2.4185,2.3783,2.3135,2.3135,2.3135,0.0,2.3135,2.3135,0.0,2.3135,2.3076,2.3113,2.2871,2.222,2.1172,2.0605,2.0117,1.9502,0.0,0.0,0.0,2.041,2.0439,2.0137,2.0439,2.0771,2.1024,2.1045,2.1189,2.1467,2.1121,2.1025,2.0986,2.0684,2.0566,2.0566,2.0566,2.0566,2.0566,2.0566,2.0859,2.1211,2.1064,2.1621,2.2314,2.2314,2.2607,2.2969,2.3105,2.3135,2.3135,2.3135,2.1943,2.0477,1.9679,1.7569,1.5832,1.5832,1.5832,1.5798,1.5712,1.5765,1.5798,1.5705,1.5765,0.0,0.0,0.0,1.499,1.4696,1.4402,1.4188,1.4095,1.4269,0.0,0.0,0.0,0.0,0.0,0.0,0.0,0.0,1.5732,0.0,1.5832,1.5832,1.5932,1.6132,1.6132,1.6239,1.6433,1.6734,1.6921,1.7021,1.7321,1.7442,1.7455,1.7542,1.7582,1.7582,1.7582,1.7582,1.7582,1.7582,1.7582,1.7582,2.3544,2.3324,2.361,2.5402,2.5742,2.5742,2.5742,2.5742,2.5488,2.5002,2.4302,2.3706,2.3125,2.3135,0.0,2.3135,2.3135,2.3135,2.3135,2.3135,2.3135,2.3135,2.2939,2.248,2.1758,2.1164,0.0,2.0005,2.0266,2.0371,2.0322,2.0605,2.0625,2.041,2.0518,2.0889,2.1426,2.1289,2.1403,2.1588,2.1325,2.1133,2.0947,2.0674,2.0566,2.0566,2.0566,2.0566,2.0566,2.0566,2.0977,2.1475,2.1475,2.206,2.2715,2.2559,2.2812,2.3135,2.3135,2.3135,2.3135,2.3135,2.2208,2.0845,1.9222,1.7304,1.5832,1.5832,1.5832,1.5832,1.5832,1.5832,1.5832,1.5832,1.5832,1.5732,1.5438,0.0,0.0,0.0,0.0,0.0,0.0,1.4516,1.4763,0.0,0.0,0.0,0.0,0.0,0.0,1.5671,1.5772,0.0,1.5999,1.5999,1.6139,1.6433,1.6433,1.6587,1.6881,1.7061,1.7208,1.7321,1.7502,1.7582,1.7582,1.7582,1.7582,1.7582,1.7582,1.7582,1.7582,1.7582,1.7582,1.7582,2.4248,2.3828,2.3828,0.0,2.5742,0.0,2.5742,2.5742,2.5693,2.5576,2.4248,2.3271,2.3154,2.3135,2.3135,2.3135,0.0,0.0,0.0,2.3135,2.3135,2.3135,2.2627,2.2344,2.2344,2.1619,2.1214,2.1191,2.0275,1.9951,1.9961,1.9961,2.042,2.1221,2.0801,2.1125,2.1878,2.1438,2.1247,2.1225,2.1199,2.0986,2.0605,2.0576,2.0566,2.0566,2.0566,2.0586,2.0605,2.0605,2.1182,2.1894,2.1924,2.2471,2.3027,2.2656,2.2832,2.3135,2.3135,2.3135,2.3135,2.3135,2.2208,2.0666,1.8319,1.685,1.5927,1.5825,1.5832,1.5832,1.5832,1.5832,1.5832,1.5832,1.5812,1.5698,1.5404,0.0,0.0,0.0,0.0,0.0,0.0,1.4816,1.499,0.0,0.0,0.0,0.0,0.0,1.5738,1.5464,1.5718,1.6005,1.6299,1.6299,1.6446,1.6734,1.6754,1.6914,1.7181,1.7181,1.7328,1.7582,1.7582,1.7582,1.7582,1.7582,1.7582,1.7582,1.7582,1.7582,1.7582,1.7582,1.7582,1.7582,0.0,0.0,2.5254,2.5664,2.5742,2.5742,2.5742,2.5742,2.5254,2.3926,2.4551,2.4619,2.3281,2.3135,2.3135,2.3135,2.3135,2.3135,2.3135,2.3135,2.3135,2.3135,2.3008,2.2939,2.2939,2.2341,2.1607,2.0723,2.0198,2.0091,2.041,2.041,2.0703,2.123,2.1123,2.1348,2.1879,2.1748,2.1748,2.1728,2.1377,2.1172,2.1035,2.0693,2.0566,2.0566,2.0566,2.0781,2.1074,2.1074,2.1435,2.1943,2.2266,2.25,2.2705,2.293,2.3057,2.3135,2.3135,2.3135,2.3135,2.3135,2.2208,2.0935,1.9397,1.8133,1.6943,1.6015,1.5832,1.5832,1.5832,1.5832,1.5832,1.5832,1.5645,1.5398,1.511,1.501,0.0,0.0,1.4723,1.4863,1.4863,1.5124,1.5297,0.0,0.0,0.0,0.0,1.6005,1.6139,1.6066,1.6132,1.6306,1.66,1.6607,1.6754,1.7048,1.7268,1.7408,1.7482,1.7482,1.7515,1.7582,1.7582,1.7582,1.7582,1.7582,1.7582,1.7582,1.7582,1.7582,1.7582,1.7582,1.7582,1.7582,2.4317,2.4863,2.5742,2.5742,2.5742,2.5742,2.5742,2.5742,2.54,2.4453,2.5146,2.5078,2.333,2.3135,2.3135,2.3135,2.3135,2.3135,2.3135,2.3135,2.3135,2.3135,2.3135,2.3135,2.3135,2.2804,2.2078,2.0868,2.045,2.0353,2.0566,2.0566,2.0801,2.1221,2.1025,2.1289,2.1865,2.1666,2.1607,2.1562,2.1328,2.123,2.1211,2.0967,2.0996,2.1172,2.1172,2.1328,2.1533,2.1533,2.1689,2.1963,2.2383,2.251,2.2598,2.3018,2.3135,2.3135,2.3135,2.3135,2.3135,2.3135,2.2208,2.1114,2.0486,1.8956,1.7505,1.685,1.6204,1.5832,1.5832,1.5832,1.5832,1.5832,1.5698,1.5491,1.5204,1.5164,0.0,1.4756,1.4983,1.5164,1.5164,1.5424,1.5591,1.5591,1.5738,0.0,1.6025,1.6186,1.6273,1.6273,1.64,1.6613,1.6907,1.7041,1.7188,1.7348,1.7508,1.7582,1.7582,1.7582,1.7582,1.7582,1.7582,1.7582,1.7582,1.7582,1.7582,1.7582,1.7582,1.7582,1.7582,1.7582,1.7582,1.7582,2.5696,2.5162,2.5742,2.5742,2.5742,2.5742,2.5742,2.5742,2.5742,2.5742,2.5508,2.4785,2.3301,2.3135,2.3135,2.3135,2.3135,2.3135,2.3135,2.3135,2.3135,2.3135,2.3135,2.3076,2.2949,2.2872,2.2217,2.1083,2.0761,2.0566,2.0566,2.0566,2.0801,2.1221,2.085,2.1094,2.1748,2.1332,2.1174,2.1133,2.1133,2.1133,2.1133,2.1133,2.1367,2.1689,2.1689,2.1768,2.1885,2.1885,2.1973,2.2139,2.249,2.2607,2.2676,2.3037,2.3135,2.3135,2.3135,2.3135,2.3135,2.3135,2.2306,2.148,2.1382,1.967,1.8141,1.7777,1.685,1.6015,1.5832,1.5832,1.5832,1.5832,1.5792,1.5678,1.5431,0.0,1.5304,1.5057,1.5284,1.5464,1.5464,1.5685,1.5845,1.5892,1.5899,1.6025,1.6319,1.638,1.6406,1.6406,1.6687,1.7001,1.7348,1.7595,1.7722,1.7722,1.7669,1.7655,1.7649,1.7602,1.7582,1.7582,1.7582,1.7582,1.7582,1.7582,1.7582,1.7582,1.7582,1.7582,1.7582,1.7528,1.7549,1.7575,3.1712,2.8381,2.5742,2.5742,2.5742,2.5742,2.5742,2.5742,2.5742,2.5742,2.4453,2.3437,2.3164,2.3135,2.3135,2.3135,2.3135,2.3135,2.3135,2.3135,2.3135,2.3135,2.3135,2.2812,2.21,2.1738,2.125,2.0664,2.0654,2.0566,2.0566,2.0566,2.0801,2.123,2.116,2.1199,2.1338,2.1209,2.1035,2.0674,2.0674,2.0674,2.0674,2.0674,2.0713,2.0771,2.0771,2.125,2.1885,2.1885,2.2353,2.2959,2.3018,2.3047,2.3057,2.3125,2.3135,2.3135,2.3135,2.3135,2.3135,2.3135,2.296,2.258,2.1569,2.1025,2.0124,1.8141,1.7505,1.7037,1.6015,1.5832,1.5832,1.5832,1.5625,1.5444,1.5404,0.0,1.5378,1.5337,1.5585,1.5758,1.5758,1.5805,1.5932,1.6186,1.6206,1.6326,1.662,1.6881,1.7014,1.7014,1.7295,1.7716,1.8277,1.833,1.835,1.8343,1.8096,1.7976,1.7963,1.7702,1.7582,1.7582,1.7582,1.7582,1.7582,1.7582,1.7582,1.7582,1.7582,1.7582,1.7555,1.7308,1.7375,1.7549,2.9681,2.7305,2.5742,2.5742,2.5742,2.5742,2.5742,2.5742,2.5742,2.5742,2.5039,2.4541,2.4541,2.4541,2.416,2.3223,2.3135,2.3135,2.3135,2.3135,2.3135,2.3135,2.3135,2.2519,2.1201,2.1269,2.1186,2.0956,2.0909,2.0801,2.0566,2.081,2.0908,2.0879,2.0918,2.0908,2.0879,2.0918,2.0791,2.0566,2.0566,2.0713,2.0947,2.1191,2.1416,2.1641,2.1865,2.207,2.2256,2.248,2.2519,2.2539,2.2998,2.2988,2.2852,2.3076,2.3135,2.3135,2.3135,2.3135,2.3135,2.3135,2.3135,2.295,2.2403,2.1756,2.1025,1.9852,1.8596,1.7505,1.6943,1.6298,1.5832,1.5832,1.5718,0.0,0.0,1.5631,1.5631,1.5631,1.5745,1.5892,1.6052,1.6072,1.6192,1.6486,1.6506,1.6633,1.6927,1.7074,1.7295,1.7622,1.7762,1.7969,1.825,1.841,1.849,1.849,1.835,1.8203,1.8043,1.7896,1.7742,1.7582,1.7582,1.7582,1.7582,1.7582,1.7488,1.7348,1.7348,1.7348,1.7315,1.7021,1.7194,1.7542,2.6476,2.5742,2.5869,2.626,2.6328,2.6328,2.6328,2.6328,2.6191,2.5791,2.5742,2.5742,2.5742,2.5371,2.46,2.3252,2.3135,2.3135,2.3135,2.3135,2.3135,2.3135,2.3135,2.2519,2.1191,2.1328,2.1379,2.1372,2.1252,2.1113,2.0879,2.1123,2.1055,2.0713,2.0713,2.0722,2.0713,2.0605,2.0684,2.085,2.0644,2.0898,2.1416,2.1641,2.2002,2.2412,2.2734,2.2705,2.2568,2.2881,2.2627,2.2295,2.2939,2.292,2.2725,2.3047,2.3135,2.3135,2.3135,2.3135,2.3135,2.3135,2.3213,2.3291,2.3291,2.2545,2.1832,2.1645,1.977,1.8186,1.7995,1.6824,1.5932,1.5932,0.0,0.0,0.0,1.5885,1.5932,1.5932,1.5992,1.6119,1.6353,1.6373,1.6493,1.6787,1.6807,1.6967,1.7341,1.7288,1.7495,1.8029,1.8176,1.8283,1.8357,1.8577,1.8698,1.8691,1.8557,1.837,1.8143,1.8003,1.7809,1.7582,1.7582,1.7582,1.7582,1.7582,1.7455,1.7248,1.7248,1.7248,1.7215,1.6921,1.7134,1.7542,2.5732,2.5742,2.624,2.7832,2.8105,2.8105,2.8105,2.8105,2.7529,2.5947,2.5742,2.5742,2.5742,2.4297,2.3281,2.3154,2.3135,2.3135,2.3135,2.3135,2.3135,2.3135,2.3135,2.3076,2.2949,2.1943,2.1549,2.1829,2.1432,2.1426,2.1787,2.1406,2.1221,2.1172,2.1164,2.1194,2.1152,2.0742,2.1035,2.1719,2.0898,2.1074,2.1797,2.1426,2.1553,2.1934,2.1963,2.2207,2.2519,2.2549,2.2773,2.3057,2.3125,2.3115,2.3096,2.3125,2.3135,2.3135,2.3135,2.3135,2.3135,2.3135,2.3437,2.374,2.374,2.365,2.3386,2.2628,2.0985,1.9525,1.8806,1.7281,1.6239,1.6239,0.0,0.0,1.5832,1.6066,1.6239,1.6239,1.648,1.6653,1.6673,1.6673,1.68,1.7094,1.7114,1.7368,1.7949,1.7709,1.7702,1.8036,1.8577,1.8991,1.9265,1.9292,1.9299,1.9299,1.8751,1.8477,1.8437,1.7869,1.7602,1.7582,1.7582,1.7582,1.7582,1.7582,1.7569,1.7549,1.7549,1.7549,1.7515,1.7221,1.7315,1.7542,2.6284,2.5742,2.6279,2.7998,2.7412,2.707,2.8125,2.7393,2.6475,2.582,2.5742,2.5742,2.5742,2.418,2.3135,2.3135,2.3135,2.3135,2.3135,2.3135,2.3135,2.3135,2.3135,2.3135,2.3135,2.2705,2.2298,2.1935,2.1997,2.1973,2.1885,2.1982,2.1889,2.1648,2.1638,2.1609,2.1607,2.1486,2.1611,2.1855,2.1523,2.1582,2.1894,2.1992,2.2129,2.2305,2.2568,2.2598,2.2549,2.2812,2.2832,2.2793,2.3057,2.3135,2.3135,2.3135,2.3135,2.3135,2.3135,2.3135,2.3203,2.3477,2.3662,2.3857,2.4121,2.418,2.4127,2.3811,2.2571,2.1466,2.1128,1.9805,1.8781,1.8997,0.0,1.7301,1.7584,1.6952,1.654,1.654,1.664,1.678,1.6967,1.6981,1.7101,1.7395,1.7595,1.7809,1.8036,1.8277,1.847,1.8584,1.8985,1.9165,1.9092,1.9279,1.9366,1.9366,1.9138,1.8844,1.8484,1.825,1.7936,1.7582,1.7582,1.7582,1.7582,1.7582,1.7475,1.7315,1.7315,1.7315,1.7281,1.6981,1.7174,1.7542,2.6658,2.6935,2.8444,2.9625,2.9362,2.9235,2.9742,2.9351,2.8229,2.5986,2.5742,2.5742,2.5742,2.4668,2.373,2.3184,2.3135,2.3135,2.3135,2.4382,2.4553,2.3135,2.3135,2.3135,2.3135,2.3135,2.2833,2.232,2.2415,2.2432,2.2285,2.2441,2.234,2.2116,2.2109,2.2089,2.2076,2.1921,2.2026,2.2256,2.1992,2.2041,2.2295,2.2451,2.2598,2.2744,2.3037,2.2949,2.2754,2.3047,2.2949,2.2754,2.3047,2.3135,2.3135,2.3135,2.3135,2.3135,2.3135,2.3135,2.3213,2.3516,2.3789,2.4033,2.418,2.4316,2.4453,2.459,2.3655,2.2736,2.2958,2.1579,2.0541,2.0887,1.9484,1.8394,1.8618,1.7668,1.6847,1.6847,1.6927,1.7061,1.7261,1.7375,1.7515,1.7716,1.8016,1.819,1.819,1.8744,1.9018,1.8925,1.9212,1.9225,1.8925,1.9219,1.9366,1.9366,1.9178,1.8885,1.8484,1.829,1.7976,1.7582,1.7582,1.7582,1.7582,1.7582,1.7462,1.7288,1.7288,1.7288,1.7261,1.7054,1.7235,1.7555,2.6658,2.9681,3.3081,3.3081,3.4889,3.5592,3.342,3.4926,3.3768,2.661,2.5742,2.5732,2.5732,2.5732,2.5039,2.331,2.3164,2.3067,2.3135,2.729,2.7799,2.3309,2.3135,2.3135,2.3135,2.3135,2.3135,2.3135,2.2725,2.2734,2.3125,2.2715,2.2536,2.2532,2.2534,2.2465,2.2496,2.2102,2.2349,2.3066,2.2236,2.2393,2.3096,2.2676,2.2773,2.3135,2.3135,2.3135,2.3135,2.3135,2.3135,2.3135,2.3135,2.3135,2.3135,2.3135,2.3135,2.3135,2.3135,2.3144,2.3154,2.3154,2.3789,2.4307,2.3896,2.4121,2.4551,2.498,2.3982,2.3116,2.3619,2.2348,2.1197,2.1197,1.9838,1.8746,1.8754,1.7858,1.7257,1.7154,1.7415,1.7589,1.7589,1.7869,1.805,1.805,1.8323,1.8497,1.8497,1.9052,1.9232,1.8931,1.9212,1.9225,1.8931,1.9219,1.9366,1.9352,1.8771,1.849,1.8464,1.7862,1.7589,1.7582,1.7582,1.7582,1.7582,1.7582,1.7582,1.7582,1.7582,1.7582,1.7582,1.7582,1.7582,1.7582,2.6998,2.9681,3.3081,3.3081,3.3621,3.3834,3.3181,3.3633,3.2039,2.645,2.5742,2.703,3.0508,3.0866,2.9251,2.5273,2.4961,2.4443,2.3223,2.729,2.7799,2.3309,2.3135,2.3135,2.3135,2.3135,2.3135,2.3135,2.3018,2.3018,2.3125,2.2715,2.2646,2.29,2.2621,2.2669,2.2908,2.2805,2.2911,2.3115,2.2861,2.292,2.3125,2.2998,2.3027,2.3135,2.3135,2.3135,2.3135,2.3135,2.3135,2.3135,2.3135,2.3135,2.3135,2.3135,2.3135,2.3135,2.3135,2.3584,2.4033,2.4033,2.4228,2.4463,2.4648,2.5029,2.5293,2.5107,2.5015,2.4975,2.5099,2.4466,2.4066,2.4277,2.2077,2.0448,2.0797,1.9013,1.7695,1.7475,1.7909,1.8136,1.7929,1.8183,1.8357,1.8357,1.8631,1.8885,1.9092,1.9272,1.9325,1.9239,1.9319,1.9325,1.9232,1.9118,1.8951,1.8751,1.8577,1.8384,1.817,1.7989,1.7789,1.7582,1.7582,1.7582,1.7582,1.7582,1.7582,1.7582,1.7582,1.7582,1.7582,1.7582,1.7582,1.7582,2.9457,3.1057,3.3081,3.3081,3.3081,3.3081,3.3081,3.3081,3.2064,2.9039,2.8669,2.9772,3.2797,3.3081,3.1146,2.61,2.5107,2.4957,2.5706,2.8291,2.8621,2.588,2.5714,2.4882,2.3135,2.3135,2.3135,2.3135,2.3135,2.3135,2.3135,2.2881,2.285,2.3117,2.2872,2.2773,2.2848,2.2987,2.3018,2.2842,2.3057,2.3135,2.3135,2.3135,2.3135,2.3135,2.3135,2.3135,2.3135,2.3135,2.3135,2.3135,2.3135,2.3135,2.3135,2.3135,2.3135,2.3135,2.3135,2.3516,2.3994,2.4326,2.4551,2.4609,2.4365,2.4912,2.5342,2.4902,2.5303,2.5742,2.5742,2.5518,2.542,2.5693,2.318,2.1395,2.1618,1.9611,1.7929,1.7615,1.8016,1.8243,1.8063,1.8317,1.8584,1.8818,1.8891,1.9052,1.9352,1.9366,1.9366,1.9366,1.9366,1.9312,1.9192,1.8898,1.8724,1.8657,1.8544,1.8337,1.8043,1.7916,1.7762,1.7582,1.7582,1.7582,1.7582,1.7582,1.7582,1.7582,1.7582,1.7582,1.7582,1.7582,1.7582,1.7582,3.3081,3.3081,3.3081,3.3081,3.3081,3.3081,3.3081,3.3081,3.3081,3.3081,3.3081,3.3081,3.3081,3.3081,3.1235,2.6754,2.4404,2.4967,2.9534,2.9792,2.9792,2.9792,2.9792,2.7879,2.381,2.3309,2.3135,2.3135,2.3135,2.3135,2.3135,2.3008,2.3051,2.3132,2.309,2.2888,2.2604,2.2889,2.2899,2.2621,2.29,2.3105,2.3135,2.3135,2.3135,2.3135,2.3135,2.3135,2.3135,2.3135,2.3135,2.3135,2.3135,2.3135,2.3135,2.3135,2.3135,2.3144,2.3184,2.3223,2.3437,2.4219,2.4775,2.4805,2.3594,2.4258,2.5,2.456,2.5146,2.5742,2.5742,2.5742,2.5742,2.5742,2.3484,2.1752,2.1752,1.9611,1.7943,1.7655,1.7923,1.8116,1.809,1.8357,1.8764,1.9325,1.9118,1.9085,1.9352,1.9366,1.9366,1.9366,1.9366,1.9239,1.8965,1.8698,1.8677,1.8878,1.8564,1.8283,1.8036,1.7722,1.7582,1.7582,1.7582,1.7582,1.7582,1.7582,1.7582,1.7582,1.7582,1.7582,1.7582,1.7582,1.7582,1.7582,3.3081,3.3081,3.3081,3.3081,3.3081,3.3081,3.3081,3.3081,3.3081,3.3081,3.3081,3.3081,3.3081,3.3081,3.2698,3.1601,2.6387,2.4967,2.9534,2.9792,2.9792,2.9792,2.9792,2.9365,2.8371,2.4882,2.3135,2.3135,2.3135,2.3135,2.3135,2.2687,2.2725,2.3093,2.2693,2.2634,2.2932,2.2729,2.2771,2.2949,2.2734,2.2842,2.3135,2.3135,2.3135,2.3135,2.3135,2.3135,2.3135,2.3135,2.3135,2.3135,2.3135,2.3135,2.3135,2.3135,2.3135,2.3213,2.3555,2.3887,2.418,2.4365,2.501,2.543,2.4795,2.5137,2.5469,2.5019,2.5361,2.5742,2.5742,2.5742,2.5742,2.5742,2.3484,2.1752,2.1752,1.9611,1.8023,1.7956,1.841,1.8644,1.8417,1.8657,1.8978,1.9339,1.9305,1.9299,1.9366,1.9366,1.9366,1.9366,1.9366,1.9339,1.9272,1.9212,1.8978,1.8577,1.8036,1.7876,1.8036,1.7722,1.7582,1.7582,1.7582,1.7582,1.7582,1.7582,1.7582,1.7582,1.7582,1.7582,1.7582,1.7582,1.7582,1.7582,3.3081,3.3081,3.3081,3.3081,3.3081,3.3081,3.3081,3.3081,3.3081,3.3081,3.3081,3.3081,3.3081,3.3081,3.3081,3.3081,2.889,2.729,2.9624,2.9792,2.9792,2.9792,2.7706,2.6625,2.6625,2.4296,2.3135,2.3135,2.3135,2.3135,2.3135,2.2814,2.2823,2.3125,2.2832,2.2746,2.2775,2.2607,2.2556,2.2539,2.2519,2.2646,2.2861,2.3066,2.3135,2.3135,2.3135,2.3135,2.3135,2.3135,2.3135,2.3135,2.3135,2.3135,2.3135,2.3135,2.3135,2.3232,2.3672,2.3945,2.4209,2.4629,2.5078,2.5303,2.4863,2.5264,2.5605,2.5166,2.543,2.5742,2.5742,2.5742,2.5742,2.5742,2.3998,2.2458,2.1752,2.0257,1.8881,1.7963,1.8477,1.8865,1.8711,1.8831,1.9045,1.9345,1.9232,1.9219,1.9359,1.9366,1.9366,1.9366,1.9366,1.9366,1.9366,1.9225,1.9072,1.8905,1.8303,1.7949,1.7816,1.7655,1.7582,1.7582,1.7582,1.7582,1.7595,1.7742,1.7716,1.7595,1.7749,1.7716,1.7582,1.7582,1.7675,1.7802,3.3081,3.3081,3.3081,3.3081,3.3081,3.3081,3.3081,3.3081,3.3081,3.3081,3.3081,3.3081,3.3081,3.3081,3.3081,3.3081,3.1411,3.0357,3.0357,3.0005,2.9456,2.87,2.5052,2.3135,2.3135,2.3135,2.3135,2.3135,2.3135,2.3135,2.3135,2.3135,2.3135,2.3135,2.3135,2.2921,2.2562,2.2475,2.2305,2.2105,2.2259,2.2444,2.2656,2.3008,2.3135,2.3135,2.3135,2.3135,2.3135,2.3135,2.3135,2.3135,2.3135,2.3135,2.3135,2.3135,2.3135,2.3252,2.376,2.3896,2.4102,2.4961,2.5185,2.5088,2.4727,2.5205,2.5635,2.5254,2.5478,2.5742,2.5742,2.5801,2.585,2.585,2.4768,2.3471,2.2037,2.1098,1.9895,1.807,1.847,1.8945,1.8991,1.8951,1.9045,1.9345,1.9138,1.9112,1.9352,1.9366,1.9366,1.9366,1.9366,1.9366,1.9366,1.9125,1.9098,1.9285,1.9009,1.8509,1.7809,1.7709,1.7761,1.8064,1.8016,1.8023,1.8085,1.8503,1.8256,1.7682,1.8097,1.8022,1.7589,1.7642,1.7822,1.805,3.3081,3.3081,3.3081,3.3081,3.3081,3.3081,3.3081,3.3081,3.3081,3.3081,3.3081,3.3081,3.3081,3.3081,3.3081,3.3081,3.2805,3.2629,3.2629,3.0846,2.8039,2.4221,2.3387,2.3135,2.3135,2.3135,2.3135,2.3135,2.3135,2.3135,2.3135,2.3135,2.3135,2.3135,2.3135,2.3047,2.2999,2.2485,2.2526,2.2824,2.1891,2.216,2.3057,2.3115,2.3135,2.3135,2.3135,2.3135,2.3135,2.3135,2.3135,2.3135,2.3135,2.3135,2.3135,2.3135,2.3135,2.331,2.4121,2.4336,2.4541,2.542,2.5644,2.5635,2.5576,2.5654,2.5723,2.5664,2.5693,2.5742,2.5742,2.6045,2.6299,2.6299,2.5441,2.4287,2.2803,2.1509,2.0143,1.883,1.8851,1.9025,1.9279,1.9078,1.9045,1.9345,1.9332,1.9325,1.9366,1.9366,1.9366,1.9366,1.9366,1.9366,1.9366,1.9325,1.9199,1.8978,2.02,2.0003,1.8724,1.8217,1.8607,1.9729,1.9442,1.9486,1.9835,2.0814,1.9941,1.8064,1.8969,1.8646,1.7615,1.7883,1.8009,1.805,3.3081,3.3081,3.3081,3.3081,3.3081,3.3081,3.3081,3.3081,3.3081,3.3081,3.3081,3.2604,3.1373,3.234,3.3081,3.3081,3.3081,3.3081,3.3081,3.2164,3.0208,2.701,2.4467,2.3135,2.3135,2.3135,2.3135,2.3135,2.3135,2.3135,2.3135,2.3135,2.3135,2.3135,2.3135,2.3135,2.3135,2.3298,2.3463,2.3665,2.3163,2.3297,2.3713,2.3298,2.3135,2.3135,2.3135,2.3135,2.3135,2.3135,2.3135,2.3135,2.3135,2.3135,2.3135,2.3135,2.331,2.3633,2.4248,2.459,2.4941,2.5576,2.5742,2.5742,2.5742,2.5928,2.6103,2.6103,2.6103,2.6172,2.6406,2.6416,2.6465,2.6699,2.6356,2.5618,2.4228,2.3547,2.2626,2.067,1.9573,1.9038,1.9339,1.9252,1.9225,1.9359,1.9366,1.9366,1.9366,1.9366,1.9366,1.9366,1.9366,1.9366,1.9366,2.0256,2.0516,2.038,2.1923,2.1182,1.8671,1.9255,1.9772,2.0121,1.9971,2.0292,2.1076,2.164,2.1219,2.0165,2.0716,2.0104,1.8826,1.9688,1.9872,1.9556]}]]